[[{"header":{"parameterUnit":"m.s-1","parameterCategory":1,"la1":30.6,"la2":28.766,"lo1":-90.7593,"lo2":-88.6598,"dy":0.0162,"dx":0.0183,"nx":116,"ny":114,"refTime":"2023-08-23T06:00:00:Z","depth":0,"parameterNumber":2,"parameterNumberName":"U-component_of_WINDS"},"data":[0.0,0.0,0.0,0.0,0.0,0.0,0.0,0.0,0.0,0.0,0.0,0.0,0.0,0.0,0.0,0.0,0.0,0.0,0.0,0.0,0.0,0.0,0.0,0.0,0.0,0.0,0.0,0.0,0.0,0.0,0.0,0.0,0.0,0.0,0.0,0.0,0.0,0.0,0.0,0.0,0.0,0.0,0.0,0.0,0.0,0.0,0.0,0.0,0.0,0.0,0.0,0.0,0.0,0.0,0.0,0.0,0.0,0.0,0.0,0.0,0.0,0.0,0.0,0.0,0.0,0.0,0.0,0.0,0.0,0.0,0.0,0.0,0.0,0.0,0.0,0.0,0.0,0.0,0.0,0.0,0.0,0.0,0.0,0.0,0.0,0.0,0.0,0.0,0.0,0.0,0.0,0.0,0.0,0.0,0.0,0.0,0.0,0.0,0.0,0.0,0.0,0.0,0.0,0.0,0.0,0.0,0.0,0.0,0.0,0.0,0.0,0.0,0.0,0.0,0.0,0.0,0.0,0.0,0.0,0.0,0.0,0.0,0.0,0.0,0.0,0.0,0.0,0.0,0.0,0.0,0.0,0.0,0.0,0.0,0.0,0.0,0.0,0.0,0.0,0.0,0.0,0.0,0.0,0.0,0.0,0.0,0.0,0.0,0.0,0.0,0.0,0.0,0.0,0.0,0.0,0.0,0.0,0.0,0.0,0.0,0.0,0.0,0.0,0.0,0.0,0.0,0.0,0.0,0.0,0.0,0.0,0.0,0.0,0.0,0.0,0.0,0.0,0.0,0.0,0.0,0.0,0.0,0.0,0.0,0.0,0.0,0.0,0.0,0.0,0.0,0.0,0.0,0.0,0.0,0.0,0.0,0.0,0.0,0.0,0.0,0.0,0.0,0.0,0.0,0.0,0.0,0.0,0.0,0.0,0.0,0.0,0.0,0.0,0.0,0.0,0.0,0.0,0.0,0.0,0.0,0.0,0.0,0.0,0.0,0.0,0.0,0.0,0.0,0.0,0.0,0.0,0.0,0.0,0.0,0.0,0.0,0.0,0.0,0.0,0.0,0.0,0.0,0.0,0.0,0.0,0.0,0.0,0.0,0.0,0.0,0.0,0.0,0.0,0.0,0.0,0.0,0.0,0.0,0.0,0.0,0.0,0.0,0.0,0.0,0.0,0.0,0.0,0.0,0.0,0.0,0.0,0.0,0.0,0.0,0.0,0.0,0.0,0.0,0.0,0.0,0.0,0.0,0.0,0.0,0.0,0.0,0.0,0.0,0.0,0.0,0.0,0.0,0.0,0.0,0.0,0.0,0.0,0.0,0.0,0.0,0.0,0.0,0.0,0.0,0.0,0.0,0.0,0.0,0.0,0.0,0.0,0.0,0.0,0.0,0.0,0.0,0.0,0.0,0.0,0.0,0.0,0.0,0.0,0.0,0.0,0.0,0.0,0.0,0.0,0.0,0.0,0.0,0.0,0.0,0.0,0.0,0.0,0.0,0.0,0.0,0.0,0.0,0.0,0.0,0.0,0.0,0.0,0.0,0.0,0.0,0.0,0.0,0.0,0.0,0.0,0.0,0.0,0.0,0.0,0.0,0.0,0.0,0.0,0.0,0.0,0.0,0.0,0.0,0.0,0.0,0.0,0.0,0.0,0.0,0.0,0.0,0.0,0.0,0.0,0.0,0.0,0.0,0.0,0.0,0.0,0.0,0.0,0.0,0.0,0.0,0.0,0.0,0.0,0.0,0.0,0.0,0.0,0.0,0.0,0.0,0.0,0.0,0.0,0.0,0.0,0.0,0.0,0.0,0.0,0.0,0.0,0.0,0.0,0.0,0.0,0.0,0.0,0.0,0.0,0.0,0.0,0.0,0.0,0.0,0.0,0.0,0.0,0.0,0.0,0.0,0.0,0.0,0.0,0.0,0.0,0.0,0.0,0.0,0.0,0.0,0.0,0.0,0.0,0.0,0.0,0.0,0.0,0.0,0.0,0.0,0.0,0.0,0.0,0.0,0.0,0.0,0.0,0.0,0.0,0.0,0.0,0.0,0.0,0.0,0.0,0.0,0.0,0.0,0.0,0.0,0.0,0.0,0.0,0.0,0.0,0.0,0.0,0.0,0.0,0.0,0.0,0.0,0.0,0.0,0.0,0.0,0.0,0.0,0.0,0.0,0.0,0.0,0.0,0.0,0.0,0.0,0.0,0.0,0.0,0.0,0.0,0.0,0.0,0.0,0.0,0.0,0.0,0.0,0.0,0.0,0.0,0.0,0.0,0.0,0.0,0.0,0.0,0.0,0.0,0.0,0.0,0.0,0.0,0.0,0.0,0.0,0.0,0.0,0.0,0.0,0.0,0.0,0.0,0.0,0.0,0.0,0.0,0.0,0.0,0.0,0.0,0.0,0.0,0.0,0.0,0.0,0.0,0.0,0.0,0.0,0.0,0.0,0.0,0.0,0.0,0.0,0.0,0.0,0.0,0.0,0.0,0.0,0.0,0.0,0.0,0.0,0.0,0.0,0.0,0.0,0.0,0.0,0.0,0.0,0.0,0.0,0.0,0.0,0.0,0.0,0.0,0.0,0.0,0.0,0.0,0.0,0.0,0.0,0.0,0.0,0.0,0.0,0.0,0.0,0.0,0.0,0.0,0.0,0.0,0.0,0.0,0.0,0.0,0.0,0.0,0.0,0.0,0.0,0.0,0.0,0.0,0.0,0.0,0.0,0.0,0.0,0.0,0.0,0.0,0.0,0.0,0.0,0.0,0.0,0.0,0.0,0.0,0.0,0.0,0.0,0.0,0.0,0.0,0.0,0.0,0.0,0.0,0.0,0.0,0.0,0.0,0.0,0.0,0.0,0.0,0.0,0.0,0.0,0.0,0.0,0.0,0.0,0.0,0.0,0.0,0.0,0.0,0.0,0.0,0.0,0.0,0.0,0.0,0.0,0.0,0.0,0.0,0.0,0.0,0.0,0.0,0.0,0.0,0.0,0.0,0.0,0.0,0.0,0.0,0.0,0.0,0.0,0.0,0.0,0.0,0.0,0.0,0.0,0.0,0.0,0.0,0.0,0.0,0.0,0.0,0.0,0.0,0.0,0.0,0.0,0.0,0.0,0.0,0.0,0.0,0.0,0.0,0.0,0.0,0.0,0.0,0.0,0.0,0.0,0.0,0.0,0.0,0.0,0.0,0.0,0.0,0.0,0.0,0.0,0.0,0.0,0.0,0.0,0.0,0.0,0.0,0.0,0.0,0.0,0.0,0.0,0.0,0.0,0.0,0.0,0.0,0.0,0.0,0.0,0.0,0.0,0.0,0.0,0.0,0.0,0.0,0.0,0.0,0.0,0.0,0.0,0.0,0.0,0.0,0.0,0.0,0.0,0.0,0.0,0.0,0.0,0.0,0.0,0.0,0.0,0.0,0.0,0.0,0.0,0.0,0.0,0.0,0.0,0.0,0.0,0.0,0.0,0.0,0.0,0.0,0.0,0.0,0.0,0.0,0.0,0.0,0.0,0.0,0.0,0.0,0.0,0.0,0.0,0.0,0.0,0.0,0.0,0.0,0.0,0.0,0.0,0.0,0.0,0.0,0.0,0.0,0.0,0.0,0.0,0.0,0.0,0.0,0.0,0.0,0.0,0.0,0.0,0.0,0.0,0.0,0.0,0.0,0.0,0.0,0.0,0.0,0.0,0.0,0.0,0.0,0.0,0.0,0.0,0.0,0.0,0.0,0.0,0.0,0.0,0.0,0.0,0.0,0.0,0.0,0.0,0.0,0.0,0.0,0.0,0.0,0.0,0.0,0.0,0.0,0.0,0.0,0.0,0.0,0.0,0.0,0.0,0.0,0.0,0.0,0.0,0.0,0.0,0.0,0.0,0.0,0.0,0.0,0.0,0.0,0.0,0.0,0.0,0.0,0.0,0.0,0.0,0.0,0.0,0.0,0.0,0.0,0.0,0.0,0.0,0.0,0.0,0.0,0.0,0.0,0.0,0.0,0.0,0.0,0.0,0.0,0.0,0.0,0.0,0.0,0.0,0.0,0.0,0.0,0.0,0.0,0.0,0.0,0.0,0.0,0.0,0.0,0.0,0.0,0.0,0.0,0.0,0.0,0.0,0.0,0.0,0.0,0.0,0.0,0.0,0.0,0.0,0.0,0.0,0.0,0.0,0.0,0.0,0.0,0.0,0.0,0.0,0.0,0.0,0.0,0.0,0.0,0.0,0.0,0.0,0.0,0.0,0.0,0.0,0.0,0.0,0.0,0.0,0.0,0.0,0.0,0.0,0.0,0.0,0.0,0.0,0.0,0.0,0.0,0.0,0.0,0.0,0.0,0.0,0.0,0.0,0.0,0.0,0.0,0.0,0.0,0.0,0.0,0.0,0.0,0.0,0.0,0.0,0.0,0.0,0.0,0.0,0.0,0.0,0.0,0.0,0.0,0.0,0.0,0.0,0.0,0.0,0.0,0.0,0.0,0.0,0.0,0.0,0.0,0.0,0.0,0.0,0.0,0.0,0.0,0.0,0.0,0.0,0.0,0.0,0.0,0.0,0.0,0.0,0.0,0.0,0.0,0.0,0.0,0.0,0.0,0.0,0.0,0.0,0.0,0.0,0.0,0.0,0.0,0.0,0.0,0.0,0.0,0.0,0.0,0.0,0.0,0.0,0.0,0.0,0.0,0.0,0.0,0.0,0.0,0.0,0.0,0.0,0.0,0.0,0.0,0.0,0.0,0.0,0.0,0.0,0.0,0.0,0.0,0.0,0.0,0.0,0.0,0.0,0.0,0.0,0.0,0.0,0.0,0.0,0.0,0.0,0.0,0.0,0.0,0.0,0.0,0.0,0.0,0.0,0.0,0.0,0.0,0.0,0.0,0.0,0.0,0.0,0.0,0.0,0.0,0.0,0.0,0.0,0.0,0.0,0.0,0.0,0.0,0.0,0.0,0.0,0.0,0.0,0.0,0.0,0.0,0.0,0.0,0.0,0.0,0.0,0.0,0.0,0.0,0.0,0.0,0.0,0.0,0.0,0.0,0.0,0.0,0.0,0.0,0.0,0.0,0.0,0.0,0.0,0.0,0.0,0.0,0.0,0.0,0.0,0.0,0.0,0.0,0.0,0.0,0.0,0.0,0.0,0.0,0.0,0.0,0.0,0.0,0.0,0.0,0.0,0.0,0.0,0.0,0.0,0.0,0.0,0.0,0.0,0.0,0.0,0.0,0.0,0.0,0.0,0.0,0.0,0.0,0.0,0.0,0.0,0.0,0.0,0.0,0.0,0.0,0.0,0.0,0.0,0.0,0.0,0.0,0.0,0.0,0.0,0.0,0.0,0.0,0.0,0.0,0.0,0.0,0.0,0.0,0.0,0.0,0.0,0.0,0.0,0.0,0.0,0.0,0.0,0.0,0.0,0.0,0.0,0.0,0.0,0.0,0.0,0.0,0.0,0.0,0.0,0.0,0.0,0.0,0.0,0.0,0.0,0.0,0.0,0.0,0.0,0.0,0.0,0.0,0.0,0.0,0.0,0.0,0.0,0.0,0.0,0.0,0.0,0.0,0.0,0.0,0.0,0.0,0.0,0.0,0.0,0.0,0.0,0.0,0.0,0.0,0.0,0.0,0.0,0.0,0.0,0.0,0.0,0.0,0.0,0.0,0.0,0.0,0.0,0.0,0.0,0.0,0.0,0.0,0.0,0.0,0.0,0.0,0.0,0.0,0.0,0.0,0.0,0.0,0.0,0.0,0.0,0.0,0.0,0.0,0.0,0.0,0.0,0.0,0.0,0.0,0.0,0.0,0.0,0.0,0.0,0.0,0.0,0.0,0.0,0.0,0.0,0.0,0.0,0.0,0.0,0.0,0.0,0.0,0.0,0.0,0.0,0.0,0.0,0.0,0.0,0.0,0.0,0.0,0.0,0.0,0.0,0.0,0.0,0.0,0.0,0.0,0.0,0.0,0.0,0.0,0.0,0.0,0.0,0.0,0.0,0.0,0.0,0.0,0.0,0.0,0.0,0.0,0.0,0.0,0.0,0.0,0.0,0.0,0.0,0.0,0.0,0.0,0.0,0.0,0.0,0.0,0.0,0.0,0.0,0.0,0.0,0.0,0.0,0.0,0.0,-2.7587,0.0,0.0,0.0,0.0,0.0,0.0,0.0,0.0,0.0,0.0,0.0,0.0,0.0,0.0,0.0,0.0,0.0,0.0,0.0,0.0,0.0,0.0,0.0,0.0,0.0,0.0,0.0,0.0,0.0,0.0,0.0,0.0,0.0,0.0,0.0,0.0,0.0,0.0,3.4339,3.6169,3.7593,3.8547,3.9596,4.1183,4.3108,0.0,0.0,0.0,0.0,0.0,0.0,0.0,0.0,0.0,0.0,0.0,0.0,0.0,0.0,0.0,0.0,0.0,0.0,0.0,0.0,0.0,0.0,0.0,0.0,0.0,0.0,0.0,0.0,0.0,0.0,0.0,0.0,0.0,0.0,0.0,0.0,0.0,0.0,0.0,0.0,0.0,0.0,0.0,0.0,0.0,0.0,0.0,0.0,0.0,0.0,0.0,0.0,0.0,0.0,0.0,0.0,0.0,0.0,0.0,0.0,0.0,0.0,0.0,0.0,0.0,0.0,0.0,0.0,0.0,0.0,0.0,-2.923,0.0,0.0,0.0,0.0,0.0,0.0,0.0,0.0,0.0,0.0,0.0,0.0,0.0,0.0,0.0,0.0,0.0,0.0,0.0,0.0,0.0,0.0,0.0,0.0,0.0,0.0,0.0,0.0,0.0,0.0,0.0,0.0,0.0,0.0,0.0,3.2526,3.359,3.3666,3.5552,3.6961,3.7953,3.975,4.12,4.2443,4.386,0.0,0.0,0.0,0.0,0.0,0.0,0.0,0.0,0.0,0.0,0.0,0.0,0.0,0.0,0.0,0.0,0.0,0.0,0.0,0.0,0.0,0.0,0.0,0.0,0.0,0.0,0.0,0.0,0.0,0.0,0.0,0.0,0.0,0.0,0.0,0.0,0.0,0.0,0.0,0.0,0.0,0.0,0.0,0.0,0.0,0.0,0.0,0.0,0.0,0.0,0.0,0.0,0.0,0.0,0.0,0.0,0.0,0.0,0.0,0.0,0.0,0.0,0.0,0.0,-2.9818,-3.0272,-3.0476,-3.1193,-3.2115,-3.1392,-3.1588,-3.2376,0.0,0.0,0.0,0.0,0.0,0.0,0.0,0.0,0.0,0.0,0.0,0.0,0.0,0.0,0.0,0.0,0.0,0.0,0.0,0.0,0.0,0.0,1.2597,1.4615,1.7157,1.9472,2.1337,0.0,0.0,0.0,0.0,0.0,0.0,2.9905,3.1396,3.2362,3.268,3.5725,3.7549,3.8172,4.0215,4.1295,4.151,4.2908,4.406,4.5071,0.0,0.0,0.0,0.0,0.0,0.0,0.0,0.0,0.0,0.0,0.0,0.0,0.0,0.0,0.0,0.0,0.0,0.0,0.0,0.0,0.0,0.0,0.0,0.0,0.0,0.0,0.0,0.0,0.0,0.0,0.0,0.0,0.0,0.0,0.0,0.0,0.0,0.0,0.0,0.0,0.0,-3.7881,-3.9007,0.0,0.0,0.0,0.0,0.0,0.0,0.0,0.0,0.0,0.0,0.0,0.0,0.0,0.0,-2.5895,-2.7714,-2.8784,-2.9084,-3.0644,-3.1572,-3.2025,-3.2113,-3.2376,-3.2982,-3.2978,0.0,-3.297,-3.3297,0.0,0.0,0.0,0.0,0.0,0.0,0.0,0.0,0.0,0.0,0.0,0.0,0.0,0.0,0.0,0.0,0.0,0.0,0.0,0.0,0.0,0.593,0.814,1.2,1.4167,1.6451,1.92,0.0,0.0,0.0,0.0,2.7233,2.8767,2.9749,3.1007,3.2421,3.4115,3.5575,3.6682,3.816,3.952,4.0785,4.1681,4.2945,4.4425,4.4776,0.0,0.0,0.0,0.0,0.0,0.0,0.0,0.0,0.0,0.0,0.0,0.0,0.0,0.0,0.0,0.0,0.0,0.0,0.0,0.0,0.0,0.0,0.0,0.0,0.0,0.0,0.0,0.0,0.0,0.0,0.0,0.0,0.0,0.0,0.0,0.0,0.0,0.0,0.0,-3.6104,-3.7353,-3.7374,-3.9954,-4.1174,0.0,0.0,0.0,0.0,0.0,0.0,0.0,0.0,0.0,-3.2192,-2.8053,-2.633,-2.7547,-2.9013,-2.9749,-2.9943,-3.1116,-3.1937,-3.24,-3.24,-3.2649,-3.3167,-3.3398,-3.3556,-3.3484,-3.3641,-3.3556,-3.33,0.0,0.0,0.0,0.0,0.0,-3.5629,0.0,0.0,0.0,0.0,0.0,0.0,0.0,0.0,0.0,0.0,0.0,0.0,-0.3782,-0.2269,0.0094,0.4122,0.6692,0.9855,1.3884,1.6635,0.0,0.0,2.3473,2.5029,2.6909,2.8001,2.9437,3.1362,3.2024,3.3226,3.4817,3.5982,3.7658,3.9637,4.0238,4.1713,4.3737,4.4076,4.4629,4.5276,0.0,0.0,0.0,0.0,0.0,0.0,0.0,0.0,0.0,0.0,0.0,0.0,0.0,0.0,0.0,0.0,0.0,0.0,0.0,0.0,0.0,0.0,0.0,0.0,0.0,0.0,0.0,0.0,0.0,0.0,0.0,0.0,0.0,0.0,0.0,0.0,0.0,-3.5509,-3.6574,-3.6389,-3.9181,-4.0188,0.0,0.0,0.0,0.0,0.0,0.0,-3.6005,-3.2612,-3.0895,-3.1418,-2.8951,-2.7987,-2.8746,-2.976,-3.0306,-3.0487,-3.1395,-3.2025,-3.2475,-3.2475,-3.2723,-3.3154,-3.3471,-3.3725,-3.381,-3.3894,-3.3894,-3.3894,-3.416,-3.4243,-3.4243,-3.5383,-3.6021,-3.6518,0.0,0.0,0.0,0.0,0.0,0.0,0.0,0.0,0.0,0.0,0.0,-1.5816,-1.397,-1.1499,-0.938,-0.7738,-0.3261,0.1378,0.5904,0.9426,1.3318,1.7727,2.051,2.2515,2.3713,2.6035,2.7624,2.8603,2.9859,3.1409,3.3254,3.4712,3.623,3.7754,3.8302,4.0408,4.359,4.4525,4.5132,4.5475,4.6345,0.0,0.0,0.0,0.0,0.0,0.0,0.0,0.0,0.0,0.0,0.0,0.0,0.0,0.0,0.0,0.0,0.0,0.0,0.0,0.0,0.0,0.0,0.0,0.0,0.0,0.0,0.0,0.0,0.0,0.0,0.0,0.0,0.0,0.0,0.0,0.0,0.0,0.0,-3.708,-3.7403,0.0,0.0,0.0,0.0,-3.9014,-3.547,-3.3084,-3.2506,-2.9708,-2.8174,-2.8256,-2.8729,-2.9209,-2.9715,-3.0023,-3.0578,-3.1217,-3.1761,-3.2201,-3.2723,-3.2723,-3.297,-3.3398,-3.3398,-3.3654,-3.4076,-3.4314,-3.4397,-3.4397,-3.4673,-3.499,-3.5453,-3.6511,-3.7435,-3.8224,0.0,0.0,0.0,0.0,0.0,0.0,0.0,0.0,0.0,-2.7844,-2.6569,-2.5015,-2.2606,-2.1556,-1.9687,-1.6444,-1.3791,-1.0168,-0.5341,-0.1336,0.2614,0.6529,1.0625,1.4409,1.8174,1.9713,2.1551,2.3668,2.6496,2.8802,3.0477,3.3042,3.4596,3.5187,3.6244,3.7842,3.9833,4.2008,4.3376,4.4105,4.5022,4.5477,0.0,0.0,0.0,0.0,0.0,0.0,0.0,0.0,0.0,0.0,0.0,0.0,0.0,0.0,0.0,0.0,0.0,0.0,0.0,0.0,0.0,0.0,0.0,0.0,0.0,0.0,0.0,0.0,0.0,0.0,0.0,0.0,0.0,0.0,0.0,0.0,0.0,-3.8286,-3.9606,0.0,-3.6276,-3.7652,-3.7427,-3.4307,-3.3101,-3.1993,-3.0733,-2.984,-2.9452,-2.9382,-2.9669,-3.0023,-3.0531,-3.0902,-3.1193,-3.146,-3.2025,-3.2376,-3.2723,-3.3258,-3.3695,-3.3982,-3.4661,-3.5176,-3.5448,-3.5693,-3.5542,-3.531,-3.6381,-3.689,-3.7153,-3.8249,-3.8805,-3.9073,0.0,0.0,0.0,0.0,0.0,0.0,0.0,0.0,0.0,-3.4189,-3.414,-3.3408,-3.0874,-3.0383,-2.9005,-2.5959,-2.3796,-2.0601,-1.5903,-1.1945,-0.8154,-0.4338,0.0178,0.4504,0.8644,0.9927,1.2031,1.505,1.7532,2.0328,2.3568,2.589,2.784,2.9327,3.0427,3.1527,3.2862,3.7153,4.0588,4.3166,4.3275,4.3327,4.2529,0.0,0.0,0.0,0.0,0.0,0.0,0.0,0.0,0.0,0.0,0.0,0.0,0.0,0.0,0.0,0.0,0.0,0.0,0.0,0.0,0.0,0.0,0.0,0.0,0.0,0.0,0.0,0.0,0.0,0.0,0.0,0.0,0.0,0.0,0.0,-4.0289,-3.9524,-4.0672,-4.0042,-3.6241,-3.7162,-3.6501,-3.2933,-3.2928,-3.2327,-3.0485,-3.0855,-3.0878,-3.0464,-3.0566,-3.0925,-3.1371,-3.1536,-3.1898,-3.2345,-3.2734,-3.3183,-3.3795,-3.4262,-3.4703,-3.5079,-3.5791,-3.6223,-3.6524,-3.7044,-3.7056,-3.6793,-3.7602,-3.8117,-3.8532,-3.9495,-3.9891,-4.0161,0.0,0.0,0.0,0.0,0.0,0.0,0.0,0.0,-4.1546,-3.9859,-4.0543,-4.0482,-3.8668,-3.782,-3.7088,-3.623,-3.3153,-2.9479,-2.5344,-2.2168,-1.85,-1.4285,-1.0192,-0.699,-0.4693,-0.322,-0.0765,0.2698,0.2781,0.6091,1.2375,1.2979,1.5533,1.9679,2.0251,2.1016,2.2402,2.9317,3.587,4.1443,4.0584,3.9969,3.7929,0.0,0.0,0.0,0.0,0.0,0.0,0.0,0.0,0.0,0.0,0.0,0.0,0.0,0.0,0.0,0.0,0.0,0.0,0.0,0.0,0.0,0.0,0.0,0.0,0.0,0.0,0.0,0.0,0.0,0.0,0.0,0.0,0.0,-4.0958,-4.0847,-4.1008,-4.08,-4.0293,-3.9607,-3.8751,-3.7519,-3.6479,-3.5505,-3.5103,-3.397,-3.1731,-3.2488,-3.2352,-3.1069,-3.146,-3.1937,-3.2412,-3.195,-3.2482,-3.3922,-3.3922,-3.4628,-3.5771,-3.5784,-3.6061,-3.6511,-3.6524,-3.6724,-3.705,-3.8292,-3.8869,-3.8814,-3.8238,-3.8657,-3.9624,-4.0349,-4.0809,-4.1302,0.0,0.0,0.0,0.0,0.0,0.0,0.0,-4.3138,-4.3183,-4.2805,-4.2926,-4.2919,-4.2543,-4.2086,-4.1343,-4.0149,-3.9042,-3.7162,-3.426,-3.1131,-2.6726,-2.0601,-2.0336,-1.836,-1.399,-1.3646,-1.1966,-0.8946,-0.6366,-0.3787,-0.124,0.0942,0.2065,0.2478,0.3615,0.3951,0.3786,0.615,0.8789,1.2307,2.3068,2.1327,1.1471,0.0,0.0,0.0,0.0,0.0,0.0,0.0,0.0,0.0,0.0,0.0,0.0,0.0,0.0,0.0,0.0,0.0,0.0,0.0,0.0,0.0,0.0,0.0,0.0,0.0,0.0,0.0,0.0,0.0,0.0,0.0,0.0,-4.4657,-4.3695,-4.3373,-4.3102,-4.2953,-4.23,-4.1333,-3.9886,-3.9808,-3.8939,-3.6817,-3.7229,-3.6908,-3.5211,-3.4981,-3.4528,-3.3837,-3.3827,-3.3833,-3.402,-3.44,-3.4755,-3.5022,-3.5375,-3.5629,-3.5872,-3.6642,-3.7016,-3.7219,-3.7745,-3.8362,-3.8877,-3.9216,-3.9906,-4.0689,-4.052,-4.0617,-4.0979,-4.1511,-4.1816,-4.2076,0.0,0.0,0.0,0.0,0.0,0.0,0.0,-4.4095,-4.429,-4.4279,-4.4361,-4.4421,-4.4556,-4.4242,-4.3695,-4.2713,-4.2264,-4.1332,-3.9631,-3.7337,-3.4239,-3.0264,-3.0401,-2.919,-2.609,-2.5545,-2.391,-2.114,-1.8965,-1.6569,-1.3924,-1.1998,-1.093,-1.0527,-0.9222,-0.9136,-0.9841,-0.647,-0.8085,-1.1847,-0.0678,0.1952,-0.1816,-1.0757,-1.8378,-2.4549,-2.6487,-3.1921,-3.8036,-3.7157,0.0,0.0,0.0,0.0,0.0,0.0,0.0,0.0,0.0,0.0,0.0,0.0,0.0,0.0,0.0,0.0,0.0,0.0,0.0,0.0,0.0,0.0,0.0,0.0,-4.4944,-4.5194,-4.5086,-4.4631,-4.4219,-4.3931,-4.3443,-4.2645,-4.1464,-4.1543,-4.0914,-3.9227,-3.9373,-3.9045,-3.7801,-3.6981,-3.6495,-3.6443,-3.5889,-3.56,-3.5831,-3.6087,-3.6227,-3.6311,-3.6577,-3.6959,-3.7449,-3.806,-3.8485,0.0,-3.9054,-3.9557,-4.0055,-4.0055,-4.0588,0.0,0.0,0.0,0.0,0.0,-4.2242,-4.2392,0.0,0.0,0.0,0.0,0.0,0.0,0.0,0.0,-4.4953,-4.4843,-4.5052,-4.5218,-4.5263,-4.4966,-4.4612,-4.4252,-4.368,-4.3086,-4.24,-4.1283,-4.0593,-4.0492,-3.9333,-3.8555,-3.8221,-3.6979,-3.5165,-3.2809,-3.2706,-3.0312,-2.5949,-2.537,-2.3944,-2.1851,-2.0676,-2.0737,-2.1463,-1.5074,-1.98,-3.1164,-2.6418,-1.8057,-0.9928,-2.3278,-2.8514,-3.0118,-4.0672,-4.4758,-4.5109,-4.4557,0.0,0.0,0.0,0.0,0.0,0.0,0.0,0.0,0.0,0.0,0.0,0.0,0.0,0.0,0.0,0.0,0.0,0.0,0.0,0.0,0.0,0.0,0.0,0.0,-4.5736,-4.5667,-4.5459,-4.5086,-4.4648,-4.4145,-4.3989,-4.3654,-4.3068,-4.2932,-4.2619,-4.2109,-4.1516,-4.0863,-4.0084,0.0,0.0,0.0,0.0,-3.7609,-3.792,-3.752,-3.7511,-3.7794,-3.7816,-3.8397,-3.9692,-3.9692,-4.0055,-4.0702,-4.0257,-4.0343,-4.0787,-4.0787,-4.1043,-4.148,-4.148,-4.1745,-4.2092,-4.2092,-4.2242,0.0,0.0,0.0,0.0,0.0,0.0,0.0,0.0,0.0,-4.5135,-4.5468,-4.5418,-4.5438,-4.5658,-4.5435,-4.5207,-4.5084,-4.4575,-4.4002,-4.3354,-4.3287,-4.2996,-4.2354,-4.2468,-4.215,-4.1276,-4.1049,-4.0455,-3.9542,-4.04,-3.9839,-3.8065,-3.8957,-3.9023,-3.846,-3.8088,-3.8537,-3.9452,-3.859,-3.9811,-4.2305,-4.1506,-3.8812,-3.5716,-3.9471,-4.0807,-4.0967,-4.3318,-4.4551,-4.5028,-4.4972,-4.55,-4.6165,-4.606,-4.5786,0.0,0.0,0.0,0.0,0.0,0.0,0.0,0.0,0.0,0.0,0.0,0.0,0.0,0.0,0.0,0.0,0.0,0.0,0.0,-4.6586,-4.6551,-4.6325,-4.565,-4.53,-4.5015,-4.4852,-4.4703,-4.4406,-4.3873,-4.4212,-4.4179,-4.3538,-4.3816,-4.384,-4.3584,-4.2583,0.0,-4.1504,-4.1157,-4.0741,-4.0365,-4.0427,-4.041,-4.0227,0.0,0.0,-4.0215,-4.0416,-4.0602,-4.0702,-4.0616,-4.0873,-4.1227,-4.1227,-4.1564,-4.1926,-4.1926,-4.2009,-4.2092,-4.2242,-4.2474,-4.2688,0.0,0.0,0.0,0.0,0.0,0.0,0.0,0.0,-4.5279,-4.5616,-4.5911,-4.618,-4.6424,-4.6213,-4.6052,-4.5995,-4.5198,-4.4535,-4.4186,-4.4334,-4.425,-4.3811,-4.3953,-4.3788,-4.3275,-4.3138,-4.2977,-4.2703,-4.3536,-4.361,-4.2959,-4.39,-4.4403,-4.4547,-4.4112,-4.4517,-4.5526,-4.5388,-4.5475,-4.5644,-4.5699,-4.5187,-4.4436,-4.4779,-4.4972,-4.5031,-4.482,-4.5047,-4.5436,-4.5258,-4.5678,-4.626,-4.6361,-4.6471,-4.6673,0.0,0.0,0.0,0.0,0.0,0.0,0.0,0.0,0.0,0.0,0.0,0.0,0.0,0.0,-4.3843,0.0,0.0,-4.7334,-4.7039,-4.7247,-4.7212,-4.6585,-4.6463,-4.6244,-4.574,-4.5525,-4.5439,-4.551,-4.5723,-4.5704,-4.5246,-4.5203,-4.5456,-4.606,-4.4894,-4.4629,-4.5457,-4.4255,-4.3567,-4.3484,-4.2897,-4.2491,-4.2111,-4.1679,-4.1568,-4.1625,-4.1397,-4.1521,-4.1688,-4.1367,-4.1465,-4.1897,-4.1829,-4.1912,-4.2242,-4.2242,-4.2242,-4.2242,-4.2474,-4.2688,-4.2835,0.0,0.0,0.0,0.0,0.0,0.0,0.0,0.0,0.0,-4.562,-4.6315,-4.6851,-4.7081,-4.6918,-4.6683,-4.6474,-4.5606,-4.4988,-4.48,-4.4966,-4.5011,-4.4872,-4.4751,-4.4624,-4.4501,-4.426,-4.4151,-4.4181,-4.4915,-4.5197,-4.5047,-4.5792,-4.6278,-4.663,-4.5969,-4.6179,-4.7053,-4.6239,-4.6117,-4.6379,-4.6192,-4.6211,-4.6361,-4.6002,-4.5954,-4.599,-4.549,-4.564,-4.5975,-4.5609,-4.5875,-4.6434,-4.6767,-4.7124,-4.7499,-4.7929,-4.8032,0.0,0.0,0.0,0.0,0.0,0.0,0.0,0.0,0.0,-4.1967,-4.1015,-4.1912,-4.3739,-4.6546,-4.764,-4.7956,-4.7631,-4.7979,-4.8172,-4.7594,-4.7664,-4.7527,-4.6955,-4.6618,-4.6606,-4.7033,-4.7138,-4.7106,-4.6929,-4.6586,-4.6938,-4.8067,-4.7022,-4.7212,-4.9004,-4.7107,-4.6153,-4.6345,-4.5005,-4.4196,-4.3733,-4.2984,-4.2794,-4.3131,-4.2461,-4.2333,-4.2688,-4.2117,-4.2117,-4.2474,-4.2242,-4.2325,-4.2474,-4.2459,-4.2541,-4.2541,-4.2688,-4.2835,-4.2996,0.0,0.0,0.0,0.0,0.0,0.0,0.0,0.0,0.0,-4.5708,-4.6313,-4.6799,-4.7081,-4.7081,-4.6642,-4.5628,-4.5637,-4.5528,-4.518,-4.5493,-4.5528,-4.5161,-4.5201,-4.5099,-4.4843,-4.4757,-4.4726,-4.48,-4.6297,-4.7019,-4.7011,-4.8345,-4.8963,-4.8987,-4.8561,-4.8439,-4.8567,-4.8255,-4.8162,-4.8199,-4.7991,-4.7874,-4.7758,-4.7652,-4.69,-4.5773,-4.5233,-4.5703,-4.6466,-4.6264,-4.6916,-4.7776,-4.7828,-4.7355,-4.6901,-4.7367,-4.7008,-4.6411,-4.6315,-4.5717,-4.4223,-4.0312,-4.0834,-4.1154,0.0,0.0,-4.1341,-4.382,-4.4454,-4.5488,-4.8294,-4.9114,-4.9291,-4.8841,-4.8983,-4.8883,-4.8136,-4.7941,-4.8182,-4.8899,-4.8104,-4.7503,-4.7437,-4.8037,-4.8357,-4.8199,-4.9029,-4.9654,-4.9822,-4.9975,-5.0058,-5.0036,-4.9116,-4.8372,-4.7853,-4.6463,-4.5661,-4.5358,-4.4152,-4.3563,-4.3632,-4.2901,-4.2688,-4.2688,-4.2607,-4.2607,-4.2688,-4.2622,-4.2622,-4.2688,-4.2835,-4.2915,-4.2915,-4.2996,-4.2996,-4.2996,0.0,0.0,0.0,0.0,0.0,0.0,0.0,0.0,0.0,0.0,0.0,-4.7133,-4.7777,-4.785,-4.7407,-4.6319,0.0,0.0,-4.5342,-4.5635,-4.57,-4.551,-4.5419,-4.5285,-4.5126,-4.4954,-4.4858,-4.4896,-4.6093,-4.686,-4.7321,-4.8407,-4.9183,-4.9627,-4.942,-4.922,-4.9023,-4.8872,-4.8697,-4.8513,-4.8324,-4.8208,-4.809,-4.7988,-4.7569,-4.6968,-4.6662,-4.6777,0.0,-4.6884,-4.7247,-4.7663,-4.7493,-4.7432,-4.7439,-4.7248,-4.7071,-4.6781,-4.6165,-4.5494,-4.4289,0.0,-4.1415,-4.1314,-3.8053,-3.9262,-4.1383,-4.2634,-4.4349,-4.6134,-4.7751,-4.8925,-4.9474,0.0,-4.9426,-4.9667,-4.9099,-4.9162,-4.9507,-5.0186,-4.9687,-4.9236,-4.9084,-4.9229,-4.9492,-4.9838,-5.0195,-5.0788,-5.169,-5.1756,-5.1681,-5.1383,-5.0464,-4.9564,-4.876,-4.7661,-4.7117,-4.7001,-4.5529,-4.4818,-4.4788,-4.3567,-4.301,-4.2835,-4.2835,-4.285,-4.2688,-4.2688,-4.2769,-4.2915,-4.2996,-4.3076,-4.3155,-4.3155,-4.3155,-4.317,0.0,0.0,0.0,0.0,0.0,0.0,0.0,0.0,0.0,0.0,0.0,0.0,0.0,0.0,-4.7967,0.0,0.0,0.0,0.0,-4.5635,-4.5731,-4.57,-4.558,-4.549,-4.5453,-4.5246,-4.5125,-4.5142,-4.6003,-4.6819,-4.7567,-4.8357,-4.9144,-4.9891,-4.9776,-4.9579,-4.934,-4.9214,-4.8956,-4.8569,-4.8458,-4.8267,-4.8126,-4.8028,-4.7907,-4.7801,-4.7468,-4.7363,-4.7258,-4.708,-4.7187,-4.7338,-4.7088,-4.7276,-4.7542,-4.7151,-4.7115,-4.699,-4.6032,-4.539,0.0,-4.1909,-4.1182,-4.0545,-3.8451,-3.9014,-4.0275,-4.1535,-4.3886,-4.611,-4.7231,-4.8683,-4.9536,-4.9045,-4.9654,-5.0094,-4.9922,-5.0105,-5.0453,-5.0928,-5.0729,-5.0558,-5.0654,-5.0501,-5.0552,-5.108,-5.1253,-5.1833,-5.2963,-5.2994,-5.2841,-5.2404,-5.1435,-5.0474,-4.9358,-4.8589,-4.8042,-4.7691,-4.6373,-4.5722,-4.5429,-4.4028,-4.3329,-4.317,-4.3076,-4.301,-4.2945,-4.2945,-4.2915,-4.3076,-4.3076,-4.3155,-4.3329,-4.3329,-4.3329,-4.3329,0.0,0.0,0.0,0.0,0.0,0.0,0.0,0.0,0.0,0.0,0.0,0.0,0.0,0.0,0.0,0.0,0.0,0.0,0.0,-4.5565,-4.5629,-4.57,-4.5765,-4.5795,-4.578,-4.5712,-4.5715,-4.5765,-4.6587,-4.7386,-4.818,-4.8715,-4.9408,-5.0183,-4.9917,-4.9749,-4.9684,-4.9598,-4.9277,-4.8781,-4.873,-4.8382,-4.7902,-4.7902,-4.7819,-4.7615,-4.6817,-4.6863,-4.7169,-4.6459,-4.659,-4.698,-4.698,-4.6842,-4.6684,-4.6863,-4.6817,-4.6548,-4.5749,-4.5163,-4.3839,-3.9733,-3.812,-3.7168,-3.5693,-3.5728,-3.7328,-4.185,-4.3749,-4.5277,-4.749,-4.8917,-4.9649,-4.9513,-4.9884,-5.0228,-5.038,-5.0397,-5.0526,-5.0873,-5.0891,-5.1117,0.0,-5.1603,-5.1581,-5.1598,-5.2675,-5.3356,-5.3408,-5.3764,-5.36,-5.2836,-5.1993,-5.1005,-4.9805,-4.8984,-4.8064,-4.7038,-4.631,-4.5642,-4.4989,-4.4071,-4.369,-4.369,-4.3423,-4.3423,-4.369,-4.3423,-4.3265,-4.325,-4.325,-4.325,-4.3329,-4.3329,-4.3329,-4.3329,0.0,0.0,0.0,0.0,0.0,0.0,0.0,0.0,0.0,0.0,0.0,0.0,0.0,0.0,0.0,0.0,0.0,0.0,0.0,-4.5126,-4.5285,-4.549,-4.5692,-4.5786,-4.58,-4.5786,-4.5776,-4.58,-4.6066,-4.6615,-4.7422,-4.8125,-4.8894,-4.9698,-5.0084,-5.0081,-4.9749,-4.9541,-4.9177,-4.8694,-4.8476,-4.8247,-4.8087,-4.7943,-4.7861,-4.7717,0.0,-4.6908,-4.7214,-4.6472,-4.6602,-4.6998,-4.6998,-4.6842,-4.6525,-4.6266,-4.5734,-4.5144,-4.4657,-4.4243,-4.2998,-3.8729,-3.7541,-3.7021,-3.5568,-3.5897,-3.7619,-4.1327,-4.3381,-4.4867,-4.6189,-4.7721,-4.8793,-4.881,-4.953,-5.0149,-5.0359,-5.0415,-5.0526,-5.0891,-5.1329,0.0,0.0,0.0,0.0,-5.3043,-5.3385,-5.3783,-5.4319,-5.431,-5.3666,-5.2224,-5.1921,-5.1021,-4.947,-4.9178,-4.8624,-4.7812,-4.6416,-4.526,-4.4322,-4.4016,-4.391,-4.391,-4.3817,-4.3754,-4.369,-4.3596,-4.3423,-4.3329,-4.3329,-4.3329,-4.3329,-4.3329,-4.3329,-4.3329,0.0,0.0,0.0,0.0,0.0,0.0,0.0,0.0,0.0,0.0,0.0,0.0,0.0,0.0,0.0,0.0,0.0,0.0,0.0,0.0,-4.501,-4.5247,-4.5623,-4.5786,-4.5723,-4.5786,-4.5771,-4.5731,-4.5771,-4.6216,-4.7047,-4.7554,-4.8198,-4.8933,-4.9719,-4.987,-4.9511,-4.9644,-4.9333,-4.8746,-4.8458,-4.8249,-4.7988,-4.7842,-4.7759,0.0,-4.6908,-4.6926,-4.7187,-4.6519,-4.6631,-4.7043,-4.7043,-4.6731,-4.6332,-4.5887,-4.5302,-4.4746,-4.4088,-4.3873,-4.2765,-3.8318,-3.7423,-3.7201,-3.5653,-3.6286,-3.8038,-4.114,-4.2974,-4.4327,-4.5463,-4.6936,-4.8061,-4.8336,-4.9316,-5.0149,-5.0359,-5.0453,-5.0582,-5.0891,-5.1558,-5.2119,0.0,0.0,0.0,-5.3952,-5.4044,-5.4304,-5.4869,-5.4637,-5.3715,-5.2048,-5.1993,-5.1187,-4.9437,-4.9202,-4.8544,-4.7528,-4.6067,-4.4926,-4.4205,-4.4127,-4.4143,-4.4127,-4.4065,-4.391,-4.3832,-4.3769,-4.3518,-4.3329,-4.3329,-4.3329,-4.3329,-4.3329,-4.3329,-4.3329,0.0,0.0,0.0,0.0,0.0,0.0,0.0,0.0,0.0,0.0,0.0,0.0,0.0,0.0,0.0,0.0,0.0,0.0,0.0,0.0,0.0,-4.4991,-4.5517,-4.5723,-4.5613,-4.5723,-4.5737,-4.5613,-4.5737,-4.623,-4.7036,-4.7059,-4.7405,-4.8049,-4.8893,-4.919,-4.9101,-4.9863,-4.9674,-4.8897,-4.8757,-4.8291,-4.7675,-4.7554,-4.7511,-4.7407,-4.6753,-4.6835,-4.7133,-4.6472,-4.6695,-4.7133,-4.698,-4.659,-4.6087,-4.5684,-4.5494,-4.5197,-4.4088,-4.3893,-4.2891,-3.8334,-3.7521,-3.7452,-3.587,-3.6577,-3.845,-4.1334,-4.2475,-4.3527,0.0,0.0,-4.7259,-4.8111,-4.9282,-5.0171,-5.0341,-5.0492,-5.0657,0.0,0.0,0.0,0.0,0.0,0.0,-5.4366,0.0,-5.4904,-5.4992,-5.4683,-5.3847,-5.2262,-5.2191,-5.1377,-4.963,-4.8859,-4.7761,-4.6187,-4.535,-4.4799,-4.4572,-4.4435,-4.4281,-4.4281,-4.4127,-4.3988,-4.3988,-4.3769,-4.3596,-4.3329,-4.3329,-4.3329,-4.3329,-4.3329,-4.3329,-4.3344,0.0,0.0,0.0,0.0,0.0,0.0,0.0,0.0,0.0,0.0,0.0,0.0,0.0,0.0,0.0,0.0,0.0,0.0,0.0,0.0,0.0,0.0,-4.5472,-4.5677,-4.5737,-4.5766,-4.5766,-4.5737,-4.5766,-4.5916,-4.6153,-4.649,-4.7127,-4.8029,-4.8598,-4.9205,-4.9828,-4.9819,-4.9521,-4.9019,-4.8639,-4.8174,-4.7675,-4.7554,-4.745,-4.732,-4.7169,-4.7169,-4.7187,-4.6459,-4.6477,-4.6684,-4.6495,-4.6038,-4.558,-4.5389,-4.4818,-4.4186,-4.3873,-4.2566,-4.0578,-3.7873,-3.6527,-3.5803,-3.5301,-3.6248,-3.7851,-4.0234,-4.1281,-4.2082,0.0,0.0,0.0,-4.6212,-4.8044,0.0,-4.9656,-5.0176,0.0,-5.0891,0.0,-5.3278,-5.3472,-5.4613,0.0,0.0,-5.5273,-5.5079,-5.5139,-5.4974,-5.4252,-5.2872,-5.2577,-5.1458,-4.9512,-4.8016,-4.6925,-4.6187,-4.5457,-4.498,-4.4572,-4.4587,-4.4496,-4.4511,-4.4511,-4.4358,-4.4205,-4.3988,-4.3754,-4.3596,-4.3344,-4.3329,-4.3329,-4.3518,-4.3596,-4.3675,0.0,0.0,0.0,0.0,0.0,0.0,0.0,0.0,0.0,0.0,0.0,0.0,0.0,0.0,0.0,0.0,0.0,0.0,0.0,0.0,0.0,-4.4881,-4.5343,-4.5613,-4.5629,-4.5737,-4.5766,-4.5708,-4.5766,-4.58,-4.58,-4.6075,-4.6416,-4.6798,-4.7494,-4.7957,-4.8332,-4.9,-4.8983,0.0,0.0,-4.8233,-4.7806,-4.7597,-4.745,-4.7407,-4.7407,-4.732,-4.7187,0.0,0.0,-4.6495,-4.6186,-4.5786,-4.5319,-4.4998,0.0,-4.3782,-4.2665,-4.1361,-3.9585,-3.6685,-3.5987,-3.582,-3.4965,-3.6366,-3.8198,-3.9656,-4.0532,-4.1324,-4.2386,0.0,0.0,0.0,0.0,0.0,-4.958,-5.025,-5.0801,0.0,-5.2554,0.0,-5.3599,-5.4903,-5.5764,0.0,-5.5336,-5.5139,-5.5199,-5.4834,-5.4188,-5.3111,-5.2363,-5.0856,-4.8573,-4.7569,-4.6719,-4.599,-4.5466,-4.5055,-4.4905,-4.4663,-4.4572,-4.4572,0.0,-4.4511,-4.4281,-4.405,-4.391,-4.3832,-4.3596,-4.3503,-4.366,-4.3754,-4.3832,-4.391,0.0,0.0,0.0,0.0,0.0,0.0,0.0,0.0,0.0,0.0,0.0,0.0,0.0,0.0,0.0,0.0,0.0,0.0,0.0,0.0,0.0,0.0,-4.5206,-4.5493,-4.54,-4.5645,-4.5708,-4.5596,-4.5723,-4.58,-4.58,-4.5766,-4.5368,-4.472,-4.5975,-4.6116,-4.5593,-4.7631,-4.8173,-4.7783,-4.8296,-4.8237,-4.7806,0.0,-4.7554,-4.7468,-4.7468,-4.7356,-4.7178,-4.7178,-4.6795,-4.6284,-4.6087,-4.5684,-4.5164,-4.4354,-4.401,-4.3348,-4.0971,-4.0053,-3.8931,-3.5575,-3.5916,-3.6658,-3.5103,-3.7048,-3.9224,-3.9522,-4.0273,-4.1269,-4.2386,-4.3542,-4.4642,-4.5889,0.0,-4.9385,-4.9698,-5.0436,-5.1052,-5.1246,-5.2626,-5.3602,-5.3654,-5.5021,-5.5755,-5.5549,-5.5234,-5.5096,-5.5259,-5.4631,-5.3861,-5.2892,-5.1539,-4.9747,-4.7421,-4.7309,-4.6741,-4.5735,-4.5442,-4.522,-4.5129,-4.4814,-4.4663,-4.4572,0.0,0.0,-4.4358,-4.4127,-4.4065,-4.3988,-4.3832,-4.3832,-4.3988,-4.4065,-4.4065,-4.4065,0.0,0.0,0.0,0.0,0.0,0.0,0.0,0.0,0.0,0.0,-4.7798,-4.5718,0.0,0.0,0.0,0.0,0.0,0.0,0.0,0.0,0.0,0.0,-4.5216,-4.532,-4.54,-4.5563,-4.5629,-4.5596,-4.5723,-4.58,-4.58,-4.5574,-4.419,-4.2019,-4.4829,-4.4812,-4.2822,-4.5963,-4.7084,-4.6805,-4.7676,-4.757,-4.6943,-4.77,0.0,0.0,-4.7267,-4.7178,-4.7043,-4.7043,-4.659,-4.6038,-4.6038,-4.5494,-4.4525,-4.2588,-4.1777,-4.1116,-3.9472,-3.7669,-3.6332,-3.6553,-3.672,-3.6687,-3.6465,-3.8546,0.0,0.0,-4.1057,-4.199,-4.2695,-4.3461,-4.4297,-4.5374,-4.719,0.0,0.0,0.0,-5.1193,0.0,-5.2357,-5.3555,0.0,0.0,0.0,0.0,0.0,0.0,-5.5431,-5.4913,-5.3734,-5.1762,-4.9934,-4.847,-4.7405,-4.6797,-4.616,-4.5515,-4.5515,-4.5278,-4.4964,-4.4874,-4.4723,-4.4572,0.0,0.0,-4.4496,-4.4358,-4.4281,-4.4205,-4.4065,-4.3988,-4.3988,-4.4205,-4.4281,-4.4281,0.0,0.0,0.0,0.0,0.0,0.0,0.0,-5.0333,-5.0002,-4.8611,-4.6322,-4.283,-3.7565,-3.5423,-3.3757,0.0,0.0,0.0,0.0,0.0,0.0,0.0,0.0,-4.5235,-4.53,-4.5493,-4.5596,-4.5596,0.0,-4.2889,-4.2831,0.0,0.0,0.0,-3.917,-3.9083,-3.782,-3.998,-4.1913,-4.3382,-4.2188,-4.4056,0.0,0.0,0.0,0.0,0.0,-4.716,-4.7088,-4.7088,-4.5815,-4.4472,-4.581,-4.4879,-4.3082,-4.1933,-4.0916,-3.9762,-3.7954,-3.7069,-3.6703,-3.6754,-3.7476,-3.8116,-3.7951,0.0,0.0,0.0,-4.1889,-4.3066,-4.3289,-4.4082,0.0,-4.5937,-4.7638,0.0,0.0,0.0,0.0,0.0,0.0,0.0,0.0,0.0,0.0,0.0,0.0,0.0,-5.4834,-5.3857,-5.2332,-5.024,-4.929,-4.827,-4.713,-4.6775,-4.6262,-4.5662,-4.5515,-4.5442,-4.5204,-4.5039,-4.4874,-4.4723,-4.4663,0.0,-4.4572,-4.4358,-4.4358,-4.4435,-4.4205,-4.4205,-4.4358,-4.4435,-4.4435,-4.4511,0.0,0.0,0.0,0.0,0.0,0.0,0.0,-5.0259,-5.0112,-4.9098,-4.5619,-4.1326,-3.624,-3.4224,-3.1774,0.0,0.0,0.0,0.0,0.0,0.0,0.0,0.0,-4.4397,-4.5218,0.0,0.0,0.0,0.0,0.0,0.0,0.0,0.0,0.0,0.0,0.0,0.0,-3.4285,-3.6572,0.0,0.0,0.0,0.0,0.0,0.0,0.0,0.0,-4.5391,-4.5506,-4.5506,-4.3751,-4.1947,-4.4177,-4.3459,-4.1671,-4.1097,-4.0427,-3.9441,-3.7437,-3.7513,-3.803,-3.7623,-3.9013,-4.0391,-3.9905,-4.2274,0.0,-4.2313,-4.3262,-4.4418,-4.4418,-4.5122,-4.5953,0.0,-4.8253,-4.9291,-4.9555,0.0,0.0,0.0,0.0,0.0,0.0,0.0,0.0,0.0,0.0,0.0,0.0,-5.2264,-5.0827,-4.9144,-4.8961,-4.8246,-4.7014,-4.7014,-4.6615,-4.5936,-4.5719,-4.5573,-4.5515,-4.5188,-4.4949,-4.4874,-4.4723,0.0,0.0,-4.4435,-4.4435,-4.4572,-4.4435,-4.4435,-4.4572,-4.4572,-4.4572,-4.4572,0.0,0.0,0.0,0.0,0.0,0.0,0.0,-5.0442,-5.0317,-4.9292,-4.8063,-4.5488,-4.0786,-3.3601,-2.7991,0.0,0.0,0.0,0.0,0.0,0.0,0.0,0.0,0.0,0.0,0.0,0.0,0.0,0.0,0.0,0.0,0.0,0.0,0.0,0.0,0.0,0.0,0.0,0.0,0.0,0.0,0.0,0.0,0.0,0.0,0.0,0.0,-3.9363,-4.0027,0.0,0.0,-3.8442,-3.9599,-4.0604,-4.0975,-3.9026,0.0,0.0,-3.9265,-3.8903,-3.9296,-4.0478,-4.2138,-4.3316,-4.2661,0.0,-4.6544,-4.4954,-4.5514,-4.6292,-4.6518,-4.6588,-4.6949,-4.7655,-4.837,-4.8872,0.0,0.0,0.0,0.0,0.0,0.0,0.0,0.0,0.0,0.0,0.0,0.0,0.0,-5.0517,-4.9804,-4.911,-4.8465,-4.7853,-4.7337,-4.7337,-4.6997,-4.623,-4.623,-4.5961,-4.5515,-4.5442,-4.5278,-4.4874,0.0,0.0,0.0,-4.4587,-4.4572,-4.4572,-4.4587,-4.4572,-4.4572,-4.4572,-4.4572,-4.4572,0.0,0.0,0.0,0.0,0.0,0.0,-5.0358,-5.0546,-5.0499,-4.9944,-4.666,-4.3641,-4.1769,-3.5677,-3.0446,-2.7191,0.0,0.0,0.0,0.0,0.0,0.0,0.0,0.0,0.0,0.0,-3.9896,-3.9896,0.0,0.0,0.0,0.0,0.0,0.0,0.0,0.0,0.0,0.0,0.0,0.0,0.0,0.0,0.0,0.0,0.0,0.0,0.0,0.0,-4.5136,-4.5136,0.0,0.0,-4.266,-4.2817,0.0,0.0,-3.9808,-4.0746,-4.0468,-4.0846,-4.1517,-4.2871,-4.4361,-4.5384,-4.5105,0.0,-4.8236,-4.6609,-4.6864,-4.7372,-4.7439,-4.7439,-4.7704,-4.8467,-4.9073,-4.9419,-4.9496,0.0,0.0,0.0,0.0,0.0,0.0,0.0,0.0,0.0,0.0,0.0,0.0,-4.9569,-4.9339,-4.8563,-4.8264,-4.7902,-4.7404,-4.7404,-4.7134,-4.6668,-4.6442,-4.6159,-4.5977,-4.5646,-4.5426,-4.5278,0.0,0.0,0.0,-4.4648,-4.4572,-4.4572,-4.4572,-4.4572,-4.4572,-4.4572,-4.4572,-4.451,0.0,0.0,0.0,0.0,0.0,-5.0643,-5.0508,-5.0641,-5.0671,-5.0416,-4.6748,-4.3981,-4.3549,-3.8842,-3.4617,-3.1803,-2.9692,0.0,0.0,0.0,0.0,0.0,0.0,0.0,0.0,0.0,-3.7141,-3.8211,-3.4629,-3.1958,0.0,0.0,0.0,0.0,0.0,0.0,0.0,0.0,0.0,0.0,0.0,0.0,0.0,0.0,0.0,0.0,0.0,0.0,0.0,0.0,0.0,-4.3575,-4.3789,-4.3731,-4.3207,-4.1394,-4.1527,-4.2337,-4.2767,-4.3287,-4.3962,-4.4947,-4.6134,-4.7028,0.0,0.0,-4.9248,-4.8063,-4.7983,-4.8194,-4.8336,-4.8306,-4.8403,-4.9001,-4.9453,-4.9732,-4.9649,-5.0194,0.0,0.0,0.0,0.0,0.0,0.0,0.0,0.0,0.0,0.0,0.0,-4.905,-4.9036,-4.8196,-4.8115,-4.7968,-4.7555,-4.7555,-4.7421,-4.7014,-4.6652,-4.6442,-4.6285,-4.5776,-4.5589,0.0,0.0,0.0,0.0,-4.4723,-4.4648,-4.4572,-4.4572,-4.4572,-4.4572,-4.4572,-4.4524,-4.4278,0.0,0.0,0.0,0.0,0.0,0.0,-5.07,-5.0801,-5.0825,-5.0622,-4.963,-4.8418,-4.7088,-4.2968,-3.9878,-3.8808,-3.2438,0.0,0.0,0.0,0.0,0.0,0.0,0.0,0.0,0.0,-3.0693,-3.427,-3.0675,-3.0586,-3.3767,-3.4046,0.0,0.0,0.0,0.0,0.0,0.0,0.0,0.0,0.0,0.0,0.0,0.0,0.0,0.0,0.0,0.0,0.0,0.0,0.0,0.0,0.0,-4.1777,-4.2871,-4.3864,-4.5211,-4.6348,-4.6536,-4.6383,-4.6358,-4.6777,-4.7561,-4.8238,0.0,0.0,-4.9632,-4.9419,-4.9029,-4.8923,-4.9487,-4.9239,-4.9063,-4.9168,-4.935,-4.9488,-4.9488,0.0,0.0,0.0,0.0,0.0,0.0,0.0,0.0,0.0,0.0,0.0,0.0,0.0,-4.8707,-4.8001,-4.8001,-4.8001,-4.8001,-4.8001,-4.7787,-4.7404,-4.7082,-4.6668,-4.6301,-4.592,0.0,0.0,0.0,0.0,0.0,-4.4874,-4.4799,-4.4572,-4.4572,-4.4572,-4.4572,-4.4572,-4.4291,-4.3778,0.0,0.0,0.0,0.0,0.0,0.0,0.0,-5.0914,-5.0803,-5.0386,-4.9151,-4.797,-4.7112,-4.4657,-4.2882,-4.2448,-3.391,0.0,0.0,0.0,0.0,0.0,0.0,0.0,0.0,0.0,-3.3072,-3.4209,-3.552,-3.5348,-3.3856,-3.6423,-3.7555,-3.7614,0.0,0.0,0.0,0.0,0.0,0.0,0.0,0.0,0.0,0.0,0.0,0.0,0.0,0.0,0.0,0.0,0.0,0.0,0.0,0.0,0.0,-4.8068,-4.7664,-4.7201,-4.747,-4.7396,-4.7223,-4.7183,-4.8347,-4.9256,-4.8253,0.0,-5.0786,-4.9538,-4.9496,-4.9598,-4.9359,-4.9333,-4.9367,-4.953,-4.959,-4.9649,0.0,0.0,0.0,0.0,0.0,0.0,0.0,0.0,0.0,0.0,0.0,0.0,0.0,0.0,-4.8769,-4.8517,-4.8436,-4.8308,-4.8115,-4.8066,-4.7935,-4.7787,-4.7421,-4.7202,-4.7066,-4.6668,0.0,0.0,0.0,0.0,0.0,-4.5129,-4.5055,-4.498,-4.498,-4.4685,-4.4235,-4.4235,-4.3889,-4.3307,0.0,0.0,0.0,0.0,0.0,0.0,0.0,-5.0889,-5.0705,-5.0294,-4.9343,-4.8204,-4.6963,-4.5853,-4.4841,-4.4029,-3.687,0.0,0.0,0.0,0.0,0.0,0.0,0.0,-2.6082,-3.0007,-3.2686,-3.406,-3.7747,-3.9002,-3.7985,-4.0298,-4.1394,-4.1551,-4.3679,-4.4739,0.0,0.0,0.0,0.0,0.0,0.0,-4.8419,0.0,0.0,0.0,0.0,0.0,0.0,0.0,0.0,0.0,0.0,0.0,0.0,0.0,-4.9038,-4.8217,-4.8251,-4.8072,-4.7837,-4.7687,-4.8704,0.0,0.0,0.0,-5.0804,-5.0102,-4.989,-4.9849,-4.9691,-4.959,-4.959,-4.9708,-4.9784,-4.9784,0.0,0.0,0.0,0.0,0.0,0.0,0.0,0.0,0.0,0.0,0.0,0.0,0.0,0.0,-4.8894,-4.8894,-4.8627,-4.842,-4.8292,-4.8179,-4.8066,-4.8049,-4.7621,-4.7404,-4.7404,0.0,0.0,0.0,0.0,0.0,0.0,-4.5368,-4.5122,-4.4814,-4.4814,-4.4377,-4.3753,-4.3753,-4.3317,-4.2817,0.0,0.0,0.0,0.0,0.0,0.0,0.0,-5.0762,-5.0503,-5.0228,-4.9892,-4.8853,-4.6725,-4.6401,-4.5582,-4.3775,0.0,0.0,0.0,0.0,0.0,0.0,0.0,0.0,-2.2114,-2.6457,-3.0563,-3.4198,-3.8052,-4.1592,-4.4795,-4.4868,-4.5007,-4.5182,-4.4943,-4.4988,0.0,0.0,0.0,0.0,0.0,0.0,0.0,0.0,0.0,0.0,0.0,0.0,0.0,0.0,0.0,0.0,0.0,0.0,0.0,0.0,0.0,0.0,0.0,-4.8476,-4.8273,-4.8333,0.0,0.0,0.0,-4.9918,0.0,-5.0982,-5.0289,-4.9708,-5.0228,-4.9999,-4.9708,-4.9708,-4.986,0.0,0.0,0.0,0.0,0.0,0.0,0.0,0.0,0.0,0.0,0.0,0.0,0.0,0.0,0.0,0.0,-4.9001,-4.8673,-4.8547,-4.8547,-4.8292,-4.8227,-4.8227,-4.7688,-4.7471,-4.7471,0.0,0.0,0.0,0.0,0.0,0.0,-4.5526,-4.4971,-4.4128,-4.4081,-4.3644,-4.3036,-4.3036,-4.277,-4.2328,0.0,0.0,0.0,0.0,0.0,0.0,0.0,0.0,0.0,0.0,-4.8673,-4.7596,-4.5662,-4.44,-4.3535,0.0,0.0,0.0,0.0,0.0,0.0,0.0,0.0,0.0,-2.5753,-2.9524,-3.3609,-3.7916,-4.1595,-4.3781,-4.4587,-4.472,-4.4905,-4.5048,-4.5149,-4.534,0.0,0.0,0.0,0.0,0.0,0.0,0.0,0.0,0.0,0.0,-5.0956,-5.0956,0.0,0.0,0.0,0.0,0.0,0.0,0.0,0.0,-4.9814,-4.948,-4.9239,0.0,-4.8548,-4.8798,-4.9658,-5.0416,0.0,-5.0945,-5.1414,-5.0786,-5.0495,-5.025,-4.9924,-4.9901,-4.9935,-4.9935,-4.9935,-4.9935,0.0,0.0,0.0,0.0,0.0,0.0,0.0,0.0,0.0,0.0,0.0,0.0,0.0,0.0,0.0,-4.9001,-4.894,-4.8815,-4.8707,-4.8564,-4.842,-4.842,-4.8163,-4.8016,-4.8033,0.0,0.0,0.0,0.0,0.0,-4.6056,-4.5547,-4.5017,-4.4512,-4.4008,-4.3394,-4.2779,-4.2779,-4.239,-4.1775,0.0,0.0,0.0,0.0,0.0,0.0,0.0,0.0,0.0,0.0,0.0,-4.6937,-4.4926,-4.3599,0.0,0.0,0.0,0.0,0.0,0.0,0.0,0.0,0.0,-2.7591,-2.6411,-3.2242,-3.6605,-3.918,-4.2765,-4.4613,-4.4833,-4.4795,-4.5023,-4.5456,-4.5572,-4.5698,0.0,0.0,0.0,0.0,-4.8192,0.0,0.0,0.0,0.0,0.0,-5.0956,-5.0925,0.0,-5.0899,-5.0812,-5.0682,0.0,0.0,0.0,0.0,-4.9868,-4.9617,-4.9352,-4.8993,-4.8753,-4.8981,-4.9802,-5.0581,-5.0813,-5.1226,-5.1432,-5.1052,-5.0622,-5.0228,-4.9918,-4.9935,-5.0011,0.0,-5.0011,0.0,0.0,0.0,0.0,0.0,0.0,0.0,0.0,0.0,0.0,0.0,0.0,0.0,0.0,0.0,0.0,0.0,-4.9001,-4.8956,-4.8894,-4.869,-4.8627,-4.8627,-4.842,-4.8356,-4.8356,-4.8179,0.0,0.0,0.0,0.0,-4.6051,-4.5291,-4.4741,-4.4218,-4.3834,-4.3259,-4.262,-4.2505,-4.225,-4.2029,0.0,0.0,0.0,0.0,0.0,0.0,0.0,0.0,0.0,0.0,0.0,0.0,0.0,0.0,0.0,0.0,0.0,0.0,0.0,0.0,0.0,0.0,-3.024,-3.0774,-2.7477,-3.4721,-3.9033,-4.001,-4.3005,-4.47,-4.5094,-4.4938,-4.5266,-4.5997,-4.6007,-4.6007,0.0,0.0,0.0,0.0,-4.8327,0.0,0.0,0.0,0.0,0.0,0.0,0.0,0.0,-5.0899,-5.0812,-5.0663,-5.0606,0.0,0.0,0.0,0.0,0.0,-4.9534,-4.9213,-4.8975,-4.9245,-4.9798,-5.0511,-5.1257,-5.1087,-5.091,-5.1365,-5.0712,-5.0011,-5.0011,-5.0011,0.0,0.0,0.0,0.0,0.0,0.0,0.0,0.0,0.0,0.0,0.0,0.0,0.0,0.0,0.0,0.0,0.0,0.0,0.0,0.0,-4.9001,-4.9001,-4.9001,-4.8894,-4.8832,-4.8832,-4.8627,-4.8564,-4.8547,-4.8292,0.0,0.0,0.0,0.0,-4.5664,-4.4967,-4.4253,-4.3702,-4.3589,-4.3152,-4.2585,-4.2285,-4.2349,-4.2585,0.0,0.0,0.0,0.0,0.0,0.0,0.0,0.0,0.0,0.0,0.0,0.0,0.0,0.0,0.0,0.0,0.0,0.0,0.0,0.0,0.0,-3.2544,-3.4539,-3.5647,-3.5522,-3.6863,-3.9541,-4.3669,-4.4233,-4.4524,-4.4613,-4.4981,-4.5453,-4.6003,-4.5998,-4.5998,-4.6035,-4.6707,-4.7461,-4.8308,-4.9226,0.0,0.0,0.0,0.0,0.0,0.0,0.0,0.0,-5.0827,-5.072,-5.0606,-5.0585,0.0,0.0,0.0,0.0,0.0,-5.0303,-4.9889,-4.9448,-5.0053,-5.0769,-5.1328,-5.1538,-5.1173,-5.0803,-5.091,-5.0397,-5.0011,-5.0011,-5.0011,-5.0011,0.0,0.0,0.0,0.0,0.0,0.0,0.0,0.0,0.0,0.0,0.0,0.0,0.0,0.0,0.0,0.0,0.0,0.0,0.0,0.0,-4.9107,-4.9001,-4.9001,-4.894,-4.894,-4.8832,-4.8769,-4.8769,-4.8373,-4.7847,0.0,0.0,-4.6271,-4.5325,-4.4606,-4.4056,-4.3654,-4.3006,-4.2682,-4.2585,-4.2555,-4.2555,-4.2648,0.0,0.0,0.0,0.0,0.0,0.0,0.0,0.0,0.0,0.0,0.0,0.0,0.0,0.0,0.0,0.0,0.0,0.0,0.0,0.0,-3.8778,-3.7229,-3.8287,-3.8134,-3.6489,-3.9445,-4.2134,-4.4515,-4.4515,-4.4578,-4.4681,-4.5168,-4.5545,-4.5796,-4.5936,-4.626,-4.6724,-4.7023,-4.7926,-4.9193,0.0,0.0,0.0,0.0,0.0,0.0,0.0,0.0,0.0,0.0,-5.0683,-5.0585,-5.0563,0.0,0.0,0.0,0.0,0.0,-5.0541,-5.0655,-5.0747,-5.0653,-5.0787,-5.1016,-5.1221,-5.1052,-5.0803,-5.0803,-5.0359,-4.9935,0.0,0.0,-5.0011,0.0,0.0,0.0,0.0,0.0,0.0,0.0,0.0,0.0,0.0,0.0,0.0,0.0,0.0,0.0,0.0,0.0,0.0,0.0,0.0,-4.935,-4.9246,-4.9168,-4.9063,-4.9001,-4.8956,-4.8692,-4.8304,-4.8023,-4.7496,-4.6776,0.0,-4.5718,-4.5168,-4.4362,-4.396,-4.3727,-4.3305,-4.3174,-4.3113,-4.3129,-4.3052,-4.2912,0.0,0.0,0.0,0.0,0.0,0.0,0.0,0.0,0.0,0.0,0.0,0.0,0.0,0.0,0.0,0.0,0.0,0.0,0.0,-3.8515,-3.8826,-3.9461,-4.0178,-3.9512,-3.7285,-4.1459,-4.3949,-4.4515,-4.4364,-4.4476,-4.48,-4.5283,-4.5542,-4.5596,-4.6048,-4.6632,-4.7272,-4.7564,-4.8512,-4.9794,0.0,0.0,0.0,0.0,0.0,0.0,0.0,0.0,0.0,0.0,0.0,0.0,0.0,0.0,0.0,-5.0206,-5.0496,-5.0873,-5.1026,-5.1417,-5.1663,-5.1194,-5.0892,-5.0667,-5.0752,-5.064,-5.0547,-5.0602,-5.0246,-4.9935,0.0,-4.9935,0.0,0.0,0.0,0.0,0.0,0.0,0.0,0.0,0.0,0.0,0.0,0.0,0.0,0.0,0.0,0.0,0.0,0.0,0.0,0.0,0.0,0.0,-4.9488,-4.929,-4.9168,-4.9063,-4.8832,-4.846,-4.7919,-4.7518,-4.6952,-4.6228,-4.5513,-4.5118,-4.4917,-4.419,-4.3898,-4.3898,-4.3704,-4.3628,-4.3628,-4.3628,-4.3492,-4.3312,0.0,0.0,0.0,0.0,0.0,0.0,0.0,0.0,0.0,0.0,0.0,0.0,0.0,0.0,0.0,0.0,0.0,0.0,0.0,-3.7567,-3.7551,-3.7445,-3.8656,-4.0126,-4.1791,-4.2228,-4.3104,-4.4515,-4.3943,-4.405,-4.48,-4.5099,-4.5343,-4.5563,-4.6568,-4.7052,-4.7226,-4.8817,-4.9591,-4.978,-5.0584,0.0,0.0,0.0,0.0,0.0,0.0,0.0,0.0,0.0,0.0,0.0,0.0,0.0,-5.0383,-5.0871,-5.0989,-5.1239,-5.2401,-5.194,-5.1203,-5.187,-5.1558,-5.0929,-5.0246,-4.9901,-4.9825,-5.0051,-4.986,-4.9784,0.0,0.0,0.0,0.0,0.0,0.0,0.0,0.0,0.0,0.0,0.0,0.0,0.0,0.0,0.0,0.0,0.0,0.0,0.0,0.0,0.0,0.0,0.0,0.0,-4.9488,-4.929,-4.9168,-4.9168,-4.8369,-4.797,-4.7885,-4.6978,-4.6195,-4.5446,-4.5295,-4.4817,-4.4181,-4.3973,-4.3898,-4.3898,-4.3704,-4.3628,-4.3628,-4.3628,-4.3687,-4.3839,0.0,0.0,0.0,0.0,0.0,0.0,0.0,0.0,0.0,0.0,0.0,0.0,0.0,0.0,0.0,0.0,0.0,0.0,0.0,-3.7181,-3.7181,-3.7105,-3.7857,-3.9068,-4.0704,-4.1759,-4.2777,-4.3689,-4.3818,-4.4084,-4.4393,-4.5494,-4.6006,-4.6046,-4.7289,-4.8099,-4.8574,-4.9283,-4.9898,-5.04,-5.0726,-5.0877,0.0,0.0,0.0,0.0,0.0,0.0,0.0,0.0,-5.0481,-5.0412,-5.0412,-5.0574,-5.0821,-5.1007,-5.1605,-5.2259,-5.2308,-5.2095,-5.178,-5.1593,-5.1035,-5.0492,-5.0189,-4.9976,-4.9935,-4.9993,-4.9935,-4.9935,0.0,0.0,0.0,0.0,0.0,0.0,0.0,0.0,0.0,0.0,0.0,0.0,0.0,0.0,0.0,0.0,0.0,0.0,0.0,0.0,0.0,0.0,0.0,0.0,0.0,-4.9086,-4.8669,-4.8669,-4.8158,-4.7445,-4.6532,-4.6169,-4.5571,-4.4879,-4.4879,-4.467,-4.44,-4.4212,-4.4155,-4.4155,-4.3981,-4.3923,-4.3923,-4.3822,-4.3881,-4.3998,0.0,0.0,0.0,0.0,0.0,0.0,0.0,0.0,0.0,0.0,0.0,0.0,0.0,0.0,0.0,0.0,0.0,0.0,-3.7374,-3.7124,-3.7015,-3.7015,-3.7519,-3.8349,-3.9429,-4.0926,-4.2171,-4.3211,-4.3707,-4.4129,-4.4482,-4.564,-4.6282,-4.6562,-4.7835,-4.8702,-4.9259,-4.9625,-5.0162,-5.0738,-5.0738,-5.0738,0.0,0.0,0.0,0.0,0.0,0.0,0.0,0.0,-5.0566,-5.0684,-5.0684,-5.1059,-5.1509,-5.1706,-5.2212,-5.2641,-5.2426,-5.2134,-5.1843,-5.1347,-5.0694,-5.0189,-5.0189,-5.0034,-4.9935,-5.0011,-5.0011,-5.0011,-4.9935,0.0,0.0,0.0,0.0,0.0,0.0,0.0,0.0,0.0,0.0,0.0,0.0,0.0,0.0,0.0,0.0,0.0,0.0,0.0,0.0,0.0,0.0,0.0,0.0,-4.8884,-4.8196,-4.77,-4.7444,-4.6743,-4.5703,-4.5466,-4.506,-4.4587,-4.4587,-4.4587,-4.457,-4.4367,-4.4253,-4.4253,-4.4155,-4.4097,-4.4097,-4.3998,-4.4056,-4.4155,0.0,0.0,0.0,0.0,0.0,0.0,0.0,0.0,0.0,0.0,0.0,0.0,0.0,0.0,0.0,0.0,0.0,0.0,-3.7982,-3.7389,-3.7015,-3.7015,-3.7567,-3.8141,-3.8668,-3.9783,-4.127,-4.3194,-4.3526,-4.4235,-4.532,-4.538,-4.5998,-4.7042,-4.8112,-4.871,-4.8961,-4.9956,-5.0467,-5.0587,-5.0606,-5.0606,-5.0606,0.0,0.0,0.0,0.0,0.0,0.0,0.0,-5.0827,-5.13,-5.13,-5.1735,-5.2386,-5.3164,-5.2746,-5.2164,-5.2876,-5.2152,-5.121,-5.121,-5.0694,-5.0189,-5.0189,-4.9942,-4.9784,-4.9935,-5.0011,-4.9935,-4.9708,-4.986,0.0,0.0,0.0,0.0,0.0,0.0,0.0,0.0,0.0,0.0,0.0,0.0,0.0,0.0,0.0,0.0,0.0,0.0,0.0,0.0,0.0,0.0,-4.8838,-4.865,-4.7803,-4.6275,-4.5993,-4.5801,-4.5669,-4.4925,-4.4587,-4.4587,-4.4587,-4.4587,-4.457,-4.4384,-4.4196,-4.4097,-4.4097,-4.4097,-4.4097,-4.4097,-4.4212,-4.4293,0.0,0.0,0.0,0.0,0.0,0.0,0.0,0.0,0.0,0.0,0.0,0.0,0.0,0.0,0.0,0.0,0.0,0.0,-3.8376,-3.8122,-3.7977,-3.7977,-3.8126,-3.8518,-3.9172,-4.0829,-4.2153,-4.3066,-4.3643,-4.4345,-4.5204,-4.6424,-4.7161,-4.7466,-4.8787,-4.9257,-4.9079,-4.9622,-4.9841,-4.9949,-5.0659,-5.1066,-5.1315,0.0,0.0,0.0,0.0,0.0,0.0,0.0,0.0,0.0,-5.1954,-5.2386,-5.2918,-5.3019,-5.294,-5.2776,-5.2462,-5.1825,-5.1105,-5.0585,-5.0302,-5.0051,-5.0051,-4.9993,-4.9935,0.0,-4.986,-4.9784,-4.9935,0.0,0.0,0.0,0.0,0.0,0.0,0.0,0.0,0.0,0.0,0.0,0.0,0.0,0.0,0.0,0.0,0.0,0.0,0.0,0.0,0.0,0.0,0.0,-4.8821,-4.7567,-4.6683,-4.6182,-4.5465,-4.5116,-4.506,-4.4727,-4.4587,-4.4587,-4.4587,-4.4587,-4.4587,-4.4514,-4.4514,-4.4457,-4.4457,-4.4457,-4.4457,-4.431,-4.4384,-4.4514,0.0,0.0,0.0,0.0,0.0,0.0,0.0,0.0,0.0,0.0,-4.0593,-4.0524,0.0,0.0,0.0,0.0,0.0,0.0,0.0,-3.8425,-3.823,-3.823,-3.8487,-3.9188,-4.0271,-4.1713,-4.2739,-4.3371,-4.3853,-4.451,-4.5389,-4.6522,-4.7206,-4.7499,-4.8513,-4.8851,-4.8667,-4.9439,-4.9796,-4.9932,-5.094,-5.1386,-5.1519,0.0,0.0,0.0,0.0,0.0,0.0,0.0,0.0,0.0,-5.2647,-5.3037,-5.3462,-5.3069,-5.2847,-5.2535,-5.1886,-5.1209,-5.0602,-5.0189,-5.0051,-5.0011,-4.9918,0.0,0.0,0.0,-4.9801,-4.9842,-4.986,0.0,0.0,0.0,0.0,0.0,0.0,0.0,0.0,0.0,0.0,0.0,0.0,0.0,0.0,0.0,0.0,0.0,0.0,0.0,0.0,0.0,0.0,0.0,-4.7941,-4.69,-4.6227,-4.5809,-4.52,-4.4886,-4.4886,-4.4682,-4.4587,-4.4587,-4.4587,-4.4587,-4.4587,-4.4587,-4.4587,-4.4587,-4.4587,-4.4587,-4.4587,-4.444,-4.4514,-4.457,0.0,0.0,0.0,0.0,0.0,0.0,0.0,0.0,0.0,0.0,-4.0608,-4.0455,0.0,0.0,0.0,0.0,0.0,0.0,0.0,0.0,-3.8105,-3.8105,-3.8869,-4.0055,-4.1648,-4.2364,-4.3149,-4.3987,-4.4152,-4.4741,-4.5766,-4.6014,-4.6514,-4.7258,-4.7632,-4.7879,-4.809,-4.9325,-4.9969,-5.024,-5.1233,-5.1551,-5.1446,-5.1746,0.0,0.0,0.0,0.0,0.0,0.0,0.0,0.0,-5.3306,-5.3631,-5.3944,-5.3274,-5.2543,-5.179,-5.1241,-5.055,-5.0011,-4.9993,-5.0011,-4.9935,-4.9708,-4.9801,-4.9877,-4.9547,0.0,-4.9935,0.0,0.0,0.0,0.0,0.0,0.0,0.0,0.0,0.0,0.0,0.0,0.0,0.0,0.0,0.0,0.0,0.0,0.0,0.0,0.0,0.0,0.0,0.0,0.0,-4.6613,-4.6544,-4.6148,0.0,-4.514,-4.5032,-4.4978,-4.4737,-4.4587,-4.4587,-4.4587,-4.4587,-4.4587,-4.4587,-4.4587,-4.4587,-4.4587,-4.4587,-4.4587,-4.4587,-4.4587,-4.4587,0.0,0.0,0.0,0.0,0.0,0.0,0.0,0.0,0.0,0.0,0.0,0.0,0.0,0.0,0.0,0.0,0.0,0.0,0.0,0.0,-3.9613,-3.9613,-3.9939,-4.071,-4.2199,-4.2551,-4.33,-4.4593,-4.4541,-4.489,-4.5658,-4.6212,-4.6826,-4.7404,-4.7286,-4.7806,-4.8822,-4.8756,-4.918,-4.9883,-5.0884,-5.1426,-5.1704,-5.2901,-5.307,0.0,0.0,0.0,0.0,0.0,0.0,0.0,-5.3848,-5.3906,-5.3888,-5.3143,-5.2526,-5.1904,-5.1155,-5.055,0.0,-5.0051,-4.986,-4.9649,-4.935,-4.9471,-4.9607,-4.9488,-4.9666,0.0,0.0,0.0,0.0,0.0,0.0,0.0,0.0,0.0,0.0,0.0,0.0,0.0,0.0,0.0,0.0,0.0,0.0,0.0,0.0,0.0,0.0,0.0,0.0,-4.6924,-4.6613,-4.5992,-4.5526,0.0,-4.5177,-4.5086,-4.4978,-4.4737,-4.4587,-4.4587,-4.4587,-4.4587,-4.4587,-4.4587,-4.4587,-4.4587,-4.4587,-4.4587,-4.4587,-4.4587,-4.4587,-4.4587,0.0,0.0,0.0,0.0,0.0,0.0,0.0,0.0,0.0,0.0,0.0,0.0,0.0,0.0,0.0,0.0,0.0,0.0,0.0,0.0,-4.0122,-4.0193,-4.1034,-4.1662,-4.2127,-4.3317,-4.4057,-4.4406,-4.4747,-4.5269,-4.5977,-4.6845,-4.7401,-4.7579,-4.7664,-4.8112,-4.8725,-4.9066,-4.9472,-5.0014,-5.1081,-5.1555,-5.1729,-5.2596,-5.2743,-5.2587,-5.2949,0.0,0.0,0.0,0.0,0.0,0.0,0.0,-5.3447,-5.2722,-5.2131,-5.1515,-5.075,-5.0324,0.0,-5.0011,0.0,-4.953,-4.935,-4.9411,-4.9488,-4.9307,0.0,0.0,0.0,0.0,0.0,0.0,0.0,0.0,0.0,0.0,0.0,0.0,0.0,0.0,0.0,0.0,0.0,0.0,0.0,0.0,0.0,0.0,0.0,0.0,0.0,-4.61,-4.6044,-4.5346,-4.5086,-4.53,-4.523,-4.514,-4.4978,-4.4831,-4.4776,-4.4776,-4.472,-4.4682,-4.4682,-4.4643,-4.4587,-4.4587,-4.4587,-4.4587,-4.4587,-4.4587,-4.4587,-4.4587,0.0,0.0,0.0,0.0,0.0,0.0,0.0,0.0,0.0,0.0,0.0,0.0,0.0,0.0,0.0,0.0,0.0,0.0,0.0,0.0,0.0,-4.0381,-4.1677,-4.2291,-4.2087,-4.3849,-4.4541,-4.4105,-4.5052,-4.5826,-4.6443,-4.7326,-4.7709,-4.7662,-4.8154,-4.8452,-4.8679,-4.9503,-5.001,-5.0307,-5.1183,-5.1536,-5.1521,-5.1768,-5.1831,-5.1825,-5.2177,-5.2281,-5.2336,-5.2336,0.0,0.0,0.0,0.0,-5.2877,-5.2141,-5.1565,-5.0982,-5.0341,-5.0092,-5.0011,-4.9935,-4.9742,0.0,-4.9471,-4.9488,-4.9428,0.0,0.0,0.0,0.0,0.0,0.0,0.0,0.0,0.0,0.0,0.0,0.0,0.0,0.0,0.0,0.0,0.0,0.0,0.0,0.0,0.0,0.0,0.0,0.0,0.0,0.0,-4.5354,-4.5264,-4.4742,-4.4797,-4.5423,-4.53,-4.5194,-4.5086,-4.5086,-4.5032,-4.4978,-4.4831,-4.4793,-4.4737,-4.4626,-4.4587,-4.4587,-4.4587,-4.4587,-4.4587,-4.4587,-4.4587,-4.4587,0.0,0.0,0.0,0.0,0.0,0.0,0.0,0.0,0.0,0.0,-4.0347,-4.0277,0.0,0.0,0.0,0.0,0.0,0.0,-4.0081,0.0,0.0,-4.0712,-4.1091,-4.1722,-4.2639,-4.2982,-4.3604,-4.4514,-4.6011,-4.6805,-4.689,-4.6811,-4.6969,-4.7364,-4.7644,-4.8592,-4.9899,-4.9455,-4.9649,-5.0369,-5.0512,-5.0564,-5.062,-5.1105,-5.0999,-5.0694,-5.1192,-5.1381,-5.1381,-5.1381,-5.1795,0.0,0.0,0.0,-5.2094,-5.1533,-5.1157,-5.0786,-5.0189,0.0,-4.9935,0.0,-4.9708,-4.959,0.0,0.0,0.0,0.0,0.0,0.0,0.0,0.0,0.0,0.0,0.0,0.0,0.0,0.0,0.0,0.0,0.0,0.0,0.0,0.0,0.0,0.0,0.0,0.0,0.0,0.0,-4.655,-4.579,-4.5032,-4.466,-4.4614,-4.4558,-4.4797,-4.5423,-4.5371,-4.5371,-4.5371,-4.5371,-4.5157,-4.4831,-4.4831,-4.472,-4.4643,-4.4643,-4.4587,-4.4587,-4.4587,-4.4587,-4.4587,-4.4587,-4.4587,-4.4587,0.0,0.0,0.0,0.0,0.0,0.0,0.0,0.0,0.0,0.0,0.0,-4.0401,0.0,0.0,0.0,-4.047,-4.047,-4.047,-4.047,-4.0593,-4.0662,-4.0662,-4.1225,-4.1688,-4.1835,-4.3146,-4.4037,-4.4473,-4.5959,-4.6794,-4.7118,-4.7523,-4.8083,-4.8672,-4.8879,-4.943,-5.0074,-4.9746,-4.9837,-5.0302,-5.0302,-5.0341,-5.0415,-5.0657,-5.062,-5.0397,-5.0657,-5.0766,-5.0766,-5.0766,-5.114,-5.1615,-5.1615,0.0,0.0,0.0,-5.0875,-5.0401,-5.0092,-4.9935,-4.986,0.0,-4.9784,-4.9649,-4.953,0.0,0.0,0.0,0.0,0.0,0.0,0.0,0.0,0.0,0.0,0.0,0.0,0.0,0.0,0.0,0.0,0.0,0.0,0.0,0.0,0.0,0.0,0.0,0.0,-4.6786,-4.61,-4.4993,-4.4671,0.0,-4.4502,-4.4502,-4.4797,-4.5423,-4.5423,-4.5423,-4.5423,-4.5423,-4.5318,-4.5157,-4.5032,-4.4978,-4.4923,-4.4776,-4.4737,-4.4682,-4.4626,-4.4587,-4.4587,-4.4587,-4.4587,-4.4587,0.0,0.0,0.0,0.0,0.0,0.0,0.0,0.0,0.0,0.0,0.0,0.0,0.0,0.0,0.0,0.0,-4.0799,-4.0799,-4.0799,-4.0867,-4.0892,-4.0924,-4.1661,-4.2087,-4.2059,-4.3766,-4.4781,-4.5086,-4.6277,-4.7081,-4.7449,-4.8483,-4.9193,-4.959,-4.986,-5.0011,-5.0011,-5.0011,-5.0051,-5.0149,-5.0149,-5.0206,-5.0302,-5.0302,-5.0302,-5.0302,-5.0302,-5.0302,-5.0302,-5.0302,-5.0602,-5.0964,-5.0964,-5.0964,0.0,0.0,0.0,-4.9837,0.0,0.0,-4.9251,-4.9591,-4.943,-4.9251,0.0,0.0,0.0,0.0,0.0,0.0,0.0,0.0,0.0,0.0,0.0,0.0,0.0,0.0,0.0,0.0,0.0,0.0,0.0,0.0,0.0,0.0,0.0,0.0,-4.6355,-4.632,-4.574,-4.4519,-4.4502,-4.4502,-4.4502,-4.4669,-4.4961,-4.5423,-4.5423,-4.5423,-4.5423,-4.5423,-4.5423,-4.5371,-4.5247,-4.5177,-4.5123,-4.4923,-4.4831,-4.4776,-4.4682,-4.4626,-4.4587,-4.4587,-4.4587,-4.4587,0.0,0.0,0.0,0.0,0.0,0.0,0.0,0.0,0.0,0.0,0.0,0.0,-4.1117,-4.1049,-4.1034,-4.1117,-4.0882,-4.0799,-4.0799,-4.0966,-4.1382,-4.2006,-4.226,0.0,-4.4691,-4.4805,-4.5524,-4.6876,-4.7834,-4.8192,-4.8056,-4.933,-4.9708,-4.9229,-4.9742,-5.0011,-5.0011,-5.0011,-4.9993,-4.9993,-4.9993,-4.9993,-4.9993,-4.9993,-4.9993,-4.9993,-4.9993,-4.9993,-4.9993,-4.9993,-5.0092,-5.0246,-5.0246,-5.0246,-5.0246,0.0,0.0,0.0,0.0,-4.8355,0.0,-4.8717,-4.8355,0.0,0.0,0.0,0.0,0.0,0.0,0.0,0.0,0.0,0.0,0.0,0.0,0.0,0.0,0.0,0.0,0.0,0.0,0.0,0.0,0.0,0.0,0.0,0.0,0.0,-4.5527,-4.5492,-4.5174,-4.4502,-4.4502,-4.4502,-4.4502,-4.5086,-4.5371,-4.5423,-4.5423,-4.5423,-4.5423,-4.5423,-4.5423,-4.5371,-4.5247,-4.514,-4.5032,-4.4978,-4.4923,-4.4776,-4.4776,-4.4737,-4.4587,-4.4587,-4.4587,-4.4587,0.0,0.0,0.0,0.0,0.0,0.0,0.0,0.0,0.0,0.0,0.0,0.0,0.0,-4.1169,-4.1102,-4.1205,-4.1086,-4.1205,-4.1626,-4.1725,-4.1984,-4.2614,-4.2911,-4.3337,-4.3902,-4.4943,-4.5897,-4.6758,-4.8023,-4.8761,-4.912,-4.9588,-4.9708,-4.953,-4.9877,-4.9877,-4.9683,-4.9877,-4.9935,-4.9784,-4.9935,-5.0011,-5.0011,-5.0011,-4.9935,-4.9842,-4.9935,-4.9935,-4.986,-4.9935,-5.0051,-5.0051,-5.0051,-5.0051,-4.9948,-4.943,-4.8756,-4.8114,0.0,0.0,0.0,-4.8045,-4.7924,0.0,0.0,0.0,0.0,0.0,0.0,0.0,0.0,0.0,0.0,0.0,0.0,0.0,0.0,0.0,0.0,0.0,0.0,0.0,0.0,0.0,0.0,0.0,0.0,0.0,-4.5441,-4.5423,-4.514,-4.4502,-4.4852,-4.5086,-4.5086,-4.53,-4.5423,-4.5423,-4.5423,-4.5423,-4.5423,-4.5423,-4.5423,-4.5423,-4.5371,-4.53,-4.5264,-4.514,-4.5032,-4.494,-4.4831,-4.4737,-4.4587,-4.4587,-4.4587,-4.4587,0.0,0.0,0.0,0.0,0.0,0.0,0.0,0.0,-4.139,-4.1288,0.0,0.0,0.0,0.0,-4.1674,-4.1862,-4.1841,-4.1975,-4.2466,-4.2567,-4.2825,-4.3401,-4.3615,-4.3922,-4.4354,-4.5186,-4.6023,-4.6832,-4.7868,-4.8635,-4.9256,-4.9649,-4.9725,-4.9649,-4.9877,-4.9877,-4.9607,-4.9877,-4.9935,-4.9784,-4.9935,-5.0011,-5.0011,-5.0011,-4.9935,-4.9784,0.0,0.0,0.0,0.0,0.0,-5.0011,-5.0011,-4.9821,-4.9459,-4.8683,-4.7924,-4.7338,-4.7338,0.0,0.0,0.0,0.0,0.0,0.0,0.0,0.0,0.0,0.0,0.0,0.0,0.0,0.0,0.0,0.0,0.0,0.0,0.0,0.0,0.0,0.0,0.0,0.0,0.0,0.0,0.0,0.0,0.0,-4.5423,-4.5423,-4.5194,-4.4797,-4.5194,-4.5423,-4.5423,-4.5423,-4.5423,-4.5423,-4.5423,-4.5423,-4.5423,-4.5423,-4.5423,-4.5423,-4.5423,-4.5423,-4.5371,-4.53,-4.514,-4.4978,-4.4886,-4.4776,-4.4587,-4.4587,-4.4587,-4.4587,0.0,0.0,0.0,0.0,0.0,0.0,0.0,0.0,-4.1652,-4.1652,0.0,0.0,0.0,0.0,0.0,-4.3051,-4.3114,-4.3185,-4.3427,-4.3427,-4.3725,-4.4416,-4.4463,-4.5049,-4.6285,-4.5661,-4.6011,-4.7306,-4.7521,-4.7883,-4.8416,-4.9471,-4.9801,-4.9488,-4.9877,-4.986,-4.9708,-4.9918,-5.0011,-5.0011,-5.0011,-5.0011,-5.0011,-5.0011,-5.0011,0.0,-5.0011,-5.0011,0.0,-5.0011,0.0,0.0,-4.9976,-4.9424,-4.8648,-4.7889,-4.7148,-4.6562,0.0,0.0,0.0,0.0,0.0,0.0,0.0,0.0,0.0,0.0,0.0,0.0,0.0,0.0,0.0,0.0,0.0,0.0,0.0,0.0,0.0,0.0,0.0,0.0,0.0,0.0,0.0,0.0,0.0,-4.5423,-4.5423,-4.5423,-4.5423,-4.5423,-4.5423,-4.5423,-4.5423,-4.5423,-4.5423,-4.5423,-4.5423,-4.5423,-4.5423,-4.5423,-4.5423,-4.5423,-4.5423,-4.5423,-4.5423,-4.5423,-4.5264,-4.4978,-4.4978,-4.4831,-4.4587,-4.4587,-4.4587,-4.4587,0.0,0.0,0.0,0.0,0.0,-4.4168,-4.349,-4.3263,-4.3121,0.0,0.0,0.0,-4.3406,-4.3337,-4.34,-4.352,-4.3396,-4.3529,-4.4102,-4.4165,-4.4495,-4.5185,-4.5362,-4.5602,-4.592,-4.625,-4.6565,-4.6932,-4.8039,-4.8371,-4.808,-4.9411,-4.9607,-4.8968,-4.9683,-4.986,-4.9708,-4.9918,-4.9935,-4.9784,-4.9935,-5.0011,0.0,0.0,0.0,0.0,0.0,-4.9935,-4.9784,0.0,-5.0011,-4.9907,0.0,-4.8631,-4.7872,-4.7131,-4.6372,-4.5751,-4.5751,0.0,0.0,0.0,0.0,0.0,0.0,0.0,0.0,0.0,0.0,0.0,0.0,0.0,0.0,0.0,0.0,0.0,0.0,0.0,0.0,0.0,0.0,0.0,0.0,0.0,0.0,0.0,0.0,-4.5423,-4.5423,-4.5423,-4.5423,-4.5423,-4.5423,-4.5423,-4.5423,-4.5423,-4.5423,-4.5423,-4.5423,-4.5423,-4.5423,-4.5423,-4.5423,-4.5423,-4.5423,-4.5423,-4.5423,-4.5423,-4.5264,-4.4978,-4.4978,-4.4831,-4.4587,-4.4587,-4.4587,-4.4587,0.0,0.0,0.0,0.0,0.0,-4.4892,-4.4186,-4.3911,-4.3722,0.0,0.0,0.0,-4.3961,-4.4244,-4.4417,-4.4417,-4.4598,-4.4928,-4.5337,-4.5457,-4.5646,-4.6055,-4.5892,-4.5807,-4.5807,-4.5888,-4.6051,-4.623,-4.716,-4.7489,-4.7339,-4.8855,-4.9256,-4.881,-4.9607,-4.9935,-4.9842,-4.9935,0.0,0.0,-4.9649,0.0,0.0,-4.9212,-4.9073,0.0,0.0,0.0,-4.9359,-4.9195,-4.9129,0.0,0.0,-4.7838,-4.7096,-4.6337,-4.5786,-4.5423,-4.5423,-4.5423,-4.5423,0.0,0.0,0.0,0.0,-4.5423,0.0,0.0,0.0,0.0,0.0,0.0,0.0,0.0,0.0,0.0,0.0,0.0,0.0,0.0,0.0,0.0,0.0,0.0,0.0,0.0,-4.5423,-4.5423,-4.5423,-4.5423,-4.5423,-4.5423,-4.5423,-4.5423,-4.5423,-4.5423,-4.5423,-4.5423,-4.5423,-4.5423,-4.5423,-4.5423,-4.5423,-4.5423,-4.5423,-4.5423,-4.5423,-4.5423,-4.5247,-4.5086,-4.5032,-4.4886,-4.4682,-4.4626,-4.4587,-4.4587,0.0,0.0,-4.8539,-4.7255,-4.6429,-4.5617,-4.4899,-4.4338,-4.3959,0.0,-4.3959,-4.411,-4.4479,-4.5201,-4.5625,-4.5625,-4.6237,-4.6764,-4.6913,-4.6913,-4.6913,-4.6913,-4.6281,-4.5918,-4.5918,-4.5207,-4.5088,-4.5515,-4.58,-4.606,-4.6464,-4.8046,-4.8759,-4.8697,-4.953,0.0,-4.9877,0.0,0.0,-4.9801,-4.9161,-4.8883,0.0,0.0,-4.795,-4.795,-4.808,-4.8446,-4.8821,-4.8336,-4.7914,0.0,0.0,0.0,0.0,0.0,-4.5423,-4.5423,-4.5423,-4.5423,-4.5423,-4.5423,0.0,0.0,-4.5423,-4.5423,0.0,0.0,0.0,0.0,0.0,0.0,0.0,0.0,0.0,0.0,0.0,0.0,0.0,0.0,0.0,0.0,0.0,0.0,0.0,-4.5423,-4.5423,-4.5423,-4.5423,-4.5423,-4.5423,-4.5423,-4.5423,-4.5423,-4.5423,-4.5423,-4.5423,-4.5423,-4.5423,-4.5423,-4.5423,-4.5423,-4.5423,-4.5423,-4.5423,-4.5423,-4.5423,-4.5423,-4.53,-4.5177,-4.5086,-4.4923,-4.4776,-4.4682,-4.4626,-4.4626,0.0,-4.8353,-4.7819,-4.7017,-4.6507,-4.6023,-4.5658,-4.5491,-4.5412,-4.5412,-4.5412,-4.546,-4.5514,-4.6129,-4.6539,-4.6539,-4.7186,-4.7612,-4.7688,-4.7688,-4.7688,-4.7688,-4.6992,-4.6597,-4.6597,-4.595,-4.5665,-4.5735,-4.6298,-4.6368,-4.5992,-4.7422,-4.7803,-4.7272,-4.8572,-4.9101,-4.9101,0.0,0.0,-4.9101,-4.8961,0.0,-4.8127,-4.8572,-4.8383,-4.8015,-4.9195,-4.9316,-4.8961,-4.9453,-4.8443,-4.7099,0.0,0.0,0.0,-4.5471,0.0,0.0,0.0,-4.5423,0.0,0.0,0.0,0.0,-4.5423,-4.5423,0.0,0.0,0.0,0.0,0.0,0.0,0.0,0.0,0.0,0.0,0.0,0.0,0.0,0.0,0.0,0.0,0.0,0.0,-4.5423,-4.5423,-4.5423,-4.5423,-4.5423,-4.5423,-4.5423,-4.5423,-4.5423,-4.5423,-4.5423,-4.5423,-4.5423,-4.5423,-4.5423,-4.5423,-4.5423,-4.5423,-4.5423,-4.5423,-4.5423,-4.5423,-4.5423,-4.5423,-4.53,-4.5194,-4.5177,-4.5086,-4.4923,-4.4831,-4.4776,-4.4737,-4.7998,-4.7885,-4.7688,-4.6689,-4.6426,-4.623,-4.6048,-4.6048,-4.5992,-4.5807,-4.5807,-4.5807,-4.5807,-4.6408,-4.6803,-4.6803,-4.7767,-4.8399,-4.8399,-4.8399,-4.8399,-4.8399,-4.7719,-4.7182,-4.6803,-4.6471,-4.6139,-4.5807,-4.612,-4.612,-4.5807,-4.6828,-4.7153,-4.6811,-4.7917,-4.8572,-4.8883,0.0,-4.8697,-4.8383,-4.7982,0.0,-4.7355,-4.7339,-4.7169,-4.6913,-4.7638,-4.7885,-4.7932,-4.8693,-4.7928,0.0,0.0,-4.5898,-4.5032,0.0,-4.4961,-4.5032,0.0,0.0,0.0,-4.5423,0.0,0.0,0.0,-4.5423,0.0,0.0,0.0,0.0,0.0,0.0,0.0,0.0,0.0,0.0,0.0,0.0,0.0,0.0,0.0,0.0,0.0,0.0,-4.5423,-4.5423,-4.5423,-4.5423,-4.5423,-4.5423,-4.5423,-4.5423,-4.5423,-4.5423,-4.5423,-4.5423,-4.5423,-4.5423,-4.5423,-4.5423,-4.5423,-4.5423,-4.5423,-4.5423,-4.5423,-4.5423,-4.5423,-4.5423,-4.5371,-4.53,-4.5247,-4.5177,-4.5086,-4.4923,-4.4886,-4.4886,-4.7539,-4.7737,-4.7671,-4.6496,-4.6356,-4.6372,-4.6285,-4.623,-4.612,-4.5807,-4.5807,-4.5807,-4.5807,-4.6408,-4.6803,-4.6803,-4.7956,-4.8746,-4.8873,-4.8889,-4.8889,-4.8889,-4.8383,-4.7688,-4.6819,-4.6803,-4.6471,-4.5807,-4.5807,-4.5807,-4.5807,-4.6372,-4.6636,-4.6636,-4.7355,-4.7998,-4.8493,0.0,0.0,-4.7622,0.0,-4.6636,-4.6566,-4.612,-4.5936,-4.5807,-4.5936,-4.6292,-4.6724,-4.7354,-4.6875,-4.5975,-4.5522,-4.4906,0.0,0.0,0.0,0.0,0.0,0.0,0.0,0.0,0.0,-4.5423,0.0,0.0,0.0,0.0,0.0,0.0,0.0,0.0,0.0,0.0,0.0,0.0,0.0,0.0,0.0,0.0,0.0,0.0,0.0,0.0,-4.5423,-4.5423,-4.5423,-4.5423,-4.5423,-4.5423,-4.5423,-4.5423,-4.5423,-4.5423,-4.5423,-4.5423,-4.5423,-4.5423,-4.5423,-4.5423,-4.5423,-4.5423,-4.5423,-4.5423,-4.5423,-4.5423,-4.5423,-4.5423,-4.5423,-4.5371,-4.53,-4.5247,-4.5247,-4.5086,-4.5032,-4.5032,-4.8048,-4.8016,-4.7638,-4.6496,-4.6582,-4.6738,-4.6356,-4.6048,-4.588,-4.5807,-4.5807,-4.5807,-4.5807,-4.6408,-4.6803,-4.6803,-4.7545,-4.8272,-4.8841,-4.8889,-4.8889,-4.8889,-4.881,-4.8146,-4.6834,-4.6803,-4.6471,-4.5807,-4.5807,-4.5807,-4.5807,-4.588,-4.5936,-4.5936,-4.6636,-4.6949,-4.7001,0.0,-4.7001,0.0,-4.6191,-4.5936,0.0,-4.6496,-4.6317,-4.588,-4.6496,-4.6338,-4.5991,0.0,-4.5612,-4.4054,0.0,-4.4245,-4.3748,-4.4316,0.0,0.0,0.0,0.0,0.0,0.0,-4.5423,0.0,0.0,0.0,0.0,0.0,0.0,0.0,0.0,0.0,0.0,0.0,0.0,0.0,0.0,0.0,0.0,0.0,0.0,0.0,0.0,0.0,0.0,-4.5423,-4.5423,-4.5423,-4.5423,-4.5423,-4.5423,-4.5423,-4.5423,-4.5423,-4.5423,-4.5423,-4.5423,-4.5423,-4.5423,-4.5423,-4.5423,-4.5423,-4.5423,-4.5423,-4.5423,-4.5423,-4.5423,-4.5423,-4.5423,-4.5423,-4.5371,-4.5371,-4.5371,-4.5247,-4.5194,-4.514,-4.7605,-4.7688,-4.7754,-4.7066,-4.6945,-4.6807,-4.6652,-4.6136,-4.5807,-4.5807,-4.5807,-4.5807,-4.5807,-4.6408,-4.6803,-4.6803,0.0,-4.8177,0.0,0.0,-4.9062,-4.9473,-4.911,-4.843,-4.7466,-4.7024,-4.6471,-4.5807,-4.5807,-4.5807,-4.5807,-4.5807,-4.5807,-4.5807,-4.6048,0.0,-4.6811,0.0,-4.6811,0.0,0.0,0.0,0.0,-4.612,-4.6064,-4.5807,-4.612,-4.6046,-4.5761,0.0,-4.498,0.0,0.0,0.0,0.0,0.0,0.0,0.0,0.0,0.0,0.0,0.0,0.0,0.0,-4.5318,0.0,-4.5423,0.0,0.0,0.0,0.0,0.0,0.0,0.0,0.0,0.0,0.0,0.0,0.0,0.0,0.0,0.0,0.0,0.0,0.0,0.0,0.0,-4.5423,-4.5423,-4.5423,-4.5423,-4.5423,-4.5423,-4.5423,-4.5423,-4.5423,-4.5423,-4.5423,-4.5423,-4.5423,-4.5423,-4.5423,-4.5423,-4.5423,-4.5423,-4.5423,-4.5423,-4.5423,-4.5423,-4.5423,-4.5423,-4.5423,-4.5371,-4.5371,-4.5318,-4.53,-4.7421,-4.7621,-4.782,-4.7471,-4.715,-4.6823,-4.6615,-4.6349,-4.6008,-4.5807,-4.5807,0.0,-4.5807,-4.6234,0.0,0.0,-4.7024,-4.7609,0.0,0.0,-4.8541,0.0,0.0,0.0,0.0,-4.6977,-4.6471,-4.5807,-4.5807,-4.5807,-4.5807,-4.5807,-4.5807,-4.5807,-4.5807,-4.6064,-4.6496,0.0,-4.6496,-4.6496,-4.6496,-4.6246,-4.5807,-4.5807,-4.5807,-4.5776,-4.5586,-4.5371,-4.5101,-4.4409,-4.4138,0.0,-4.2684,0.0,0.0,0.0,0.0,0.0,-4.478,0.0,0.0,0.0,0.0,0.0,0.0,0.0,0.0,0.0,0.0,0.0,0.0,0.0,0.0,-4.5423,0.0,0.0,0.0,0.0,0.0,0.0,0.0,0.0,0.0,0.0,0.0,0.0,-4.5423,0.0,-4.5423,-4.5423,-4.5423,-4.5423,-4.5423,-4.5423,-4.5423,-4.5423,-4.5423,-4.5423,-4.5423,-4.5423,-4.5423,-4.5423,-4.5423,-4.5423,-4.5423,-4.5423,-4.5423,-4.5423,-4.5423,-4.5423,-4.5423,-4.5423,-4.5423,-4.5423,-4.5423,-4.5371,-4.8049,-4.8001,-4.7853,-4.7488,-4.715,-4.6684,-4.5936,-4.642,-4.6615,0.0,0.0,0.0,0.0,0.0,0.0,0.0,0.0,-4.6155,-4.6819,0.0,-4.6882,0.0,0.0,-4.7277,0.0,0.0,-4.6471,-4.5807,-4.5807,-4.5807,-4.5807,-4.5807,-4.5807,-4.5807,-4.5807,-4.5807,-4.5807,-4.5807,-4.5807,-4.5807,-4.5807,-4.5807,-4.5807,0.0,-4.5807,-4.5713,-4.5001,0.0,0.0,-4.3015,-4.2733,0.0,0.0,0.0,0.0,0.0,0.0,0.0,0.0,0.0,0.0,-4.5247,0.0,0.0,0.0,0.0,-4.5423,0.0,0.0,0.0,0.0,-4.5423,-4.5423,-4.5423,-4.5423,0.0,0.0,0.0,0.0,0.0,0.0,0.0,0.0,0.0,0.0,0.0,-4.5423,0.0,-4.5423,-4.5423,-4.5423,-4.5423,-4.5423,-4.5423,-4.5423,-4.5423,-4.5423,-4.5423,-4.5423,-4.5423,-4.5423,-4.5423,-4.5423,-4.5423,-4.5423,-4.5423,-4.5423,-4.5423,-4.5423,-4.5423,-4.5423,-4.5423,-4.5423,-4.5423,-4.5423,-4.5371,-4.8001,-4.8001,-4.7935,-4.7853,0.0,-4.6684,-4.588,-4.6008,0.0,0.0,0.0,0.0,0.0,-4.5142,-4.5142,0.0,0.0,-4.6092,-4.6755,-4.6803,0.0,0.0,0.0,-4.6945,0.0,0.0,0.0,-4.5807,-4.5807,-4.5807,-4.5807,-4.5807,-4.5807,-4.5807,-4.5807,-4.5807,0.0,0.0,0.0,0.0,0.0,-4.5807,-4.5807,0.0,0.0,-4.5049,-4.4796,-4.399,0.0,-4.2758,-4.2389,-4.19,-4.1654,-4.1785,-4.2029,-4.2459,-4.2585,0.0,0.0,0.0,-4.3469,-4.4558,0.0,0.0,0.0,0.0,0.0,0.0,0.0,0.0,0.0,-4.5423,-4.5423,-4.5423,-4.5423,-4.5423,0.0,0.0,0.0,0.0,0.0,0.0,0.0,0.0,0.0,-4.5423,-4.5423,-4.5423,0.0,-4.5423,-4.5423,-4.5423,-4.5423,-4.5423,-4.5423,-4.5423,-4.5423,-4.5423,-4.5423,-4.5423,-4.5423,-4.5423,-4.5423,-4.5423,-4.5423,-4.5423,-4.5423,-4.5423,-4.5423,-4.5423,-4.5423,-4.5423,-4.5423,-4.5423,-4.5423,-4.5371,-4.8001,-4.8001,-4.8001,0.0,0.0,0.0,0.0,0.0,0.0,0.0,-4.5067,0.0,-4.451,0.0,-4.4812,0.0,-4.5395,-4.5997,-4.6424,-4.6439,0.0,-4.7135,-4.6708,0.0,0.0,0.0,0.0,0.0,-4.5807,-4.5807,-4.5807,-4.5807,-4.5807,-4.5807,-4.5807,-4.5807,-4.5807,0.0,-4.5807,0.0,0.0,-4.5649,0.0,0.0,-4.5128,-4.4654,0.0,-4.3421,-4.2647,-4.2394,-4.1983,-4.1588,-4.1588,-4.1588,-4.1704,-4.2158,-4.2269,-4.2396,-4.2986,-4.288,0.0,-4.3898,-4.3823,0.0,-4.4835,0.0,0.0,0.0,0.0,0.0,0.0,0.0,-4.514,-4.5371,-4.5423,-4.5423,0.0,-4.5423,0.0,0.0,0.0,0.0,0.0,0.0,-4.5423,-4.5423,-4.5423,-4.5423,0.0,0.0,-4.5423,-4.5423,-4.5423,-4.5423,-4.5423,-4.5423,-4.5423,-4.5423,-4.5423,-4.5423,-4.5423,-4.5423,-4.5423,-4.5423,-4.5423,-4.5423,-4.5423,-4.5423,-4.5423,-4.5423,-4.5423,-4.5423,-4.5423,-4.5423,-4.5423,-4.5371,0.0,0.0,0.0,0.0,-4.7704,0.0,0.0,0.0,-4.5913,0.0,-4.4812,-4.451,-4.3927,-4.445,-4.4737,-4.4812,-4.5395,0.0,-4.5807,-4.5807,0.0,0.0,-4.5807,-4.5807,-4.5807,0.0,0.0,0.0,0.0,-4.5807,-4.5807,-4.5807,-4.5807,-4.5807,-4.5807,0.0,-4.5807,-4.5807,-4.5792,-4.576,-4.576,-4.5317,-4.4654,-4.4622,0.0,-4.4433,-4.3153,-4.2663,-4.2521,-4.1825,-4.1588,-4.1588,-4.1588,-4.1588,-4.1588,-4.1588,-4.1588,-4.172,-4.2396,-4.2522,-4.2694,-4.3273,0.0,0.0,0.0,0.0,-4.3864,0.0,0.0,0.0,0.0,0.0,-4.4742,-4.5318,-4.5423,-4.5423,-4.5423,-4.5423,0.0,0.0,0.0,0.0,0.0,-4.5423,-4.5423,-4.5423,-4.5423,-4.5423,0.0,0.0,0.0,-4.5423,-4.5423,-4.5423,-4.5423,-4.5423,-4.5423,-4.5423,-4.5423,-4.5423,-4.5423,-4.5423,-4.5423,-4.5423,-4.5423,-4.5423,-4.5423,-4.5423,-4.5423,-4.5423,-4.5423,-4.5423,-4.5423,-4.5423,-4.5423,-4.5423,-4.7984,-4.8001,-4.8001,0.0,-4.7704,-4.7066,0.0,0.0,0.0,0.0,-4.445,-4.4066,-4.3927,-4.4082,-4.4297,-4.4737,-4.5395,0.0,0.0,0.0,0.0,-4.5807,-4.5807,-4.5807,-4.5807,-4.5807,0.0,-4.5807,0.0,-4.5807,-4.5807,-4.5807,-4.5807,-4.5807,-4.5807,0.0,-4.5807,-4.5807,-4.5491,-4.5001,-4.5001,-4.4591,0.0,0.0,-4.3216,-4.3169,-4.2805,-4.2331,-4.1841,-4.1652,-4.1588,-4.1588,-4.1588,-4.1588,-4.1588,-4.1588,-4.1588,-4.1654,-4.1835,-4.1835,-4.2013,-4.2694,-4.2818,-4.2986,0.0,0.0,0.0,0.0,0.0,0.0,0.0,0.0,0.0,-4.5371,-4.5423,-4.5423,-4.5423,0.0,0.0,-4.5423,0.0,0.0,0.0,-4.5423,-4.5423,-4.5423,-4.5423,0.0,0.0,0.0,0.0,-4.5423,-4.5423,-4.5423,-4.5423,-4.5423,-4.5423,-4.5423,-4.5423,-4.5423,-4.5423,-4.5423,-4.5423,-4.5423,-4.5423,-4.5423,-4.5423,-4.5423,-4.5423,-4.5423,-4.5423,-4.5423,-4.5423,-4.5423,-4.5423,-4.5423,-4.7704,0.0,0.0,-4.7504,0.0,0.0,-4.642,0.0,0.0,-4.4887,-4.451,0.0,-4.3927,-4.3927,-4.4143,-4.4737,-4.5142,0.0,-4.5807,0.0,0.0,-4.5807,-4.5807,-4.5807,-4.5807,-4.5807,0.0,-4.5807,0.0,0.0,-4.5807,-4.5807,-4.5807,-4.5807,0.0,-4.5807,-4.5792,-4.5476,-4.5096,-4.4685,-4.4401,0.0,0.0,-4.2837,-4.2489,-4.2205,-4.2205,-4.1936,-4.1588,-4.1588,-4.1588,-4.1588,-4.1588,-4.1588,-4.1588,-4.1588,-4.1588,-4.1588,-4.1588,-4.1588,-4.172,-4.2093,-4.2142,-4.2333,-4.2986,-4.2863,-4.2909,0.0,0.0,0.0,0.0,0.0,0.0,-4.5371,-4.5423,-4.5423,0.0,0.0,0.0,0.0,0.0,0.0,0.0,0.0,0.0,0.0,0.0,0.0,0.0,0.0,0.0,-4.5423,-4.5423,-4.5423,-4.5423,-4.5423,-4.5423,-4.5423,-4.5423,-4.5423,-4.5423,-4.5423,-4.5423,-4.5423,-4.5423,-4.5423,-4.5423,-4.5423,-4.5423,-4.5423,-4.5423,-4.5423,-4.5423,-4.5423,-4.5423,-4.5423,0.0,0.0,0.0,0.0,0.0,0.0,0.0,-4.6207,0.0,-4.4752,0.0,-4.4358,-4.3849,-4.3771,-4.3989,-4.4662,0.0,-4.5067,-4.5646,-4.5735,-4.5807,-4.5807,-4.5807,-4.5807,-4.5807,-4.5807,-4.5807,0.0,0.0,-4.5807,-4.5807,-4.5807,-4.5807,-4.5807,0.0,0.0,0.0,-4.4891,-4.4527,0.0,-4.3816,-4.3169,-4.2552,-4.2552,-4.2157,-4.1588,-4.1588,-4.1588,-4.1588,-4.1588,-4.1588,-4.1588,-4.1588,-4.1588,-4.1588,-4.1588,-4.1588,-4.1588,-4.1588,-4.1588,-4.1588,-4.1588,-4.1588,-4.1769,-4.2333,-4.2029,-4.2077,-4.3898,-4.3426,0.0,0.0,0.0,0.0,-4.5194,0.0,0.0,0.0,0.0,0.0,0.0,0.0,0.0,0.0,0.0,0.0,0.0,0.0,0.0,0.0,0.0,0.0,0.0,-4.5423,0.0,-4.5476,0.0,-4.5423,-4.5423,-4.5423,-4.5423,-4.5423,-4.5423,-4.5423,-4.5423,-4.5423,-4.5423,-4.5423,-4.5423,-4.5423,-4.5423,-4.5423,-4.5423,-4.5423,-4.5423,-4.5423,-4.5423,0.0,0.0,0.0,0.0,0.0,-4.6876,-4.6442,-4.5857,-4.5126,-4.4143,-4.36,-4.3299,-4.314,-4.314,-4.3379,-4.3989,-4.451,0.0,0.0,0.0,0.0,-4.5807,-4.5807,-4.5807,-4.5807,-4.5807,-4.5807,0.0,0.0,-4.5807,-4.5807,-4.5807,-4.5807,-4.5807,0.0,0.0,-4.4859,-4.418,0.0,-4.3042,-4.2916,-4.2426,-4.1778,-4.1778,-4.1699,-4.1588,-4.1588,-4.1588,-4.1588,-4.1588,-4.1588,-4.1588,-4.1588,-4.1588,-4.1588,-4.1588,-4.1588,-4.1588,-4.1588,-4.1588,-4.1588,-4.1588,-4.1588,-4.1654,-4.1785,-4.1704,-4.1835,-4.2756,-4.3213,-4.3555,-4.363,0.0,0.0,0.0,0.0,0.0,0.0,0.0,0.0,0.0,0.0,0.0,0.0,0.0,0.0,0.0,0.0,0.0,0.0,0.0,0.0,0.0,0.0,0.0,0.0,0.0,0.0,-4.5563,-4.5563,-4.5528,-4.5423,-4.5423,-4.5423,-4.5423,-4.5423,-4.5423,-4.5423,-4.5423,-4.5423,-4.5423,-4.5423,-4.5423,-4.5423,-4.5423,-4.5423,-4.5423,0.0,0.0,0.0,0.0,0.0,0.0,0.0,-4.4721,0.0,-4.4373,-4.3834,-4.3457,-4.3457,-4.322,-4.322,-4.3849,-4.4143,-4.445,-4.4812,-4.5395,-4.5807,-4.5807,-4.5807,0.0,-4.5807,-4.5807,-4.5807,-4.5807,0.0,0.0,-4.5807,-4.5807,-4.5807,-4.5792,0.0,-4.4859,0.0,0.0,0.0,-4.2663,-4.2268,-4.1904,-4.1588,-4.1588,-4.1588,-4.1588,-4.1588,-4.1588,-4.1588,-4.1588,-4.1588,-4.1588,-4.1588,-4.1588,-4.1588,-4.1588,-4.1588,-4.1588,-4.1588,-4.1588,-4.1588,-4.1588,-4.1588,-4.1588,-4.1588,-4.1588,-4.1769,-4.2459,-4.2863,-4.3213,-4.3436,-4.3529,0.0,0.0,0.0,0.0,0.0,0.0,0.0,0.0,0.0,0.0,0.0,0.0,0.0,0.0,0.0,0.0,0.0,0.0,0.0,0.0,0.0,0.0,0.0,0.0,0.0,-4.5718,-4.5615,-4.5581,-4.5528,-4.5528,-4.5528,-4.5528,-4.5528,-4.5528,-4.5528,-4.5423,-4.5423,-4.5423,-4.5423,-4.5423,-4.5423,-4.5423,-4.5423,-4.5423,0.0,-4.737,0.0,0.0,-4.5624,0.0,0.0,-4.3756,-4.3379,-4.4434,-4.3989,-4.3551,-4.3551,-4.322,-4.322,-4.3693,-4.3912,-4.4297,-4.4737,-4.5395,-4.5807,-4.5807,-4.5807,-4.5807,-4.5807,-4.5807,-4.5807,0.0,0.0,0.0,0.0,-4.5586,0.0,0.0,0.0,0.0,0.0,0.0,-4.2592,-4.2528,-4.1958,-4.1654,-4.1588,-4.1588,-4.1588,-4.1588,-4.1588,-4.1588,-4.1588,-4.1588,-4.1588,-4.1588,-4.1588,-4.1588,-4.1588,-4.1588,-4.1588,-4.1588,-4.1588,-4.1588,-4.1588,-4.1588,-4.1588,-4.1588,-4.1588,-4.1588,-4.1769,-4.2459,-4.2585,-4.2756,-4.3213,-4.3047,0.0,0.0,0.0,0.0,0.0,0.0,0.0,0.0,0.0,0.0,0.0,0.0,0.0,0.0,0.0,0.0,0.0,0.0,0.0,0.0,0.0,0.0,-4.5871,0.0,-4.5718,0.0,-4.5736,-4.5667,-4.5615,-4.5615,-4.5615,-4.5632,-4.5632,-4.5563,-4.5581,-4.5423,-4.5423,-4.5423,-4.5423,-4.5423,-4.5423,-4.5423,-4.5423,-4.5423,0.0,0.0,0.0,0.0,0.0,0.0,0.0,-4.3756,-4.322,-4.3927,-4.301,-4.2242,-4.2242,-4.2703,-4.2981,-4.3061,-4.4051,-4.4737,-4.4812,-4.5395,-4.5807,-4.5807,-4.5807,-4.5807,-4.5807,-4.5807,-4.592,0.0,0.0,0.0,0.0,0.0,0.0,0.0,0.0,0.0,0.0,-4.246,-4.2157,-4.2141,-4.2077,-4.1851,-4.1588,-4.1588,-4.1588,-4.1588,-4.1588,-4.1588,-4.1588,-4.1588,-4.1588,-4.1588,-4.1588,-4.1588,-4.1588,-4.1588,-4.1588,-4.1588,-4.1588,-4.1588,-4.1588,-4.1588,-4.1588,-4.1588,-4.1588,-4.1588,-4.1769,-4.2459,-4.2585,-4.2648,-4.2632,-4.3196,-4.3597,0.0,0.0,0.0,0.0,0.0,0.0,0.0,0.0,0.0,0.0,0.0,0.0,0.0,0.0,0.0,0.0,0.0,0.0,0.0,0.0,-4.6023,-4.6172,-4.6023,0.0,-4.5972,-4.5972,-4.5871,-4.577,-4.577,-4.577,-4.577,-4.5667,-4.5528,-4.5423,-4.5423,-4.5423,-4.5423,-4.5423,-4.5423,-4.5423,-4.5423,-4.5423,-4.5423,0.0,0.0,0.0,0.0,0.0,0.0,0.0,-4.2333,-4.204,-4.2622,-4.2361,-4.2092,-4.2092,-4.2325,-4.2474,-4.2474,-4.3536,-4.4297,-4.4297,-4.5247,-4.5807,-4.5807,-4.5807,-4.5807,-4.5807,-4.5381,-4.5271,0.0,0.0,0.0,0.0,0.0,0.0,0.0,0.0,-4.3023,-4.2525,-4.2414,-4.2285,-4.2109,-4.2109,-4.1916,-4.1588,-4.1588,-4.1588,-4.1588,-4.1588,-4.1588,-4.1588,-4.1588,-4.1588,-4.1588,-4.1588,-4.1588,-4.1588,-4.1588,-4.1588,-4.1588,-4.1588,-4.1588,-4.1588,-4.1588,-4.1588,-4.1654,-4.1851,-4.172,-4.172,-4.2222,-4.2158,-4.2142,-4.2789,-4.3047,-4.3436,0.0,0.0,0.0,0.0,0.0,0.0,0.0,0.0,0.0,0.0,0.0,0.0,0.0,0.0,0.0,0.0,0.0,0.0,-4.6172,0.0,-4.6073,-4.6172,-4.6073,-4.6023,-4.6122,-4.6023,-4.5972,-4.5922,-4.5922,-4.5922,-4.5922,-4.577,-4.5667,-4.5632,-4.5476,-4.5423,-4.5528,-4.5423,-4.5476,-4.5528,-4.5528,-4.5528,-4.5528,-4.4122,0.0,-4.2925,0.0,-4.1625,-4.1279,-4.161,-4.1173,-4.0944,-4.161,-4.1617,-4.1512,-4.1512,-4.1674,-4.1836,-4.1836,-4.2731,-4.332,-4.332,-4.418,-4.4726,-4.4975,-4.4975,0.0,-4.5191,-4.4685,-4.4627,-4.511,-4.4288,0.0,0.0,0.0,0.0,0.0,-4.3251,-4.2976,-4.2238,-4.2601,-4.2522,-4.2222,-4.2349,-4.2158,-4.172,-4.172,-4.172,-4.172,-4.1654,-4.1588,-4.1588,-4.1588,-4.1588,-4.1588,-4.1588,-4.1588,-4.1588,-4.1588,-4.1588,-4.1588,-4.172,-4.1654,-4.1588,-4.172,-4.1654,-4.1654,-4.1916,-4.1785,-4.172,-4.2158,-4.2158,-4.2333,-4.3125,-4.3393,-4.3773,-4.4729,0.0,0.0,0.0,0.0,0.0,0.0,-4.6172,-4.6172,-4.6172,0.0,0.0,0.0,0.0,0.0,0.0,0.0,0.0,0.0,0.0,0.0,0.0,0.0,-4.6122,-4.6172,-4.6122,-4.6073,-4.6073,-4.6073,-4.6023,-4.5972,-4.5871,-4.5821,-4.5787,-4.5581,-4.5563,-4.5632,-4.5528,-4.5528,-4.5667,-4.5615,-4.5615,-4.5667,-4.3627,-4.3098,-4.2337,-4.152,-4.1369,-4.1293,-4.1126,-4.0573,-4.0339,-4.1035,-4.051,-4.0118,-4.0118,-4.0757,-4.108,-4.108,-4.1641,-4.1997,-4.1997,-4.2071,-4.2306,0.0,0.0,-4.3161,-4.3737,-4.3737,-4.4065,-4.4804,0.0,0.0,-4.4194,0.0,-4.2429,-4.2125,-4.2476,-4.2618,-4.2634,-4.2929,-4.2912,-4.2648,-4.2974,-4.2664,-4.2109,-4.2109,-4.2109,-4.2045,-4.172,-4.1588,-4.1588,-4.1588,-4.1588,-4.1588,-4.1588,-4.1588,-4.1588,-4.1588,-4.1588,-4.1654,-4.198,-4.1851,-4.1654,-4.2045,-4.1851,-4.1588,-4.1588,-4.1588,-4.1785,-4.2459,-4.2941,-4.335,-4.3656,-4.4473,-4.5054,-4.491,0.0,0.0,0.0,0.0,0.0,0.0,-4.6172,-4.6172,-4.6172,0.0,0.0,0.0,0.0,0.0,0.0,0.0,0.0,-4.6172,-4.6172,0.0,-4.6172,-4.6172,-4.6172,-4.6172,-4.6172,-4.6172,-4.6172,-4.6172,-4.6122,-4.5972,-4.5972,-4.5922,-4.577,-4.5787,-4.5787,-4.577,-4.5667,-4.5667,-4.577,-4.5667,-4.5667,-4.577,-4.0999,-4.0644,-4.0299,-3.9876,-3.949,-3.9341,-3.9639,-3.9565,-3.949,-3.9728,-3.9565,-3.9266,-3.8888,-3.9736,-4.0417,0.0,-4.102,-4.1415,0.0,-4.176,-4.2129,-4.2291,-4.2291,-4.2597,-4.3129,-4.2855,-4.3151,-4.4059,0.0,0.0,0.0,-4.3088,-4.2772,-4.2476,-4.3052,-4.3052,-4.2634,-4.319,-4.3113,-4.2648,-4.2974,-4.2664,-4.2109,-4.2349,-4.2285,-4.2109,-4.198,-4.1916,-4.1916,-4.1916,-4.1916,-4.1916,-4.1916,-4.1785,-4.1588,-4.1588,-4.1588,-4.1588,-4.172,-4.1654,-4.1654,-4.172,-4.1654,-4.1654,-4.1916,-4.2093,-4.2412,-4.2851,-4.3141,-4.3529,-4.4282,-4.4783,-4.5214,-4.558,0.0,0.0,0.0,0.0,0.0,0.0,0.0,-4.6172,0.0,-4.6172,0.0,0.0,0.0,0.0,0.0,0.0,0.0,0.0,-4.6172,0.0,-4.6172,-4.6172,-4.6172,-4.6172,-4.6172,-4.6172,-4.6172,-4.6172,-4.6172,-4.6122,-4.6023,-4.6023,-4.6073,-4.5871,-4.5871,-4.5922,-4.577,-4.5821,-4.5922,-4.5871,-4.5871,-4.5922,-3.9681,-3.9466,-3.9235,-3.9017,-3.8649,-3.8501,-3.8811,-3.8885,-3.8885,-3.8797,-3.8723,-3.8649,-3.8277,-3.8913,0.0,-3.9392,-3.9777,0.0,-4.0096,-4.0724,-4.1207,-4.1495,-4.178,-4.2217,-4.28,0.0,0.0,-4.3488,-4.3141,-4.3096,-4.3295,-4.3295,-4.3113,-4.2834,-4.3372,-4.3312,-4.2805,-4.3372,-4.3295,-4.2851,-4.3174,-4.299,-4.2476,-4.2726,-4.2664,-4.2412,-4.2174,-4.2174,-4.2285,-4.2174,-4.2174,-4.2238,-4.2109,-4.198,-4.1785,-4.1654,-4.1588,-4.1654,-4.1785,-4.172,-4.1654,-4.1785,-4.1785,-4.1851,-4.2238,-4.2539,-4.2896,-4.3443,-4.3722,-4.4169,-4.5035,-4.5249,-4.5459,-4.5972,0.0,-4.6023,0.0,0.0,0.0,0.0,0.0,0.0,0.0,-4.6172,0.0,0.0,0.0,0.0,0.0,0.0,0.0,-4.6172,-4.6172,0.0,-4.6172,-4.6172,-4.6172,-4.6172,-4.6172,-4.6172,-4.6172,-4.6172,-4.6172,-4.6189,-4.6122,-4.6122,-4.6189,-4.6023,-4.5972,-4.6073,-4.5922,-4.5972,-4.6073,-4.6023,-4.6023,-4.6073,-3.961,-3.9322,0.0,0.0,-3.8797,0.0,-3.8516,-3.8516,-3.8441,-3.8277,-3.8202,-3.8202,-3.8202,-3.8202,-3.8202,-3.8202,0.0,0.0,0.0,-3.9175,-3.9929,-4.0622,-4.1377,0.0,-4.2522,-4.2585,-4.2772,-4.3096,-4.3432,-4.3628,-4.3628,-4.3628,-4.3432,-4.3096,-4.3432,-4.3432,-4.3113,-4.3432,-4.3432,-4.3113,-4.3492,-4.3432,-4.3113,-4.3113,-4.3113,-4.3035,-4.2412,-4.2349,-4.2585,-4.2302,-4.2365,-4.2555,-4.2238,-4.2174,-4.2045,-4.172,-4.1588,-4.172,-4.198,-4.1851,-4.172,-4.2045,-4.2109,-4.2238,-4.2571,-4.2867,-4.3323,-4.3997,-4.4507,-4.5072,-4.5803,-4.5752,-4.5752,-4.6122,-4.5905,-4.5786,-4.6122,0.0,0.0,0.0,0.0,0.0,0.0,-4.6172,-4.6172,0.0,0.0,0.0,0.0,0.0,-4.6172,-4.6172,-4.6172,-4.6172,-4.6172,-4.6172,-4.6172,-4.6172,-4.6172,-4.6172,-4.6172,-4.6172,-4.6172,-4.6172,-4.6172,-4.6172,-4.6172,-4.6172,-4.6172,-4.6172,-4.6073,-4.6073,-4.6172,-4.6073,-4.6073,-4.6172,0.0,0.0,-3.887,-3.8782,-3.8649,-3.859,-3.8723,-3.859,-3.8441,-3.8441,-3.8277,-3.8202,-3.8202,-3.8366,-3.8441,-3.8441,-3.8277,-3.8277,-3.8516,-3.9175,-3.9733,-4.01,-4.0727,-4.1412,-4.1981,-4.2253,-4.271,-4.3492,-4.3552,-4.3628,-4.3628,-4.3628,-4.3432,-4.3096,-4.3432,-4.3432,-4.3113,-4.3432,-4.3432,-4.3113,-4.3492,-4.3432,-4.3113,-4.3355,-4.3295,-4.3096,-4.2912,-4.2726,-4.2648,-4.2789,-4.2726,-4.2664,-4.2789,-4.2664,-4.2349,-4.1769,-4.1785,-4.1916,-4.1785,-4.2029,-4.2333,-4.2174,-4.2302,-4.2555,-4.2929,-4.3035,-4.3218,-4.3654,-4.4121,-4.4614,-4.5072,-4.5407,-4.5752,-4.6122,-4.6122,-4.6073,-4.6172,0.0,0.0,0.0,-4.6172,-4.6172,-4.6172,-4.6172,-4.6172,0.0,0.0,0.0,0.0,0.0,-4.6172,-4.6172,-4.6172,-4.6172,-4.6172,-4.6172,-4.6172,-4.6172,-4.6172,-4.6172,-4.6172,-4.6172,-4.6172,-4.6172,-4.6172,-4.6172,-4.6172,-4.6172,-4.6172,-4.6189,-4.6172,-4.6172,-4.6189,-4.6172,-4.6172,-4.6189,-3.9104,-3.9017,-3.8943,-3.8943,-3.8885,-3.8811,-3.8943,-3.8797,-3.8738,-3.8516,-3.8366,-3.8277,-3.8202,-3.8366,-3.8516,-3.8516,-3.8501,-3.8575,-3.8738,-3.9478,-3.996,-4.0185,-4.0826,-4.1362,-4.1656,-4.219,-4.2834,-4.3628,-4.3628,-4.3628,-4.3628,-4.3628,-4.3492,-4.3372,-4.3492,-4.3492,-4.3355,-4.3492,-4.3492,-4.3355,-4.3509,-4.3492,-4.3372,-4.3509,-4.3492,-4.3295,-4.3174,-4.2974,-4.2851,-4.3035,-4.2974,-4.2851,-4.3035,-4.2974,-4.2726,-4.2206,-4.2174,-4.2302,-4.2093,-4.2333,-4.2585,-4.2539,-4.2664,-4.2929,-4.3235,-4.3312,-4.3416,-4.3848,-4.4276,-4.4708,-4.5142,-4.5407,-4.5752,-4.6122,-4.6073,-4.6023,-4.6172,-4.6172,0.0,-4.6172,-4.6172,-4.6172,-4.6172,-4.6172,-4.6172,-4.6172,0.0,0.0,-4.6172,-4.6172,-4.6172,-4.6172,-4.6172,-4.6172,-4.6172,-4.6172,-4.6172,-4.6172,-4.6172,-4.6172,-4.6172,-4.6172,-4.6172,-4.6172,-4.6172,-4.6172,-4.6172,-4.6172,-4.6172,-4.6172,-4.6172,-4.6172,-4.6172,-4.6172,-4.6172,-4.6172,-3.9177,-3.9104,-3.9104,-3.9104,-3.9104,-3.9104,-3.9104,-3.9104,-3.8958,-3.8664,-3.859,-3.8501,-3.8277,-3.8501,-3.859,-3.859,-3.8797,-3.8943,-3.9104,-3.9793,-4.0339,-4.0615,-4.1327,-4.1722,-4.1787,-4.2443,-4.3035,-4.3628,-4.3628,-4.3628,-4.3628,-4.3628,-4.3628,-4.3628,-4.3628,-4.3628,-4.3628,-4.3628,-4.3628,-4.3628,-4.3628,-4.3628,-4.3628,-4.3628,-4.3628,-4.3552,-4.3295,-4.3174,-4.3113,-4.3174,-4.3174,-4.3113,-4.3174,-4.3174,-4.3113,-4.2834,-4.2726,-4.2743,-4.2664,-4.2648,-4.2772,-4.3096,-4.3174,-4.3235,-4.3568,-4.3628,-4.373,-4.4196,-4.4558,-4.4964,-4.5529,-4.558,-4.5752,-4.6122,-4.5905,-4.5803,-4.6172,0.0,-4.6172,-4.6172,-4.6172,-4.6172,-4.6172,-4.6172,-4.6172,-4.6172,-4.6172,0.0,0.0,-4.6172,-4.6172,-4.6172,-4.6172,-4.6172,-4.6172,-4.6172,-4.6172,-4.6172,-4.6172,-4.6172,-4.6172,-4.6172,-4.6172,-4.6172,-4.6172,-4.6172,-4.6172,-4.6172,-4.6221,-4.6319,-4.6221,-4.627,-4.6319,-4.6221,-4.6172,-4.6172,-3.9337,-3.9192,-3.9177,-3.9337,-3.9192,-3.9177,-3.9337,-3.9192,-3.9104,-3.9031,-3.887,-3.8708,-3.8708,-3.887,-3.9031,-3.9031,-3.9192,-3.9265,-3.9104,-3.9793,-4.0547,-4.1327,-4.2045,-4.271,-4.3235,-4.3372,-4.3509,-4.3628,-4.3628,-4.3628,-4.3628,-4.3628,-4.3628,-4.3628,-4.3628,-4.3628,-4.3628,-4.3628,-4.3628,-4.3628,-4.3628,-4.3628,-4.3628,-4.3628,-4.3628,-4.3568,-4.3552,-4.3355,-4.3174,-4.3432,-4.3355,-4.3174,-4.3432,-4.3492,-4.3492,-4.3432,-4.3432,-4.3312,-4.2772,-4.2789,-4.3113,-4.3432,-4.3492,-4.3568,-4.3568,-4.3628,-4.373,-4.4196,-4.435,-4.4614,-4.5477,-4.558,-4.5752,-4.6122,-4.6122,-4.6122,-4.6172,0.0,-4.6172,-4.6172,-4.6172,-4.6172,-4.6172,-4.6172,-4.6172,-4.6172,-4.6172,-4.6172,-4.6172,-4.6172,-4.6172,-4.6172,-4.6172,-4.6172,-4.6172,-4.6172,-4.6172,-4.6172,-4.6172,-4.6172,-4.6172,-4.6172,-4.6172,-4.6172,-4.6172,-4.6172,-4.6172,-4.6172,-4.6429,-4.6724,-4.635,-4.6429,-4.6724,-4.635,-4.6172,-4.6172,-3.9424,-3.9337,-3.9265,-3.9352,-3.9337,-3.9265,-3.9424,-3.9337,-3.9192,-3.9104,-3.9017,-3.8943,-3.8782,-3.8943,-3.9104,-3.9104,-3.9265,-3.9337,-3.9265,-3.961,-3.995,-4.0339,-4.0668,-4.1194,-4.1917,-4.2648,-4.3035,-4.3035,-4.3432,-4.3628,-4.3628,-4.3628,-4.3628,-4.3628,-4.3628,-4.3628,-4.3628,-4.3628,-4.3628,-4.3628,-4.3628,-4.3628,-4.3628,-4.3628,-4.3628,-4.3628,-4.3628,-4.3355,-4.3174,-4.3492,-4.3372,-4.3174,-4.3492,-4.3628,-4.3628,-4.3628,-4.3628,-4.3552,-4.3235,-4.3235,-4.3432,-4.3552,-4.3628,-4.3628,-4.3628,-4.3789,-4.4023,-4.4253,-4.4669,-4.5106,-4.5529,-4.5803,-4.5955,-4.6172,-4.6172,0.0,0.0,-4.6172,-4.6172,-4.6172,-4.6172,-4.6172,-4.6172,-4.6172,-4.6172,-4.6172,-4.6172,-4.6172,-4.6172,-4.6172,-4.6172,-4.6172,-4.6172,-4.6172,-4.6172,-4.6172,-4.6172,-4.6172,-4.6172,-4.6172,-4.6172,-4.6172,-4.6172,-4.6221,-4.6477,-4.6572,-4.6619,-4.6863,-4.7071,-4.7248,-4.7026,-4.7089,-4.7248,-4.7026,-4.6954,-4.6908,-3.9424,-3.9424,-3.9424,-3.9424,-3.9424,-3.9424,-3.9424,-3.9424,-3.9337,-3.9177,-3.9177,-3.9104,-3.8943,-3.9104,-3.9177,-3.9177,-3.9337,-3.9424,-3.9424,-3.9424,-3.9496,-3.961,-3.9824,-4.0146,-4.0737,-4.1787,-4.2317,-4.2317,-4.2834,-4.3096,-4.3113,-4.3295,-4.3372,-4.3372,-4.3509,-4.3628,-4.3628,-4.3628,-4.3628,-4.3628,-4.3628,-4.3628,-4.3628,-4.3628,-4.3628,-4.3628,-4.3628,-4.3432,-4.3235,-4.3492,-4.3432,-4.3235,-4.3492,-4.3628,-4.3628,-4.3628,-4.3628,-4.3628,-4.3628,-4.3628,-4.3628,-4.3628,-4.3671,-4.373,-4.373,-4.4121,-4.4463,-4.4575,-4.5159,-4.5632,-4.5752,-4.6005,-4.6172,-4.6172,0.0,0.0,0.0,-4.6172,-4.6172,-4.6172,-4.6172,-4.6172,-4.6172,-4.6172,-4.6172,-4.6172,-4.6172,-4.6172,-4.6172,-4.6172,-4.6172,-4.6172,-4.6172,-4.6172,-4.6172,-4.6172,-4.627,-4.635,-4.635,-4.6447,-4.6525,-4.6525,-4.6525,-4.6572,-4.6908,-4.7071,-4.7071,-4.7464,-4.7674,-4.7756,-4.7632,-4.7674,-4.7733,-4.7506,-4.7421,-4.7378,-3.9424,-3.9424,-3.9424,-3.9424,-3.9424,-3.9424,-3.9424,-3.9424,-3.9424,-3.9352,-3.9352,-3.9337,-3.9337,-3.9337,-3.9352,-3.9352,-3.9424,-3.9424,-3.9424,-3.9424,-3.9681,-4.0409,-4.0992,-4.1393,-4.1459,-4.1525,-4.1591,-4.1591,-4.1656,-4.1656,-4.1656,-4.238,-4.2648,-4.271,-4.3295,-4.3628,-4.3628,-4.3628,-4.3628,-4.3628,-4.3628,-4.3628,-4.3628,-4.3628,-4.3628,-4.3628,-4.3628,-4.3552,-4.3568,-4.3568,-4.3552,-4.3568,-4.3568,-4.3628,-4.3628,-4.3628,-4.3628,-4.3628,-4.3628,-4.3628,-4.3628,-4.3628,-4.3906,-4.4253,-4.4253,-4.4541,-4.4964,-4.5407,-4.558,-4.5684,-4.6073,-4.6172,-4.6172,-4.6172,0.0,0.0,-4.6172,-4.6172,-4.6172,-4.6172,-4.6172,-4.6172,-4.6172,-4.6172,-4.6172,-4.6172,-4.6172,-4.6172,-4.6172,-4.6172,-4.6172,-4.6172,-4.6172,-4.6172,-4.6172,-4.6172,-4.6447,-4.6863,-4.6863,-4.7071,-4.7506,-4.7506,-4.7506,-4.7506,-4.7548,-4.7548,-4.7548,-4.7591,-4.7856,-4.8229,-4.7775,-4.7856,-4.8132,-4.7248,-4.6954,-4.6863,-3.9424,-3.9424,-3.9424,-3.9424,-3.9424,-3.9424,-3.9424,-3.9424,-3.9424,-3.9424,-3.9424,-3.9424,-3.9424,-3.9424,-3.9424,-3.9424,-3.9424,-3.9424,-3.9424,-3.9424,-3.9753,-4.0478,-4.1127,-4.1525,-4.1525,-4.238,-4.2585,-4.219,-4.219,-4.238,-4.2772,-4.2648,-4.2834,-4.3235,-4.3492,-4.3628,-4.3628,-4.3628,-4.3628,-4.3628,-4.3628,-4.3628,-4.3628,-4.3628,-4.3628,-4.3628,-4.3628,-4.3628,-4.3628,-4.3628,-4.3628,-4.3628,-4.3628,-4.3628,-4.3628,-4.3628,-4.3628,-4.3628,-4.3628,-4.3628,-4.3628,-4.3628,-4.373,-4.3964,-4.4236,-4.4597,-4.5018,-4.5529,-4.5803,-4.6023,-4.6172,-4.6172,-4.6172,-4.6172,0.0,-4.6172,-4.6172,-4.6172,-4.6172,-4.6172,-4.6172,-4.6172,-4.6172,-4.6172,-4.6172,-4.6172,-4.6172,-4.6172,-4.6172,-4.6172,-4.635,-4.6602,-4.6649,-4.6649,-4.6649,-4.6908,-4.716,-4.7335,-4.7335,-4.7421,-4.7591,-4.7591,-4.7591,-4.7632,-4.7915,-4.8035,-4.8035,-4.8289,-4.8345,-4.8267,-4.8075,-4.7955,-4.7816,-4.7464,-4.7335,-4.7248,-3.9424,-3.9424,-3.9424,-3.9424,-3.9424,-3.9424,-3.9424,-3.9424,-3.9424,-3.9424,-3.9424,-3.9424,-3.9424,-3.9424,-3.9424,-3.9424,-3.9424,-3.9481,-3.9753,-3.9753,-3.9879,-4.0146,-4.0805,-4.1194,-4.1194,-4.2317,-4.271,-4.2253,-4.2253,-4.2506,-4.2912,-4.271,-4.2851,-4.3312,-4.3492,-4.3628,-4.3628,-4.3628,-4.3628,-4.3628,-4.3628,-4.3628,-4.3628,-4.3628,-4.3628,-4.3628,-4.3628,-4.3628,-4.3628,-4.3628,-4.3628,-4.3628,-4.3628,-4.3628,-4.3628,-4.3628,-4.3628,-4.3628,-4.3628,-4.3687,-4.3789,-4.3628,-4.373,-4.3964,-4.4406,-4.4818,-4.5249,-4.5701,-4.6023,-4.6172,-4.6172,-4.6172,-4.6172,-4.6172,-4.6172,-4.6172,-4.6172,-4.6172,-4.6172,-4.6172,-4.6172,-4.6172,-4.6172,-4.6172,-4.6172,-4.6172,-4.6172,-4.6172,-4.6172,-4.6172,-4.635,-4.6649,-4.6954,-4.7115,-4.7115,-4.7421,-4.7674,-4.7816,-4.7816,-4.7897,-4.7999,-4.7999,-4.7999,-4.8038,-4.8364,-4.8495,-4.8495,-4.8785,-4.875,-4.8495,-4.8344,-4.8075,-4.7816,-4.7632,-4.7506,-4.7335,-3.9424,-3.9424,-3.9424,-3.9424,-3.9424,-3.9424,-3.9424,-3.9424,-3.9424,-3.9424,-3.9424,-3.9424,-3.9424,-3.9424,-3.9424,-3.9424,-3.9424,-3.9753,-4.0478,-4.0478,-4.0216,-3.9409,-4.0076,-4.0478,-4.0478,-4.1127,-4.1525,-4.1525,-4.1525,-4.1525,-4.1525,-4.2253,-4.2585,-4.2648,-4.3295,-4.3628,-4.3628,-4.3628,-4.3628,-4.3628,-4.3628,-4.3628,-4.3628,-4.3628,-4.3628,-4.3628,-4.3628,-4.3628,-4.3628,-4.3628,-4.3628,-4.3628,-4.3628,-4.3628,-4.3628,-4.3628,-4.3628,-4.3628,-4.3628,-4.3964,-4.4179,-4.373,-4.3964,-4.4406,-4.4801,-4.5249,-4.5684,-4.6122,-4.6172,-4.6172,-4.6172,-4.6172,-4.6172,-4.6172,-4.6172,-4.6172,-4.6172,-4.6172,-4.6172,-4.6172,-4.6172,-4.6172,-4.6172,-4.6172,-4.6172,-4.6172,-4.6172,-4.6172,-4.6172,-4.6172,-4.6221,-4.6221,-4.7115,-4.7591,-4.7632,-4.7632,-4.7856,-4.8306,-4.8306,-4.8532,-4.8909,-4.8909,-4.8909,-4.8909,-4.8909,-4.8909,-4.8909,-4.8909,-4.8909,-4.8874,-4.8458,-4.8306,-4.8229,-4.7775,-4.7291,-4.6908,-3.9424,-3.9424,-3.9424,-3.9424,-3.9424,-3.9538,-4.0076,-4.0146,-4.0339,-4.0805,-4.0873,-4.0873,-4.0873,-4.0873,-4.0873,-4.0873,-4.0873,-4.1008,-4.1194,-4.1194,-4.1127,-4.0857,-4.06,-4.0737,-4.1194,-4.1393,-4.1722,-4.2253,-4.1722,-4.1981,-4.2974,-4.271,-4.2851,-4.3295,-4.3492,-4.3628,-4.3628,-4.3628,-4.3628,-4.3628,-4.3628,-4.3628,-4.3628,-4.3628,-4.3628,-4.3628,-4.3628,-4.3628,-4.3628,-4.3628,-4.3628,-4.3628,-4.3628,-4.3628,-4.3628,-4.3628,-4.3848,-4.408,-4.408,-4.439,-4.4597,-4.4179,-4.439,-4.4818,-4.5302,-4.5529,-4.5684,-4.6122,-4.6172,-4.6172,-4.6172,-4.6172,-4.6172,-4.6172,-4.6172,-4.6172,-4.6172,-4.6172,-4.6172,-4.6172,-4.6172,-4.6172,-4.6172,-4.6172,-4.6172,-4.6172,-4.6172,-4.6172,-4.6172,-4.6172,-4.6477,-4.716,-4.7464,-4.7879,-4.8495,-4.8532,-4.8569,-4.8714,-4.8714,-4.8785,-4.8909,-4.8909,-4.8909,-4.8909,-4.8909,-4.8909,-4.8909,-4.8909,-4.8714,-4.8458,-4.8344,-4.8093,-4.7816,-4.7632,-4.7506,-4.7378,-3.9424,-3.9424,-3.9481,-3.9753,-3.9824,-4.0076,-4.0805,-4.0873,-4.106,-4.1459,-4.1525,-4.1525,-4.1525,-4.1525,-4.1525,-4.1525,-4.1787,-4.1933,-4.1933,-4.1933,-4.1933,-4.1933,-4.126,-4.1194,-4.1917,-4.2173,-4.2443,-4.2585,-4.2126,-4.238,-4.3174,-4.2772,-4.2974,-4.3628,-4.3628,-4.3628,-4.3628,-4.3628,-4.3628,-4.3628,-4.3628,-4.3628,-4.3628,-4.3628,-4.3628,-4.3628,-4.3628,-4.3628,-4.3628,-4.3628,-4.3628,-4.3628,-4.3628,-4.3628,-4.3628,-4.3789,-4.408,-4.435,-4.4502,-4.4872,-4.5142,-4.4889,-4.4872,-4.5018,-4.5477,-4.558,-4.5684,-4.6122,-4.6172,-4.6172,-4.6172,-4.6172,-4.6172,-4.6172,-4.6172,-4.6172,-4.6172,-4.6172,-4.6172,-4.6172,-4.6172,-4.6172,-4.6172,-4.6172,-4.6172,-4.6172,-4.6172,-4.6253,-4.6477,-4.6477,-4.6817,-4.7591,-4.7775,-4.8153,-4.8642,-4.882,-4.8909,-4.8909,-4.8909,-4.8909,-4.8909,-4.8909,-4.8909,-4.8909,-4.8909,-4.8909,-4.8909,-4.8909,-4.875,-4.8532,-4.8382,-4.8132,-4.7856,-4.7856,-4.7775,-4.7632,-3.9553,-3.9625,-3.9809,-4.0478,-4.0615,-4.0805,-4.1525,-4.1591,-4.1656,-4.1722,-4.1722,-4.1722,-4.1722,-4.1722,-4.1722,-4.1722,-4.2317,-4.271,-4.271,-4.271,-4.271,-4.271,-4.2045,-4.1981,-4.2648,-4.3174,-4.3174,-4.2585,-4.2585,-4.2648,-4.271,-4.271,-4.3035,-4.3628,-4.3628,-4.3628,-4.3628,-4.3628,-4.3628,-4.3628,-4.3628,-4.3628,-4.3628,-4.3628,-4.3628,-4.3628,-4.3628,-4.3628,-4.3628,-4.3628,-4.3628,-4.3628,-4.3628,-4.3628,-4.3747,-4.4179,-4.4367,-4.4519,-4.4855,-4.5302,-4.5632,-4.5632,-4.5354,-4.5125,-4.558,-4.5632,-4.5752,-4.6122,-4.6172,-4.6172,-4.6172,-4.6172,-4.6172,-4.6172,-4.6172,-4.6172,-4.6172,-4.6172,-4.6172,-4.6172,-4.6172,-4.6172,-4.6172,-4.6172,-4.6221,-4.627,-4.627,-4.6477,-4.6954,-4.6954,-4.716,-4.7632,-4.8093,-4.8306,-4.8344,-4.8714,-4.8909,-4.8909,-4.8909,-4.8909,-4.8909,-4.8909,-4.8909,-4.8909,-4.8909,-4.8909,-4.8909,-4.8909,-4.8909,-4.8855,-4.8495,-4.8344,-4.8344,-4.8344,-4.8075,-4.7756,-4.0925,-4.106,-4.1127,-4.126,-4.1362,-4.1625,-4.2253,-4.2427,-4.274,-4.3295,-4.3372,-4.3372,-4.3372,-4.3372,-4.3312,-4.3174,-4.3295,-4.3355,-4.3355,-4.3355,-4.3355,-4.3355,-4.3235,-4.3235,-4.3372,-4.2443,-4.219,-4.2585,-4.2585,-4.2851,-4.3355,-4.3355,-4.3432,-4.3628,-4.3628,-4.3628,-4.3628,-4.3628,-4.3628,-4.3628,-4.3628,-4.3628,-4.3628,-4.3628,-4.3628,-4.3628,-4.3628,-4.3628,-4.3628,-4.3628,-4.3628,-4.3628,-4.3628,-4.3848,-4.4196,-4.4253,-4.478,-4.5319,-4.5407,-4.5735,-4.6073,-4.6073,-4.6005,-4.5955,-4.6073,-4.6073,-4.6122,-4.6172,-4.6172,-4.6172,-4.6172,-4.6172,-4.6172,-4.6172,-4.6172,-4.6172,-4.6172,-4.6172,-4.6172,-4.6172,-4.6172,-4.6172,-4.6172,-4.6172,-4.635,-4.6742,-4.6742,-4.6954,-4.7421,-4.7464,-4.7674,-4.8132,-4.8267,-4.8458,-4.875,-4.8874,-4.8909,-4.8909,-4.8909,-4.8909,-4.8909,-4.8909,-4.8909,-4.8909,-4.8909,-4.8909,-4.8909,-4.8909,-4.8909,-4.8909,-4.8785,-4.875,-4.875,-4.875,-4.8714,-4.8623,-4.1459,-4.1525,-4.1591,-4.1981,-4.2094,-4.2348,-4.2974,-4.3157,-4.3339,-4.3839,-4.3898,-4.3898,-4.3898,-4.3898,-4.3839,-4.3628,-4.3628,-4.3628,-4.3628,-4.3628,-4.3628,-4.3628,-4.3628,-4.3628,-4.3628,-4.2896,-4.2506,-4.2585,-4.2585,-4.2772,-4.3113,-4.3113,-4.3295,-4.3628,-4.3628,-4.3628,-4.3628,-4.3628,-4.3628,-4.3628,-4.3628,-4.3628,-4.3628,-4.3628,-4.3628,-4.3628,-4.3628,-4.3628,-4.3628,-4.3628,-4.3628,-4.3628,-4.3628,-4.3789,-4.4023,-4.4236,-4.478,-4.5302,-4.5529,-4.5905,-4.6172,-4.6172,-4.6172,-4.6172,-4.6172,-4.6172,-4.6172,-4.6172,-4.6172,-4.6172,-4.6172,-4.6172,-4.6172,-4.6172,-4.6172,-4.6172,-4.6172,-4.6172,-4.6172,-4.6172,-4.6172,-4.627,-4.6525,-4.6525,-4.6742,-4.7204,-4.7248,-4.7421,-4.7915,-4.7937,-4.8153,-4.8569,-4.8605,-4.8678,-4.8909,-4.8909,-4.8909,-4.8909,-4.8909,-4.8909,-4.8909,-4.8909,-4.8909,-4.8909,-4.8909,-4.8909,-4.8909,-4.8909,-4.8909,-4.8909,-4.8909,-4.8909,-4.8909,-4.8909,-4.8909,-4.8909,-4.1459,-4.1591,-4.1852,-4.2522,-4.271,-4.2974,-4.3492,-4.3628,-4.3704,-4.3898,-4.3898,-4.3898,-4.3898,-4.3898,-4.3822,-4.3687,-4.3628,-4.3628,-4.3628,-4.3628,-4.3628,-4.3628,-4.3628,-4.3628,-4.3628,-4.3628,-4.3312,-4.2772,-4.2772,-4.2772,-4.2772,-4.2772,-4.3052,-4.3628,-4.3628,-4.3628,-4.3628,-4.3628,-4.3628,-4.3628,-4.3628,-4.3628,-4.3628,-4.3628,-4.3628,-4.3628,-4.3628,-4.3628,-4.3628,-4.3628,-4.3628,-4.373,-4.373,-4.3848,-4.4006,-4.4406,-4.4818,-4.5178,-4.558,-4.5972,-4.6172,-4.6172,-4.6172,-4.6172,-4.6172,-4.6172,-4.6172,-4.6172,-4.6172,-4.6172,-4.6172,-4.6172,-4.6172,-4.6172,-4.6172,-4.6172,-4.6172,-4.6172,-4.6172,-4.6172,-4.627,-4.6525,-4.6981,-4.7044,-4.7204,-4.7674,-4.7715,-4.7937,-4.8382,-4.842,-4.8569,-4.8909,-4.8909,-4.8909,-4.8909,-4.8909,-4.8909,-4.8909,-4.8909,-4.8909,-4.8909,-4.8909,-4.8909,-4.8909,-4.8909,-4.8909,-4.8909,-4.8909,-4.8909,-4.8909,-4.8909,-4.8909,-4.8909,-4.8909,-4.8909,-4.8909,-4.1393,-4.1981,-4.2443,-4.2585,-4.3235,-4.3704,-4.3628,-4.3763,-4.3898,-4.3898,-4.3898,-4.3898,-4.3898,-4.3898,-4.3898,-4.3839,-4.3839,-4.3839,-4.3839,-4.3704,-4.3628,-4.3628,-4.3628,-4.3628,-4.3628,-4.3628,-4.3568,-4.3432,-4.3432,-4.3432,-4.3432,-4.3432,-4.3492,-4.3628,-4.3628,-4.3628,-4.3628,-4.3628,-4.3628,-4.3628,-4.3628,-4.3628,-4.3628,-4.3628,-4.3628,-4.3628,-4.3628,-4.3628,-4.3628,-4.3628,-4.3848,-4.4196,-4.4196,-4.4725,-4.5372,-4.5424,-4.5701,-4.6073,-4.6122,-4.6172,-4.6172,-4.6172,-4.6172,-4.6172,-4.6172,-4.6172,-4.6172,-4.6172,-4.6172,-4.6172,-4.6172,-4.6172,-4.6172,-4.6172,-4.6172,-4.6172,-4.6172,-4.6172,-4.6172,-4.6172,-4.6572,-4.6999,-4.7464,-4.7506,-4.7674,-4.8172,-4.8229,-4.8364,-4.8785,-4.882,-4.882,-4.8909,-4.8909,-4.8909,-4.8909,-4.8909,-4.8909,-4.8909,-4.8909,-4.8909,-4.8909,-4.8909,-4.8909,-4.8909,-4.8909,-4.8909,-4.8909,-4.8909,-4.8909,-4.8909,-4.8909,-4.8909,-4.8909,-4.8909,-4.8909,-4.8909,-4.2569,-4.2912,-4.3174,-4.3174,-4.3568,-4.3822,-4.3628,-4.3805,-4.3998,-4.3998,-4.3998,-4.3998,-4.3998,-4.3822,-4.3763,-4.3898,-4.3763,-4.3763,-4.3898,-4.3704,-4.3628,-4.3763,-4.3628,-4.3628,-4.3763,-4.3628,-4.3628,-4.3628,-4.3628,-4.3628,-4.3628,-4.3628,-4.3628,-4.3628,-4.3628,-4.3628,-4.3628,-4.3628,-4.3628,-4.3628,-4.3628,-4.3628,-4.3628,-4.3628,-4.3628,-4.3628,-4.3628,-4.3628,-4.3628,-4.3906,-4.4138,-4.435,-4.4541,-4.4927,-4.5196,-4.5196,-4.5511,-4.5854,-4.5854,-4.6023,-4.6172,-4.6172,-4.6172,-4.6172,-4.6172,-4.6172,-4.6172,-4.6172,-4.6172,-4.6172,-4.6172,-4.6172,-4.6172,-4.6172,-4.6172,-4.6172,-4.6172,-4.6447,-4.6695,-4.6954,-4.716,-4.7464,-4.7955,-4.7995,-4.8153,-4.8605,-4.8642,-4.8714,-4.8909,-4.8909,-4.8909,-4.8909,-4.8909,-4.8909,-4.8909,-4.8909,-4.8909,-4.8909,-4.8909,-4.8909,-4.8909,-4.8909,-4.8909,-4.8909,-4.8909,-4.8909,-4.8909,-4.8909,-4.8909,-4.8909,-4.8909,-4.8909,-4.8909,-4.8909,-4.8909,-4.8909]},{"header":{"parameterUnit":"m.s-1","parameterCategory":1,"la1":30.6,"la2":28.766,"lo1":-90.7593,"lo2":-88.6598,"dy":0.0162,"dx":0.0183,"nx":116,"ny":114,"refTime":"2023-08-23T06:00:00:Z","depth":0,"parameterNumber":3,"parameterNumberName":"V-component_of_WINDS"},"data":[0.0,0.0,0.0,0.0,0.0,0.0,0.0,0.0,0.0,0.0,0.0,0.0,0.0,0.0,0.0,0.0,0.0,0.0,0.0,0.0,0.0,0.0,0.0,0.0,0.0,0.0,0.0,0.0,0.0,0.0,0.0,0.0,0.0,0.0,0.0,0.0,0.0,0.0,0.0,0.0,0.0,0.0,0.0,0.0,0.0,0.0,0.0,0.0,0.0,0.0,0.0,0.0,0.0,0.0,0.0,0.0,0.0,0.0,0.0,0.0,0.0,0.0,0.0,0.0,0.0,0.0,0.0,0.0,0.0,0.0,0.0,0.0,0.0,0.0,0.0,0.0,0.0,0.0,0.0,0.0,0.0,0.0,0.0,0.0,0.0,0.0,0.0,0.0,0.0,0.0,0.0,0.0,0.0,0.0,0.0,0.0,0.0,0.0,0.0,0.0,0.0,0.0,0.0,0.0,0.0,0.0,0.0,0.0,0.0,0.0,0.0,0.0,0.0,0.0,0.0,0.0,0.0,0.0,0.0,0.0,0.0,0.0,0.0,0.0,0.0,0.0,0.0,0.0,0.0,0.0,0.0,0.0,0.0,0.0,0.0,0.0,0.0,0.0,0.0,0.0,0.0,0.0,0.0,0.0,0.0,0.0,0.0,0.0,0.0,0.0,0.0,0.0,0.0,0.0,0.0,0.0,0.0,0.0,0.0,0.0,0.0,0.0,0.0,0.0,0.0,0.0,0.0,0.0,0.0,0.0,0.0,0.0,0.0,0.0,0.0,0.0,0.0,0.0,0.0,0.0,0.0,0.0,0.0,0.0,0.0,0.0,0.0,0.0,0.0,0.0,0.0,0.0,0.0,0.0,0.0,0.0,0.0,0.0,0.0,0.0,0.0,0.0,0.0,0.0,0.0,0.0,0.0,0.0,0.0,0.0,0.0,0.0,0.0,0.0,0.0,0.0,0.0,0.0,0.0,0.0,0.0,0.0,0.0,0.0,0.0,0.0,0.0,0.0,0.0,0.0,0.0,0.0,0.0,0.0,0.0,0.0,0.0,0.0,0.0,0.0,0.0,0.0,0.0,0.0,0.0,0.0,0.0,0.0,0.0,0.0,0.0,0.0,0.0,0.0,0.0,0.0,0.0,0.0,0.0,0.0,0.0,0.0,0.0,0.0,0.0,0.0,0.0,0.0,0.0,0.0,0.0,0.0,0.0,0.0,0.0,0.0,0.0,0.0,0.0,0.0,0.0,0.0,0.0,0.0,0.0,0.0,0.0,0.0,0.0,0.0,0.0,0.0,0.0,0.0,0.0,0.0,0.0,0.0,0.0,0.0,0.0,0.0,0.0,0.0,0.0,0.0,0.0,0.0,0.0,0.0,0.0,0.0,0.0,0.0,0.0,0.0,0.0,0.0,0.0,0.0,0.0,0.0,0.0,0.0,0.0,0.0,0.0,0.0,0.0,0.0,0.0,0.0,0.0,0.0,0.0,0.0,0.0,0.0,0.0,0.0,0.0,0.0,0.0,0.0,0.0,0.0,0.0,0.0,0.0,0.0,0.0,0.0,0.0,0.0,0.0,0.0,0.0,0.0,0.0,0.0,0.0,0.0,0.0,0.0,0.0,0.0,0.0,0.0,0.0,0.0,0.0,0.0,0.0,0.0,0.0,0.0,0.0,0.0,0.0,0.0,0.0,0.0,0.0,0.0,0.0,0.0,0.0,0.0,0.0,0.0,0.0,0.0,0.0,0.0,0.0,0.0,0.0,0.0,0.0,0.0,0.0,0.0,0.0,0.0,0.0,0.0,0.0,0.0,0.0,0.0,0.0,0.0,0.0,0.0,0.0,0.0,0.0,0.0,0.0,0.0,0.0,0.0,0.0,0.0,0.0,0.0,0.0,0.0,0.0,0.0,0.0,0.0,0.0,0.0,0.0,0.0,0.0,0.0,0.0,0.0,0.0,0.0,0.0,0.0,0.0,0.0,0.0,0.0,0.0,0.0,0.0,0.0,0.0,0.0,0.0,0.0,0.0,0.0,0.0,0.0,0.0,0.0,0.0,0.0,0.0,0.0,0.0,0.0,0.0,0.0,0.0,0.0,0.0,0.0,0.0,0.0,0.0,0.0,0.0,0.0,0.0,0.0,0.0,0.0,0.0,0.0,0.0,0.0,0.0,0.0,0.0,0.0,0.0,0.0,0.0,0.0,0.0,0.0,0.0,0.0,0.0,0.0,0.0,0.0,0.0,0.0,0.0,0.0,0.0,0.0,0.0,0.0,0.0,0.0,0.0,0.0,0.0,0.0,0.0,0.0,0.0,0.0,0.0,0.0,0.0,0.0,0.0,0.0,0.0,0.0,0.0,0.0,0.0,0.0,0.0,0.0,0.0,0.0,0.0,0.0,0.0,0.0,0.0,0.0,0.0,0.0,0.0,0.0,0.0,0.0,0.0,0.0,0.0,0.0,0.0,0.0,0.0,0.0,0.0,0.0,0.0,0.0,0.0,0.0,0.0,0.0,0.0,0.0,0.0,0.0,0.0,0.0,0.0,0.0,0.0,0.0,0.0,0.0,0.0,0.0,0.0,0.0,0.0,0.0,0.0,0.0,0.0,0.0,0.0,0.0,0.0,0.0,0.0,0.0,0.0,0.0,0.0,0.0,0.0,0.0,0.0,0.0,0.0,0.0,0.0,0.0,0.0,0.0,0.0,0.0,0.0,0.0,0.0,0.0,0.0,0.0,0.0,0.0,0.0,0.0,0.0,0.0,0.0,0.0,0.0,0.0,0.0,0.0,0.0,0.0,0.0,0.0,0.0,0.0,0.0,0.0,0.0,0.0,0.0,0.0,0.0,0.0,0.0,0.0,0.0,0.0,0.0,0.0,0.0,0.0,0.0,0.0,0.0,0.0,0.0,0.0,0.0,0.0,0.0,0.0,0.0,0.0,0.0,0.0,0.0,0.0,0.0,0.0,0.0,0.0,0.0,0.0,0.0,0.0,0.0,0.0,0.0,0.0,0.0,0.0,0.0,0.0,0.0,0.0,0.0,0.0,0.0,0.0,0.0,0.0,0.0,0.0,0.0,0.0,0.0,0.0,0.0,0.0,0.0,0.0,0.0,0.0,0.0,0.0,0.0,0.0,0.0,0.0,0.0,0.0,0.0,0.0,0.0,0.0,0.0,0.0,0.0,0.0,0.0,0.0,0.0,0.0,0.0,0.0,0.0,0.0,0.0,0.0,0.0,0.0,0.0,0.0,0.0,0.0,0.0,0.0,0.0,0.0,0.0,0.0,0.0,0.0,0.0,0.0,0.0,0.0,0.0,0.0,0.0,0.0,0.0,0.0,0.0,0.0,0.0,0.0,0.0,0.0,0.0,0.0,0.0,0.0,0.0,0.0,0.0,0.0,0.0,0.0,0.0,0.0,0.0,0.0,0.0,0.0,0.0,0.0,0.0,0.0,0.0,0.0,0.0,0.0,0.0,0.0,0.0,0.0,0.0,0.0,0.0,0.0,0.0,0.0,0.0,0.0,0.0,0.0,0.0,0.0,0.0,0.0,0.0,0.0,0.0,0.0,0.0,0.0,0.0,0.0,0.0,0.0,0.0,0.0,0.0,0.0,0.0,0.0,0.0,0.0,0.0,0.0,0.0,0.0,0.0,0.0,0.0,0.0,0.0,0.0,0.0,0.0,0.0,0.0,0.0,0.0,0.0,0.0,0.0,0.0,0.0,0.0,0.0,0.0,0.0,0.0,0.0,0.0,0.0,0.0,0.0,0.0,0.0,0.0,0.0,0.0,0.0,0.0,0.0,0.0,0.0,0.0,0.0,0.0,0.0,0.0,0.0,0.0,0.0,0.0,0.0,0.0,0.0,0.0,0.0,0.0,0.0,0.0,0.0,0.0,0.0,0.0,0.0,0.0,0.0,0.0,0.0,0.0,0.0,0.0,0.0,0.0,0.0,0.0,0.0,0.0,0.0,0.0,0.0,0.0,0.0,0.0,0.0,0.0,0.0,0.0,0.0,0.0,0.0,0.0,0.0,0.0,0.0,0.0,0.0,0.0,0.0,0.0,0.0,0.0,0.0,0.0,0.0,0.0,0.0,0.0,0.0,0.0,0.0,0.0,0.0,0.0,0.0,0.0,0.0,0.0,0.0,0.0,0.0,0.0,0.0,0.0,0.0,0.0,0.0,0.0,0.0,0.0,0.0,0.0,0.0,0.0,0.0,0.0,0.0,0.0,0.0,0.0,0.0,0.0,0.0,0.0,0.0,0.0,0.0,0.0,0.0,0.0,0.0,0.0,0.0,0.0,0.0,0.0,0.0,0.0,0.0,0.0,0.0,0.0,0.0,0.0,0.0,0.0,0.0,0.0,0.0,0.0,0.0,0.0,0.0,0.0,0.0,0.0,0.0,0.0,0.0,0.0,0.0,0.0,0.0,0.0,0.0,0.0,0.0,0.0,0.0,0.0,0.0,0.0,0.0,0.0,0.0,0.0,0.0,0.0,0.0,0.0,0.0,0.0,0.0,0.0,0.0,0.0,0.0,0.0,0.0,0.0,0.0,0.0,0.0,0.0,0.0,0.0,0.0,0.0,0.0,0.0,0.0,0.0,0.0,0.0,0.0,0.0,0.0,0.0,0.0,0.0,0.0,0.0,0.0,0.0,0.0,0.0,0.0,0.0,0.0,0.0,0.0,0.0,0.0,0.0,0.0,0.0,0.0,0.0,0.0,0.0,0.0,0.0,0.0,0.0,0.0,0.0,0.0,0.0,0.0,0.0,0.0,0.0,0.0,0.0,0.0,0.0,0.0,0.0,0.0,0.0,0.0,0.0,0.0,0.0,0.0,0.0,0.0,0.0,0.0,0.0,0.0,0.0,0.0,0.0,0.0,0.0,0.0,0.0,0.0,0.0,0.0,0.0,0.0,0.0,0.0,0.0,0.0,0.0,0.0,0.0,0.0,0.0,0.0,0.0,0.0,0.0,0.0,0.0,0.0,0.0,0.0,0.0,0.0,0.0,0.0,0.0,0.0,0.0,0.0,0.0,0.0,0.0,0.0,0.0,0.0,0.0,0.0,0.0,0.0,0.0,0.0,0.0,0.0,0.0,0.0,0.0,0.0,0.0,0.0,0.0,0.0,0.0,0.0,0.0,0.0,0.0,0.0,0.0,0.0,0.0,0.0,0.0,0.0,0.0,0.0,0.0,0.0,0.0,0.0,0.0,0.0,0.0,0.0,0.0,0.0,0.0,0.0,0.0,0.0,0.0,0.0,0.0,0.0,0.0,0.0,0.0,0.0,0.0,0.0,0.0,0.0,0.0,0.0,0.0,0.0,0.0,0.0,0.0,0.0,0.0,0.0,0.0,0.0,0.0,0.0,0.0,0.0,0.0,0.0,0.0,0.0,0.0,0.0,0.0,0.0,0.0,0.0,0.0,0.0,0.0,0.0,0.0,0.0,0.0,0.0,0.0,0.0,0.0,0.0,0.0,0.0,0.0,0.0,0.0,0.0,0.0,0.0,0.0,0.0,0.0,0.0,0.0,0.0,0.0,0.0,0.0,0.0,0.0,0.0,0.0,0.0,0.0,0.0,0.0,0.0,0.0,0.0,0.0,0.0,0.0,0.0,0.0,0.0,0.0,0.0,0.0,0.0,0.0,0.0,0.0,0.0,0.0,0.0,0.0,0.0,0.0,0.0,0.0,0.0,0.0,0.0,0.0,0.0,0.0,0.0,0.0,0.0,0.0,0.0,0.0,0.0,0.0,0.0,0.0,0.0,0.0,0.0,0.0,0.0,0.0,0.0,0.0,0.0,0.0,0.0,0.0,0.0,0.0,0.0,0.0,0.0,0.0,0.0,0.0,0.0,0.0,0.0,0.0,0.0,0.0,0.0,0.0,0.0,0.0,0.0,0.0,0.0,0.0,0.0,0.0,0.0,0.0,0.0,0.0,0.0,0.0,0.0,0.0,0.0,0.0,0.0,0.0,0.0,0.0,0.0,0.0,0.0,0.0,0.0,0.0,0.0,0.0,0.0,0.0,0.0,0.0,0.0,0.0,0.0,0.0,0.0,0.0,0.0,0.0,0.0,0.0,0.0,0.0,0.0,0.0,0.0,0.0,0.0,0.0,-3.9766,0.0,0.0,0.0,0.0,0.0,0.0,0.0,0.0,0.0,0.0,0.0,0.0,0.0,0.0,0.0,0.0,0.0,0.0,0.0,0.0,0.0,0.0,0.0,0.0,0.0,0.0,0.0,0.0,0.0,0.0,0.0,0.0,0.0,0.0,0.0,0.0,0.0,0.0,3.5559,3.4324,3.3114,3.2059,3.0659,2.924,2.7861,0.0,0.0,0.0,0.0,0.0,0.0,0.0,0.0,0.0,0.0,0.0,0.0,0.0,0.0,0.0,0.0,0.0,0.0,0.0,0.0,0.0,0.0,0.0,0.0,0.0,0.0,0.0,0.0,0.0,0.0,0.0,0.0,0.0,0.0,0.0,0.0,0.0,0.0,0.0,0.0,0.0,0.0,0.0,0.0,0.0,0.0,0.0,0.0,0.0,0.0,0.0,0.0,0.0,0.0,0.0,0.0,0.0,0.0,0.0,0.0,0.0,0.0,0.0,0.0,0.0,0.0,0.0,0.0,0.0,0.0,0.0,-3.9502,0.0,0.0,0.0,0.0,0.0,0.0,0.0,0.0,0.0,0.0,0.0,0.0,0.0,0.0,0.0,0.0,0.0,0.0,0.0,0.0,0.0,0.0,0.0,0.0,0.0,0.0,0.0,0.0,0.0,0.0,0.0,0.0,0.0,0.0,0.0,3.5496,3.5088,3.5015,3.3298,3.1847,3.0597,2.8223,2.7529,2.8093,2.6094,0.0,0.0,0.0,0.0,0.0,0.0,0.0,0.0,0.0,0.0,0.0,0.0,0.0,0.0,0.0,0.0,0.0,0.0,0.0,0.0,0.0,0.0,0.0,0.0,0.0,0.0,0.0,0.0,0.0,0.0,0.0,0.0,0.0,0.0,0.0,0.0,0.0,0.0,0.0,0.0,0.0,0.0,0.0,0.0,0.0,0.0,0.0,0.0,0.0,0.0,0.0,0.0,0.0,0.0,0.0,0.0,0.0,0.0,0.0,0.0,0.0,0.0,0.0,0.0,-4.1803,-4.1475,-4.1374,-4.0836,-4.0015,-3.8766,-3.8834,-3.9804,0.0,0.0,0.0,0.0,0.0,0.0,0.0,0.0,0.0,0.0,0.0,0.0,0.0,0.0,0.0,0.0,0.0,0.0,0.0,0.0,0.0,0.0,4.3933,4.3365,4.2466,4.152,4.077,0.0,0.0,0.0,0.0,0.0,0.0,3.5639,3.5331,3.5009,3.474,3.2593,3.1091,3.0228,2.7382,2.6055,2.6191,2.5401,2.4047,2.2227,0.0,0.0,0.0,0.0,0.0,0.0,0.0,0.0,0.0,0.0,0.0,0.0,0.0,0.0,0.0,0.0,0.0,0.0,0.0,0.0,0.0,0.0,0.0,0.0,0.0,0.0,0.0,0.0,0.0,0.0,0.0,0.0,0.0,0.0,0.0,0.0,0.0,0.0,0.0,0.0,0.0,-0.524,-0.5222,0.0,0.0,0.0,0.0,0.0,0.0,0.0,0.0,0.0,0.0,0.0,0.0,0.0,0.0,-4.4181,-4.3087,-4.2474,-4.2317,-4.1225,-4.0593,-4.0261,-4.0191,-3.998,-3.9481,-3.9128,0.0,-3.9466,-3.8986,0.0,0.0,0.0,0.0,0.0,0.0,0.0,0.0,0.0,0.0,0.0,0.0,0.0,0.0,0.0,0.0,0.0,0.0,0.0,0.0,0.0,4.4292,4.392,4.3269,4.265,4.2032,4.141,0.0,0.0,0.0,0.0,3.714,3.6165,3.5769,3.4893,3.372,3.2374,3.1061,2.9838,2.7725,2.6282,2.5362,2.4675,2.3317,2.1548,2.1718,0.0,0.0,0.0,0.0,0.0,0.0,0.0,0.0,0.0,0.0,0.0,0.0,0.0,0.0,0.0,0.0,0.0,0.0,0.0,0.0,0.0,0.0,0.0,0.0,0.0,0.0,0.0,0.0,0.0,0.0,0.0,0.0,0.0,0.0,0.0,0.0,0.0,0.0,0.0,-0.9843,-0.6,-1.3696,-0.1919,0.3783,0.0,0.0,0.0,0.0,0.0,0.0,0.0,0.0,0.0,-2.8607,-3.879,-4.4037,-4.3449,-4.2412,-4.19,-4.1785,-4.0919,-4.0331,-4.0011,-4.0011,-3.9783,-3.9352,-3.9104,-3.8943,-3.9031,-3.887,-3.8943,-3.9162,0.0,0.0,0.0,0.0,0.0,-3.7056,0.0,0.0,0.0,0.0,0.0,0.0,0.0,0.0,0.0,0.0,0.0,0.0,4.3233,4.33,4.3144,4.281,4.2859,4.2686,4.2106,4.1434,0.0,0.0,3.926,3.8357,3.7207,3.6491,3.5394,3.3779,3.3017,3.1807,3.0266,2.8621,2.6985,2.5495,2.4537,2.2884,2.0861,2.0553,1.9174,1.7267,0.0,0.0,0.0,0.0,0.0,0.0,0.0,0.0,0.0,0.0,0.0,0.0,0.0,0.0,0.0,0.0,0.0,0.0,0.0,0.0,0.0,0.0,0.0,0.0,0.0,0.0,0.0,0.0,0.0,0.0,0.0,0.0,0.0,0.0,0.0,0.0,0.0,-1.8583,-1.2862,-2.296,-0.9316,-0.3163,0.0,0.0,0.0,0.0,0.0,0.0,-1.5842,-2.6174,-3.1853,-3.1282,-3.9125,-4.3096,-4.2618,-4.1916,-4.1522,-4.139,-4.073,-4.0261,-3.9925,-3.9925,-3.9696,-3.9337,-3.9017,-3.8797,-3.8723,-3.8649,-3.8649,-3.8649,-3.8441,-3.8366,-3.8366,-3.7613,-3.7139,-3.6678,0.0,0.0,0.0,0.0,0.0,0.0,0.0,0.0,0.0,0.0,0.0,3.7716,3.9725,4.0103,4.0229,4.0279,4.1434,4.2106,4.2009,4.2082,4.192,4.151,4.0471,3.9593,3.8887,3.7705,3.6826,3.612,3.4807,3.3388,3.1834,2.991,2.8179,2.6682,2.5714,2.2978,1.9067,1.8671,1.6762,1.412,1.3948,0.0,0.0,0.0,0.0,0.0,0.0,0.0,0.0,0.0,0.0,0.0,0.0,0.0,0.0,0.0,0.0,0.0,0.0,0.0,0.0,0.0,0.0,0.0,0.0,0.0,0.0,0.0,0.0,0.0,0.0,0.0,0.0,0.0,0.0,0.0,0.0,0.0,0.0,-3.2662,-2.4059,0.0,0.0,0.0,0.0,-1.0454,-2.0478,-2.6553,-2.6677,-3.6687,-4.2366,-4.2288,-4.2393,-4.2302,-4.1852,-4.1704,-4.1323,-4.0867,-4.047,-4.0121,-3.9696,-3.9696,-3.9466,-3.9104,-3.9104,-3.8885,-3.8516,-3.8277,-3.8202,-3.8202,-3.8005,-3.7687,-3.736,-3.748,-3.6948,-3.6273,0.0,0.0,0.0,0.0,0.0,0.0,0.0,0.0,0.0,3.2315,3.2518,3.3045,3.448,3.4665,3.5335,3.6934,3.7381,3.8282,3.9898,4.0818,4.1265,4.1224,4.1836,4.1846,4.106,3.9756,3.8879,3.8434,3.6975,3.541,3.3848,3.1631,3.0074,2.9135,2.7937,2.5766,2.2882,1.9812,1.7196,1.4865,1.133,0.884,0.0,0.0,0.0,0.0,0.0,0.0,0.0,0.0,0.0,0.0,0.0,0.0,0.0,0.0,0.0,0.0,0.0,0.0,0.0,0.0,0.0,0.0,0.0,0.0,0.0,0.0,0.0,0.0,0.0,0.0,0.0,0.0,0.0,0.0,0.0,0.0,0.0,-3.1701,-2.4034,0.0,-3.1534,-2.3186,-2.0746,-2.9301,-3.3245,-3.5689,-3.6626,-4.0143,-4.2061,-4.2158,-4.198,-4.1704,-4.126,-4.1008,-4.0836,-4.0631,-4.0261,-3.998,-3.9696,-3.9989,-3.9979,-3.9788,-3.9873,-3.9759,-3.9542,-3.9295,-3.8957,-3.8534,-3.8337,-3.8201,-3.7972,-3.7261,-3.6824,-3.6596,0.0,0.0,0.0,0.0,0.0,0.0,0.0,0.0,0.0,2.6952,2.6793,2.7053,2.8664,2.8958,2.9905,3.2057,3.2902,3.4287,3.6575,3.8175,3.92,3.9607,4.0859,4.1121,4.0234,3.9816,3.9661,3.9725,3.8694,3.7634,3.6465,3.483,3.3622,3.2859,3.1924,3.0446,2.8316,2.2767,1.8604,1.5074,0.7533,0.36,0.1578,0.0,0.0,0.0,0.0,0.0,0.0,0.0,0.0,0.0,0.0,0.0,0.0,0.0,0.0,0.0,0.0,0.0,0.0,0.0,0.0,0.0,0.0,0.0,0.0,0.0,0.0,0.0,0.0,0.0,0.0,0.0,0.0,0.0,0.0,0.0,-2.9676,-3.0879,-2.6161,-2.6378,-3.5459,-3.0362,-3.0089,-3.8731,-3.9068,-3.9567,-4.1198,-4.0946,-4.0977,-4.1358,-4.1307,-4.1039,-4.0699,-4.0547,-4.0462,-4.0481,-4.0243,-4.0076,-3.9921,-4.0293,-4.0275,-4.0,-4.01,-4.0054,-3.9859,-3.9724,-3.9392,-3.8942,-3.8599,-3.8284,-3.7865,-3.7316,-3.7037,-3.6801,0.0,0.0,0.0,0.0,0.0,0.0,0.0,0.0,1.8715,2.1305,2.0104,1.9963,2.2438,2.3063,2.397,2.5724,2.8066,3.0261,3.2149,3.4136,3.5729,3.6734,3.7385,3.726,3.626,3.7753,3.8957,3.9831,3.9766,3.9573,3.9248,3.9073,3.8445,3.7404,3.7298,3.64,3.4497,2.6982,2.0605,1.4676,0.2838,-0.2007,-0.2735,0.0,0.0,0.0,0.0,0.0,0.0,0.0,0.0,0.0,0.0,0.0,0.0,0.0,0.0,0.0,0.0,0.0,0.0,0.0,0.0,0.0,0.0,0.0,0.0,0.0,0.0,0.0,0.0,0.0,0.0,0.0,0.0,0.0,-2.8679,-2.8734,-2.9116,-3.0885,-3.148,-3.2216,-3.339,-3.4682,-3.5691,-3.6606,-3.6991,-3.806,-4.0071,-3.9586,-3.9773,-4.0857,-4.0631,-4.0331,-4.0026,-4.0347,-4.0472,-4.0427,-4.0427,-4.0366,-4.0432,-4.0446,-4.0226,-3.9845,-3.9859,-3.9728,-3.9558,-3.948,-3.9381,-3.9325,-3.8741,-3.7822,-3.695,-3.7462,-3.7395,-3.7026,0.0,0.0,0.0,0.0,0.0,0.0,0.0,1.6129,1.5611,1.5792,1.5518,1.5304,1.5484,1.6472,1.7869,1.9799,2.1419,2.3675,2.6767,2.8904,3.1292,3.4287,3.4013,3.4169,3.5066,3.4866,3.5251,3.6216,3.4773,3.4578,3.5506,3.319,3.2591,3.3345,3.2357,3.1058,2.9248,2.3566,1.9626,1.6258,0.5485,0.2902,0.4289,0.0,0.0,0.0,0.0,0.0,0.0,0.0,0.0,0.0,0.0,0.0,0.0,0.0,0.0,0.0,0.0,0.0,0.0,0.0,0.0,0.0,0.0,0.0,0.0,0.0,0.0,0.0,0.0,0.0,0.0,0.0,0.0,-2.5266,-2.6255,-2.6709,-2.7327,-2.8028,-2.8936,-3.0168,-3.1869,-3.2092,-3.311,-3.5399,-3.5022,-3.5332,-3.6943,-3.7348,-3.7846,-3.8414,-3.9432,-3.9965,-3.9832,-4.0278,-4.0514,-4.0645,-4.0338,-4.0271,-4.0368,-4.0517,-4.0573,-4.044,-4.0832,-4.0603,-4.0083,-4.0081,-3.9559,-3.8782,-3.862,-3.8376,-3.8047,-3.7872,-3.7652,-3.739,0.0,0.0,0.0,0.0,0.0,0.0,0.0,1.3692,1.2909,1.2592,1.2302,1.2007,1.1419,1.2582,1.3987,1.5758,1.7291,1.9274,2.1968,2.4016,2.6154,2.8345,2.8598,2.9063,2.9881,3.0041,3.0741,3.1938,3.1099,3.1493,3.3003,3.1462,3.1518,3.2887,3.1897,3.0843,2.9413,2.4148,2.1624,2.0314,1.0016,0.54,0.3808,-0.4292,-0.3906,0.0321,-0.4432,-0.3285,0.0913,0.3088,0.0,0.0,0.0,0.0,0.0,0.0,0.0,0.0,0.0,0.0,0.0,0.0,0.0,0.0,0.0,0.0,0.0,0.0,0.0,0.0,0.0,0.0,0.0,0.0,-2.4913,-2.4538,-2.4735,-2.5509,-2.6177,-2.6658,-2.741,-2.8495,-2.9988,-3.0045,-3.0831,-3.2769,-3.2746,-3.3348,-3.5096,-3.6183,-3.6976,-3.741,-3.8824,-3.9538,-3.9275,-3.9729,-4.0234,-4.0683,-4.0445,-4.0334,-4.0335,-4.0459,-4.0378,0.0,-4.0618,-4.043,-3.9881,-3.9881,-3.9367,0.0,0.0,0.0,0.0,0.0,-3.7703,-3.7505,0.0,0.0,0.0,0.0,0.0,0.0,0.0,0.0,1.0792,1.0663,1.0194,0.9715,0.9312,1.0485,1.1745,1.2898,1.4721,1.6324,1.778,1.947,2.0572,2.0855,2.2141,2.2824,2.2852,2.4245,2.5666,2.7046,2.7687,2.8891,3.0517,3.1051,3.192,3.3013,3.2611,3.2085,3.1083,2.5848,2.4126,2.413,1.5023,0.7341,0.1197,-0.0356,-0.0249,0.1513,0.7446,0.9718,1.0207,1.2252,0.0,0.0,0.0,0.0,0.0,0.0,0.0,0.0,0.0,0.0,0.0,0.0,0.0,0.0,0.0,0.0,0.0,0.0,0.0,0.0,0.0,0.0,0.0,0.0,-2.3809,-2.39,-2.4044,-2.4735,-2.5518,-2.6264,-2.6562,-2.7146,-2.8102,-2.8416,-2.8883,-2.9622,-3.058,-3.1925,-3.3784,0.0,0.0,0.0,0.0,-3.8945,-3.8588,-3.9194,-3.9875,-4.0707,-4.0553,-4.0462,-4.0215,-4.0215,-3.9881,-3.9305,-3.9733,-3.9645,-3.9216,-3.9216,-3.8948,-3.8512,-3.8512,-3.8253,-3.79,-3.79,-3.7703,0.0,0.0,0.0,0.0,0.0,0.0,0.0,0.0,0.0,1.0006,0.7915,0.8418,0.8524,0.7129,0.8216,0.9197,0.9686,1.1736,1.3663,1.5246,1.4905,1.5437,1.7328,1.6943,1.7567,1.9577,1.969,2.028,2.1358,2.1368,2.2197,2.367,2.3408,2.3564,2.4033,2.4148,2.35,2.2208,1.9769,1.8883,1.8835,1.6454,1.4704,1.2999,0.8841,0.8953,1.1457,1.2115,1.3197,1.4305,1.4288,1.4237,1.4335,1.53,1.6101,0.0,0.0,0.0,0.0,0.0,0.0,0.0,0.0,0.0,0.0,0.0,0.0,0.0,0.0,0.0,0.0,0.0,0.0,0.0,-2.4122,-2.4233,-2.4115,-2.389,-2.4341,-2.4824,-2.5118,-2.5421,-2.5897,-2.6754,-2.7359,-2.8145,-2.9091,-2.9833,-3.0555,-3.1088,-3.2381,0.0,-3.4061,-3.6573,-3.8158,-3.8641,-3.9727,-4.041,-4.0757,0.0,0.0,-3.9692,-3.9543,-3.938,-3.9305,-3.9394,-3.9127,-3.8782,-3.8782,-3.8421,-3.8083,-3.8083,-3.7992,-3.79,-3.7703,-3.7413,-3.7108,0.0,0.0,0.0,0.0,0.0,0.0,0.0,0.0,0.9521,0.7633,0.7992,0.8039,0.6628,0.7733,0.8535,0.8732,1.0435,1.2037,1.2984,1.2399,1.248,1.3814,1.3753,1.4333,1.5644,1.6129,1.6497,1.7037,1.7479,1.8175,1.9239,1.9431,1.9886,2.0419,2.0336,1.982,1.8858,1.8108,1.7456,1.7066,1.7086,1.6895,1.6393,1.4442,1.4288,1.5176,1.5433,1.5731,1.5978,1.6361,1.6175,1.5929,1.6874,1.6914,1.6872,0.0,0.0,0.0,0.0,0.0,0.0,0.0,0.0,0.0,0.0,0.0,0.0,0.0,0.0,-2.7396,0.0,0.0,-2.4248,-2.3967,-2.4204,-2.4186,-2.3481,-2.4316,-2.4978,-2.4964,-2.5235,-2.5708,-2.6408,-2.6933,-2.7462,-2.8136,-2.8936,-2.9661,-3.0342,-3.1875,-3.2873,-3.333,-3.6158,-3.7705,-3.78,-3.9308,-4.0146,-4.0489,-3.9725,-3.9275,-3.9157,-3.8772,-3.8381,-3.82,-3.8575,-3.8498,-3.8057,-3.8161,-3.807,-3.7703,-3.7703,-3.7703,-3.7703,-3.7413,-3.7108,-3.6909,0.0,0.0,0.0,0.0,0.0,0.0,0.0,0.0,0.0,0.7839,0.8062,0.7945,0.6722,0.7536,0.8337,0.8509,0.9486,1.0386,1.117,1.0485,1.0288,1.0877,1.1365,1.1853,1.2237,1.3216,1.3709,1.3613,1.4594,1.5233,1.5731,1.678,1.7764,1.8368,1.834,1.8074,1.7592,1.7865,1.7472,1.6881,1.7385,1.7278,1.6874,1.7774,1.7296,1.6286,1.769,1.7519,1.6961,1.8081,1.7725,1.7015,1.8069,1.7736,1.7171,1.8039,1.8318,0.0,0.0,0.0,0.0,0.0,0.0,0.0,0.0,0.0,-1.3232,-2.7665,-3.0034,-2.854,-2.5404,-2.4932,-2.4832,-2.4008,-2.4315,-2.4281,-2.3471,-2.4417,-2.5271,-2.5098,-2.5312,-2.5701,-2.634,-2.667,-2.6924,-2.7231,-2.8269,-2.9188,-3.0036,-3.1717,-3.2752,-3.2899,-3.5659,-3.7042,-3.6864,-3.8608,-3.962,-4.0073,-3.9387,-3.8871,-3.8496,-3.7898,-3.7453,-3.7108,-3.7756,-3.7756,-3.7413,-3.7703,-3.7611,-3.7413,-3.74,-3.7307,-3.7307,-3.7108,-3.6909,-3.6722,0.0,0.0,0.0,0.0,0.0,0.0,0.0,0.0,0.0,0.6933,0.7958,0.8357,0.6722,0.6722,0.7283,0.8354,0.7739,0.8028,0.9706,0.8226,0.8028,0.9702,0.9608,0.9895,1.0663,1.1263,1.1463,1.117,1.1865,1.2269,1.2377,1.3863,1.4736,1.486,1.6013,1.6561,1.6486,1.7088,1.7292,1.7187,1.7705,1.8018,1.8213,1.8651,1.7886,1.6887,1.839,1.8581,1.8304,1.8809,1.8599,1.822,1.8359,1.9494,2.0515,1.962,2.0562,2.2013,2.2215,2.342,1.9229,-0.2819,0.0713,0.2157,0.0,0.0,-2.0163,-2.62,-2.7375,-2.6794,-2.5409,-2.4755,-2.4576,-2.529,-2.5228,-2.4907,-2.4395,-2.4691,-2.4948,-2.505,-2.5309,-2.5524,-2.5891,-2.6218,-2.6529,-2.6855,-2.8165,-2.8957,-2.9055,-3.0176,-3.0977,-3.1418,-3.3915,-3.563,-3.6388,-3.8301,-3.9344,-3.9603,-3.855,-3.8036,-3.7928,-3.7458,-3.7108,-3.7108,-3.7201,-3.7201,-3.7108,-3.7214,-3.7214,-3.7108,-3.6909,-3.6815,-3.6815,-3.6722,-3.6722,-3.6722,0.0,0.0,0.0,0.0,0.0,0.0,0.0,0.0,0.0,0.0,0.0,0.7676,0.6821,0.6725,0.7191,0.8376,0.0,0.0,0.9019,0.7637,0.7238,0.8127,0.852,0.9008,0.9489,1.0275,1.0769,1.0779,1.1066,1.1466,1.1798,1.2519,1.2949,1.3181,1.3938,1.4696,1.5339,1.5879,1.653,1.7179,1.7589,1.7905,1.822,1.8541,1.8379,1.8147,1.8971,1.9256,0.0,1.966,1.945,1.9257,1.9672,1.9768,1.965,2.0055,2.0467,2.1073,2.2391,2.3809,2.0652,0.0,0.3259,0.1082,-2.2865,-2.4296,-2.2469,-2.8757,-2.9354,-2.8409,-2.7292,-2.6426,-2.5892,0.0,-2.573,-2.5306,-2.448,-2.5049,-2.5361,-2.4749,-2.518,-2.5631,-2.5961,-2.6313,-2.6732,-2.7201,-2.7967,-2.8588,-2.9096,-2.9731,-3.0595,-3.1952,-3.3878,-3.5517,-3.6744,-3.8252,-3.9013,-3.9091,-3.8203,-3.7774,-3.7748,-3.7045,-3.6734,-3.6909,-3.6909,-3.6922,-3.7108,-3.7108,-3.7015,-3.6815,-3.6722,-3.6628,-3.6534,-3.6534,-3.6534,-3.6546,0.0,0.0,0.0,0.0,0.0,0.0,0.0,0.0,0.0,0.0,0.0,0.0,0.0,0.0,0.7276,0.0,0.0,0.0,0.0,0.7637,0.7039,0.7238,0.773,0.8021,0.8117,0.9,0.9592,0.9698,0.9778,1.0165,1.0763,1.1164,1.1572,1.1978,1.2526,1.3285,1.4148,1.4578,1.5553,1.6842,1.716,1.7687,1.8233,1.8436,1.875,1.9071,1.9783,1.9983,2.0181,2.0593,2.0395,2.0094,2.0719,2.0189,1.945,2.038,2.0364,2.0554,2.2576,2.3881,0.0,0.645,0.297,-0.2214,-2.2424,-2.6439,-2.7294,-3.2015,-3.1739,-3.0231,-2.9085,-2.7825,-2.6896,-2.6491,-2.6263,-2.58,-2.4754,-2.5392,-2.5569,-2.4565,-2.5017,-2.5622,-2.5949,-2.6289,-2.6738,-2.716,-2.7828,-2.8437,-2.9057,-2.9526,-3.0508,-3.227,-3.3722,-3.5178,-3.6858,-3.7962,-3.8558,-3.862,-3.7888,-3.7357,-3.7283,-3.6618,-3.6358,-3.6546,-3.6628,-3.6734,-3.6841,-3.6841,-3.6815,-3.6628,-3.6628,-3.6534,-3.6358,-3.6358,-3.6358,-3.6358,0.0,0.0,0.0,0.0,0.0,0.0,0.0,0.0,0.0,0.0,0.0,0.0,0.0,0.0,0.0,0.0,0.0,0.0,0.0,0.7932,0.7431,0.7238,0.6942,0.6742,0.6434,0.7036,0.7138,0.6942,0.7379,0.7823,0.8279,0.958,1.0389,1.0781,1.1869,1.2635,1.2965,1.329,1.4363,1.5968,1.6187,1.7371,1.8869,1.8869,1.9078,1.948,2.1089,2.0987,2.0388,2.1912,2.1725,2.0917,2.0917,2.1224,2.1522,2.0987,2.1089,2.1582,2.3185,2.4267,1.9519,-0.2691,-0.7065,-1.163,-3.3577,-3.8147,-3.7166,-3.4961,-3.3267,-3.1703,-3.0109,-2.8242,-2.7098,-2.7305,-2.6663,-2.6008,-2.567,-2.5679,-2.5467,-2.4812,-2.4821,-2.507,0.0,-2.6151,-2.6282,-2.6291,-2.7567,-2.837,-2.8397,-2.9343,-3.048,-3.1747,-3.2964,-3.4403,-3.6185,-3.7418,-3.8061,-3.8091,-3.7501,-3.696,-3.6432,-3.6168,-3.6015,-3.6015,-3.6275,-3.6275,-3.6015,-3.6275,-3.6465,-3.6452,-3.6452,-3.6452,-3.6358,-3.6358,-3.6358,-3.6358,0.0,0.0,0.0,0.0,0.0,0.0,0.0,0.0,0.0,0.0,0.0,0.0,0.0,0.0,0.0,0.0,0.0,0.0,0.0,0.9489,0.8598,0.8021,0.7033,0.6537,0.6437,0.6537,0.6739,0.6845,0.6782,0.7071,0.7723,0.8486,0.9062,0.9435,1.0304,1.1332,1.2635,1.3275,1.4567,1.6293,1.7047,1.7799,1.8338,1.8764,1.8974,1.9279,0.0,2.0885,2.0285,2.1794,2.1607,2.0925,2.0925,2.1224,2.1818,2.2316,2.3302,2.4384,2.5266,2.6061,2.1088,-0.1268,-0.6535,-1.2029,-3.4049,-3.9003,-3.8281,-3.6084,-3.4661,-3.3504,-3.2342,-3.011,-2.8455,-2.8465,-2.7314,-2.6245,-2.5798,-2.5688,-2.5467,-2.4821,-2.5035,0.0,0.0,0.0,0.0,-2.7027,-2.7643,-2.8147,-2.8428,-2.903,-3.0363,-3.2633,-3.3077,-3.4414,-3.6773,-3.7227,-3.731,-3.702,-3.6428,-3.6001,-3.5891,-3.5803,-3.5716,-3.5716,-3.58,-3.5908,-3.6015,-3.6098,-3.6275,-3.6358,-3.6358,-3.6358,-3.6358,-3.6358,-3.6358,-3.6358,0.0,0.0,0.0,0.0,0.0,0.0,0.0,0.0,0.0,0.0,0.0,0.0,0.0,0.0,0.0,0.0,0.0,0.0,0.0,0.0,0.9567,0.8795,0.7226,0.6537,0.6833,0.6537,0.6637,0.7039,0.6637,0.6701,0.7346,0.7638,0.8174,0.8849,0.9327,1.0373,1.1887,1.2493,1.403,1.6074,1.6922,1.7681,1.8541,1.8966,1.9175,0.0,2.0885,2.0893,2.0395,2.1692,2.1497,2.0822,2.0822,2.142,2.2224,2.3129,2.4214,2.5187,2.636,2.6754,2.1555,-0.0418,-0.6179,-1.2357,-3.458,-3.96,-3.9047,-3.7206,-3.59,-3.4788,-3.3487,-3.1214,-2.9452,-2.9187,-2.7618,-2.6245,-2.5798,-2.5569,-2.5357,-2.4821,-2.5146,-2.542,0.0,0.0,0.0,-2.7046,-2.7685,-2.8119,-2.8259,-2.8746,-3.0236,-3.284,-3.2964,-3.4202,-3.6916,-3.6741,-3.6414,-3.5815,-3.5349,-3.5258,-3.532,-3.5416,-3.5428,-3.5416,-3.5524,-3.5716,-3.5812,-3.592,-3.6193,-3.6358,-3.6358,-3.6358,-3.6358,-3.6358,-3.6358,-3.6358,0.0,0.0,0.0,0.0,0.0,0.0,0.0,0.0,0.0,0.0,0.0,0.0,0.0,0.0,0.0,0.0,0.0,0.0,0.0,0.0,0.0,0.9563,0.7515,0.6833,0.7531,0.6833,0.6734,0.7531,0.6734,0.66,0.703,0.7138,0.7827,0.8905,0.9172,0.9896,1.0885,1.1054,1.2847,1.5417,1.5725,1.7219,1.9383,1.9576,1.968,1.9879,2.1183,2.1097,2.0617,2.1794,2.1404,2.0617,2.0917,2.1725,2.2728,2.3529,2.3809,2.4285,2.636,2.6114,2.0229,-0.0669,-0.6869,-1.3539,-3.5558,-4.0445,-3.9816,-3.8209,-3.7086,-3.5722,0.0,0.0,-3.0398,-2.9482,-2.7599,-2.6118,-2.5789,-2.545,-2.5119,0.0,0.0,0.0,0.0,0.0,0.0,-2.6516,0.0,-2.8277,-2.802,-2.8618,-3.0001,-3.2499,-3.2613,-3.3845,-3.6557,-3.6154,-3.5503,-3.4804,-3.4485,-3.4531,-3.4823,-3.503,-3.5223,-3.5223,-3.5416,-3.562,-3.562,-3.592,-3.6098,-3.6358,-3.6358,-3.6358,-3.6358,-3.6358,-3.6358,-3.637,0.0,0.0,0.0,0.0,0.0,0.0,0.0,0.0,0.0,0.0,0.0,0.0,0.0,0.0,0.0,0.0,0.0,0.0,0.0,0.0,0.0,0.0,0.812,0.7132,0.6734,0.6534,0.6534,0.6734,0.6534,0.6453,0.6589,0.8197,0.8947,0.901,1.0441,1.1134,1.1389,1.2191,1.3501,1.5221,1.6274,1.7772,1.9383,1.9576,1.9776,2.0086,2.0388,2.0388,2.0395,2.1912,2.192,2.1522,2.1928,2.2828,2.3728,2.4134,2.5099,2.6157,2.6754,2.0991,1.154,-0.2399,-1.2935,-2.3474,-3.7691,-4.0792,-4.0413,-3.9366,-3.8496,-3.756,0.0,0.0,0.0,-3.2208,-2.9442,0.0,-2.6961,-2.5981,0.0,-2.4821,0.0,-2.5128,-2.5219,-2.6049,0.0,0.0,-2.7108,-2.7762,-2.7642,-2.8011,-2.9303,-3.1612,-3.2062,-3.3258,-3.5154,-3.4726,-3.4565,-3.4804,-3.441,-3.4359,-3.4823,-3.4835,-3.492,-3.4932,-3.4932,-3.5126,-3.532,-3.562,-3.5908,-3.6098,-3.637,-3.6358,-3.6358,-3.6193,-3.6098,-3.6003,0.0,0.0,0.0,0.0,0.0,0.0,0.0,0.0,0.0,0.0,0.0,0.0,0.0,0.0,0.0,0.0,0.0,0.0,0.0,0.0,0.0,1.0672,0.8711,0.7531,0.7431,0.6734,0.6534,0.6933,0.6534,0.6437,0.6437,0.7607,0.8498,0.9309,1.0095,1.1072,1.1939,1.2331,1.3469,0.0,0.0,1.7555,1.8952,1.9472,1.9776,1.9879,1.9879,2.0086,2.0395,0.0,0.0,2.1928,2.2526,2.3329,2.4223,2.4815,0.0,2.5533,2.0924,1.5361,0.698,-0.9402,-1.8934,-2.7238,-3.8663,-4.1105,-4.0784,-4.0003,-3.9312,-3.8535,-3.7335,0.0,0.0,0.0,0.0,0.0,-2.706,-2.5881,-2.4915,0.0,-2.4786,0.0,-2.4994,-2.5894,-2.6449,0.0,-2.7289,-2.7642,-2.7521,-2.8241,-2.9422,-3.1285,-3.1775,-3.2712,-3.4011,-3.3774,-3.3788,-3.4186,-3.4106,-3.4261,-3.4457,-3.4738,-3.4823,-3.4823,0.0,-3.4932,-3.5223,-3.5512,-3.5716,-3.5812,-3.6098,-3.6181,-3.5991,-3.5908,-3.5812,-3.5716,0.0,0.0,0.0,0.0,0.0,0.0,0.0,0.0,0.0,0.0,0.0,0.0,0.0,0.0,0.0,0.0,0.0,0.0,0.0,0.0,0.0,0.0,0.93,0.8226,0.8825,0.7332,0.6933,0.763,0.6833,0.6437,0.6437,0.6534,0.7084,0.7885,0.8937,0.9907,1.0631,1.1765,1.3246,1.4723,1.5692,1.6963,1.8471,0.0,1.9576,1.9783,1.9783,2.0101,2.0514,2.0514,2.1326,2.2325,2.2728,2.3529,2.4141,2.3584,2.3647,2.1613,1.1074,0.7243,0.1615,-1.8029,-2.4569,-2.8899,-3.8986,-4.0966,-4.0617,-4.0218,-3.9577,-3.8652,-3.7335,-3.5734,-3.4255,-3.2733,0.0,-2.7375,-2.6844,-2.556,-2.4487,-2.4033,-2.44,-2.4711,-2.4877,-2.5365,-2.6147,-2.6943,-2.7539,-2.7771,-2.7401,-2.8591,-2.9855,-3.1311,-3.1738,-3.2306,-3.3205,-3.3126,-3.3186,-3.3381,-3.3779,-3.4075,-3.4162,-3.4543,-3.4738,-3.4823,0.0,0.0,-3.5126,-3.5416,-3.5524,-3.562,-3.5812,-3.5812,-3.562,-3.5524,-3.5524,-3.5524,0.0,0.0,0.0,0.0,0.0,0.0,0.0,0.0,0.0,0.0,0.9075,0.5715,0.0,0.0,0.0,0.0,0.0,0.0,0.0,0.0,0.0,0.0,0.9817,0.9324,0.8825,0.7829,0.7431,0.763,0.6833,0.6437,0.6437,0.7524,0.4645,-0.1009,0.7602,0.77,0.2057,0.9875,1.3724,1.4645,1.4804,1.6264,1.8373,1.831,0.0,0.0,2.0308,2.0514,2.0822,2.0822,2.1725,2.2828,2.2828,2.3935,2.3302,1.4353,1.2177,1.0442,-0.0172,-0.9654,-1.733,-2.0471,-2.8947,-3.7171,-3.9276,-3.9396,0.0,0.0,-3.8792,-3.7808,-3.6951,-3.5986,-3.4921,-3.3575,-3.0792,0.0,0.0,0.0,-2.4144,0.0,-2.3723,-2.3286,0.0,0.0,0.0,0.0,0.0,0.0,-2.7185,-2.8131,-2.9479,-3.141,-3.1506,-3.2081,-3.3193,-3.2768,-3.2925,-3.3679,-3.3679,-3.3965,-3.4347,-3.4433,-3.4628,-3.4823,0.0,0.0,-3.492,-3.5126,-3.5223,-3.532,-3.5524,-3.562,-3.562,-3.532,-3.5223,-3.5223,0.0,0.0,0.0,0.0,0.0,0.0,0.0,1.0355,0.9719,1.0,0.651,0.0374,-0.9019,-1.3775,-1.7761,0.0,0.0,0.0,0.0,0.0,0.0,0.0,0.0,0.9821,0.9422,0.8226,0.763,0.763,0.0,0.0374,0.028,0.0,0.0,0.0,-0.4549,-0.428,-0.718,-0.2796,0.183,0.5808,0.2211,0.6486,0.0,0.0,0.0,0.0,0.0,2.0506,2.0719,2.0719,1.7932,1.5422,2.0756,1.963,1.5256,1.0067,0.5387,-0.0521,-1.1332,-1.7781,-2.2492,-2.7197,-3.301,-3.762,-3.7786,0.0,0.0,0.0,-3.7717,-3.6458,-3.6163,-3.5222,0.0,-3.2767,-3.0057,0.0,0.0,0.0,0.0,0.0,0.0,0.0,0.0,0.0,0.0,0.0,0.0,0.0,-2.8241,-2.909,-3.0062,-3.109,-3.11,-3.1497,-3.2391,-3.2148,-3.2544,-3.3481,-3.3679,-3.3779,-3.4064,-3.4249,-3.4433,-3.4628,-3.4738,0.0,-3.4823,-3.5126,-3.5126,-3.503,-3.532,-3.532,-3.5126,-3.503,-3.503,-3.4932,0.0,0.0,0.0,0.0,0.0,0.0,0.0,1.0798,0.9968,1.0436,0.4292,-0.3616,-1.3101,-1.7064,-2.194,0.0,0.0,0.0,0.0,0.0,0.0,0.0,0.0,0.8028,0.9715,0.0,0.0,0.0,0.0,0.0,0.0,0.0,0.0,0.0,0.0,0.0,0.0,-1.4553,-1.0056,0.0,0.0,0.0,0.0,0.0,0.0,0.0,0.0,1.3661,1.4021,1.4021,0.91,0.4501,1.2667,1.0735,0.5024,0.2784,-0.2561,-1.0292,-2.1289,-2.3669,-2.4815,-3.2275,-3.4516,-3.4957,-3.5305,-3.4693,0.0,-3.6944,-3.5981,-3.4703,-3.4703,-3.3848,-3.2778,0.0,-2.9137,-2.7463,-2.7187,0.0,0.0,0.0,0.0,0.0,0.0,0.0,0.0,0.0,0.0,0.0,0.0,-3.0023,-3.0389,-3.0708,-3.0594,-3.0885,-3.1414,-3.1414,-3.2037,-3.3069,-3.3369,-3.3568,-3.3679,-3.4052,-3.4335,-3.4433,-3.4628,0.0,0.0,-3.503,-3.503,-3.4823,-3.503,-3.503,-3.4823,-3.4823,-3.4823,-3.4823,0.0,0.0,0.0,0.0,0.0,0.0,0.0,0.9805,0.8872,0.9581,0.5689,-0.0198,-0.8391,-1.9497,-2.9497,0.0,0.0,0.0,0.0,0.0,0.0,0.0,0.0,0.0,0.0,0.0,0.0,0.0,0.0,0.0,0.0,0.0,0.0,0.0,0.0,0.0,0.0,0.0,0.0,0.0,0.0,0.0,0.0,0.0,0.0,0.0,0.0,-0.7741,-0.7058,0.0,0.0,-0.8875,-0.7339,-0.4896,-0.4578,-1.4689,0.0,0.0,-2.8397,-3.1223,-3.0979,-3.0502,-3.0755,-3.1327,-3.2148,0.0,-3.1691,-3.3876,-3.322,-3.2264,-3.1971,-3.1869,-3.137,-3.0359,-2.9207,-2.8359,0.0,0.0,0.0,0.0,0.0,0.0,0.0,0.0,0.0,0.0,0.0,0.0,0.0,-2.9609,-2.9778,-3.0688,-3.0284,-3.0339,-3.0888,-3.0888,-3.1403,-3.2521,-3.2521,-3.2935,-3.3679,-3.3779,-3.3965,-3.4433,0.0,0.0,0.0,-3.4835,-3.4823,-3.4823,-3.4835,-3.4823,-3.4823,-3.4823,-3.4823,-3.4823,0.0,0.0,0.0,0.0,0.0,0.0,1.0131,0.9254,0.7773,0.5911,0.0204,-0.5939,-1.178,-2.1015,-2.9146,-3.5118,0.0,0.0,0.0,0.0,0.0,0.0,0.0,0.0,0.0,0.0,-0.4017,-0.4017,0.0,0.0,0.0,0.0,0.0,0.0,0.0,0.0,0.0,0.0,0.0,0.0,0.0,0.0,0.0,0.0,0.0,0.0,0.0,0.0,0.0295,0.0295,0.0,0.0,-0.9068,-1.1874,0.0,0.0,-2.2293,-2.5461,-2.8999,-2.9676,-2.9071,-2.7181,-2.7451,-2.8359,-2.8873,0.0,-2.9126,-3.1735,-3.1462,-3.0764,-3.066,-3.066,-3.0245,-2.9122,-2.8048,-2.7394,-2.7295,0.0,0.0,0.0,0.0,0.0,0.0,0.0,0.0,0.0,0.0,0.0,0.0,-2.9637,-2.9793,-3.0052,-2.9867,-3.0078,-3.0785,-3.0785,-3.1197,-3.1924,-3.2218,-3.2622,-3.2946,-3.3469,-3.3767,-3.3965,0.0,0.0,0.0,-3.4726,-3.4823,-3.4823,-3.4823,-3.4823,-3.4823,-3.4823,-3.4823,-3.4775,0.0,0.0,0.0,0.0,0.0,0.8475,0.8452,0.8247,0.6559,0.2311,-0.3166,-0.8449,-1.2797,-2.0005,-2.5849,-2.927,-2.9306,0.0,0.0,0.0,0.0,0.0,0.0,0.0,0.0,0.0,-1.0562,-0.9174,-1.7171,-2.3433,0.0,0.0,0.0,0.0,0.0,0.0,0.0,0.0,0.0,0.0,0.0,0.0,0.0,0.0,0.0,0.0,0.0,0.0,0.0,0.0,0.0,-1.3322,-1.3492,-1.7779,-2.2492,-2.0978,-2.3855,-2.7363,-2.6465,-2.6138,-2.5767,-2.4786,-2.5179,-2.6068,0.0,0.0,-2.758,-2.9597,-2.9838,-2.9533,-2.9187,-2.9313,-2.9227,-2.8291,-2.7413,-2.6862,-2.7098,-2.599,0.0,0.0,0.0,0.0,0.0,0.0,0.0,0.0,0.0,0.0,0.0,-2.9327,-2.9464,-2.9679,-2.9774,-2.9973,-3.0588,-3.0588,-3.0795,-3.1414,-3.1913,-3.2218,-3.2409,-3.3258,-3.358,0.0,0.0,0.0,0.0,-3.4628,-3.4726,-3.4823,-3.4823,-3.4823,-3.4823,-3.4823,-3.463,-3.4438,0.0,0.0,0.0,0.0,0.0,0.0,0.5665,0.6463,0.523,-0.0552,-0.2384,-0.4769,-0.894,-1.5745,-2.021,-2.0743,-2.8447,0.0,0.0,0.0,0.0,0.0,0.0,0.0,0.0,0.0,-2.5984,-2.1414,-2.7986,-2.9536,-2.6382,-2.5078,0.0,0.0,0.0,0.0,0.0,0.0,0.0,0.0,0.0,0.0,0.0,0.0,0.0,0.0,0.0,0.0,0.0,0.0,0.0,0.0,0.0,-2.4242,-2.2795,-2.2109,-2.1807,-2.1736,-2.133,-2.1752,-2.2485,-2.3706,-2.4103,-2.4711,0.0,0.0,-2.7088,-2.7394,-2.8165,-2.8388,-2.7149,-2.7716,-2.8184,-2.796,-2.7638,-2.7431,-2.7431,0.0,0.0,0.0,0.0,0.0,0.0,0.0,0.0,0.0,0.0,0.0,0.0,0.0,-2.8834,-2.9994,-2.9994,-2.9994,-2.9994,-2.9994,-3.0297,-3.0785,-3.1311,-3.1924,-3.242,-3.3058,0.0,0.0,0.0,0.0,0.0,-3.4433,-3.4531,-3.4823,-3.4823,-3.4823,-3.4823,-3.4823,-3.4294,-3.3744,0.0,0.0,0.0,0.0,0.0,0.0,0.0,0.5688,0.3107,-0.209,-0.5274,-0.8351,-1.1746,-1.5486,-1.7326,-1.6188,-2.6612,0.0,0.0,0.0,0.0,0.0,0.0,0.0,0.0,0.0,-2.305,-2.1584,-2.0508,-2.2195,-2.6332,-2.276,-2.1356,-2.1607,0.0,0.0,0.0,0.0,0.0,0.0,0.0,0.0,0.0,0.0,0.0,0.0,0.0,0.0,0.0,0.0,0.0,0.0,0.0,0.0,0.0,-1.4926,-1.7348,-1.9914,-1.942,-1.9753,-2.0411,-2.1131,-2.1399,-2.2188,-2.4852,0.0,-2.4633,-2.7178,-2.7295,-2.707,-2.7501,-2.7628,-2.7647,-2.7314,-2.7206,-2.7098,0.0,0.0,0.0,0.0,0.0,0.0,0.0,0.0,0.0,0.0,0.0,0.0,0.0,0.0,-2.8727,-2.9152,-2.9248,-2.9459,-2.9774,-2.9889,-3.0099,-3.0297,-3.0795,-3.1094,-3.13,-3.1924,0.0,0.0,0.0,0.0,0.0,-3.4162,-3.4261,-3.4359,-3.4359,-3.4133,-3.379,-3.379,-3.3374,-3.2783,0.0,0.0,0.0,0.0,0.0,0.0,0.0,0.434,0.1328,-0.3958,-0.7045,-1.0136,-1.3577,-1.512,-1.555,-1.4412,-2.3039,0.0,0.0,0.0,0.0,0.0,0.0,0.0,-3.3233,-2.8475,-2.5195,-2.3408,-1.8309,-1.7467,-2.0624,-1.7627,-1.6097,-1.5742,-1.325,-1.157,0.0,0.0,0.0,0.0,0.0,0.0,-0.702,0.0,0.0,0.0,0.0,0.0,0.0,0.0,0.0,0.0,0.0,0.0,0.0,0.0,-1.4759,-1.7312,-1.7562,-1.8213,-1.9085,-2.0119,-2.0674,0.0,0.0,0.0,-2.4642,-2.6082,-2.6527,-2.6645,-2.698,-2.7206,-2.7206,-2.6989,-2.689,-2.689,0.0,0.0,0.0,0.0,0.0,0.0,0.0,0.0,0.0,0.0,0.0,0.0,0.0,0.0,-2.8514,-2.8514,-2.893,-2.9237,-2.9448,-2.9669,-2.9889,-2.9879,-3.0484,-3.0785,-3.0785,0.0,0.0,0.0,0.0,0.0,0.0,-3.3878,-3.3848,-3.377,-3.377,-3.3441,-3.297,-3.297,-3.2641,-3.1973,0.0,0.0,0.0,0.0,0.0,0.0,0.0,0.2438,-0.0661,-0.6167,-0.8349,-1.083,-1.4508,-1.5077,-1.5252,-1.5287,0.0,0.0,0.0,0.0,0.0,0.0,0.0,0.0,-4.0309,-3.543,-3.0563,-2.5887,-2.0126,-1.5241,-1.1272,-1.0979,-1.0391,-0.9604,-1.0583,-1.0386,0.0,0.0,0.0,0.0,0.0,0.0,0.0,0.0,0.0,0.0,0.0,0.0,0.0,0.0,0.0,0.0,0.0,0.0,0.0,0.0,0.0,0.0,0.0,-1.7047,-1.8289,-2.0144,0.0,0.0,0.0,-2.5025,0.0,-2.4317,-2.5762,-2.6989,-2.6008,-2.6445,-2.6989,-2.6989,-2.6791,0.0,0.0,0.0,0.0,0.0,0.0,0.0,0.0,0.0,0.0,0.0,0.0,0.0,0.0,0.0,0.0,-2.8291,-2.8814,-2.9026,-2.9026,-2.9448,-2.9554,-2.9554,-3.038,-3.0681,-3.0681,0.0,0.0,0.0,0.0,0.0,0.0,-3.3534,-3.3429,-3.3253,-3.3217,-3.2888,-3.243,-3.243,-3.1938,-3.1321,0.0,0.0,0.0,0.0,0.0,0.0,0.0,0.0,0.0,0.0,-1.3042,-1.5695,-1.7186,-1.9652,-1.9955,0.0,0.0,0.0,0.0,0.0,0.0,0.0,0.0,0.0,-3.5609,-3.0977,-2.614,-2.1234,-1.628,-1.3385,-1.2365,-1.1565,-1.0574,-0.9575,-0.9186,-0.8301,0.0,0.0,0.0,0.0,0.0,0.0,0.0,0.0,0.0,0.0,-0.6935,-0.6935,0.0,0.0,0.0,0.0,0.0,0.0,0.0,0.0,-1.2536,-1.3722,-1.4702,0.0,-1.743,-1.9099,-1.9311,-1.9733,0.0,-2.2815,-2.3295,-2.4633,-2.5313,-2.5881,-2.6545,-2.6673,-2.6691,-2.6691,-2.6691,-2.6691,0.0,0.0,0.0,0.0,0.0,0.0,0.0,0.0,0.0,0.0,0.0,0.0,0.0,0.0,0.0,-2.8291,-2.8398,-2.8611,-2.8834,-2.9036,-2.9237,-2.9237,-2.9659,-2.9858,-2.9869,0.0,0.0,0.0,0.0,0.0,-3.27,-3.2338,-3.2408,-3.2637,-3.2268,-3.1817,-3.1367,-3.1367,-3.094,-3.0491,0.0,0.0,0.0,0.0,0.0,0.0,0.0,0.0,0.0,0.0,0.0,-1.79,-1.8724,-2.1147,0.0,0.0,0.0,0.0,0.0,0.0,0.0,0.0,0.0,-3.3322,-3.4264,-2.7659,-2.2652,-1.9641,-1.5039,-1.2268,-1.1282,-1.1272,-0.9878,-0.7403,-0.6913,-0.6321,0.0,0.0,0.0,0.0,-0.5597,0.0,0.0,0.0,0.0,0.0,-0.6935,-0.7157,0.0,-0.7607,-0.8048,-0.8595,0.0,0.0,0.0,0.0,-1.2318,-1.3295,-1.4385,-1.5565,-1.6906,-1.8679,-1.8993,-1.9416,-2.1048,-2.2274,-2.3303,-2.4078,-2.5101,-2.6008,-2.6682,-2.6691,-2.6591,0.0,-2.6591,0.0,0.0,0.0,0.0,0.0,0.0,0.0,0.0,0.0,0.0,0.0,0.0,0.0,0.0,0.0,0.0,0.0,-2.8291,-2.8408,-2.8514,-2.8824,-2.893,-2.893,-2.9237,-2.9343,-2.9343,-2.9669,0.0,0.0,0.0,0.0,-3.165,-3.1273,-3.1038,-3.1105,-3.0836,-3.0431,-2.9982,-3.0179,-2.9998,-2.9566,0.0,0.0,0.0,0.0,0.0,0.0,0.0,0.0,0.0,0.0,0.0,0.0,0.0,0.0,0.0,0.0,0.0,0.0,0.0,0.0,0.0,0.0,-3.0773,-2.9848,-3.2602,-2.488,-2.0103,-1.8551,-1.4703,-1.1873,-1.01,-1.0685,-0.8799,-0.4834,-0.4734,-0.4734,0.0,0.0,0.0,0.0,-0.6255,0.0,0.0,0.0,0.0,0.0,0.0,0.0,0.0,-0.7607,-0.8048,-0.8592,-0.8923,0.0,0.0,0.0,0.0,0.0,-1.4321,-1.5517,-1.6863,-1.8534,-1.9491,-2.0024,-2.0579,-2.2879,-2.4556,-2.3544,-2.5008,-2.6591,-2.6591,-2.6591,0.0,0.0,0.0,0.0,0.0,0.0,0.0,0.0,0.0,0.0,0.0,0.0,0.0,0.0,0.0,0.0,0.0,0.0,0.0,0.0,-2.8291,-2.8291,-2.8291,-2.8514,-2.8621,-2.8621,-2.893,-2.9036,-2.9026,-2.9448,0.0,0.0,0.0,0.0,-3.0656,-3.0188,-2.9849,-2.9478,-2.9401,-2.9106,-2.8724,-2.9198,-2.9106,-2.8724,0.0,0.0,0.0,0.0,0.0,0.0,0.0,0.0,0.0,0.0,0.0,0.0,0.0,0.0,0.0,0.0,0.0,0.0,0.0,0.0,0.0,-2.9821,-2.6502,-2.4271,-2.3511,-2.204,-1.886,-1.3874,-1.3102,-1.2662,-1.2268,-1.0592,-0.8117,-0.514,-0.4632,-0.4632,-0.4839,-0.5838,-0.6248,-0.6253,-0.6153,0.0,0.0,0.0,0.0,0.0,0.0,0.0,0.0,-0.7823,-0.8374,-0.8923,-0.9261,0.0,0.0,0.0,0.0,0.0,-1.4187,-1.597,-1.7754,-1.8714,-1.9361,-2.0348,-2.2143,-2.3727,-2.4778,-2.4556,-2.5679,-2.6591,-2.6591,-2.6591,-2.6591,0.0,0.0,0.0,0.0,0.0,0.0,0.0,0.0,0.0,0.0,0.0,0.0,0.0,0.0,0.0,0.0,0.0,0.0,0.0,0.0,-2.8067,-2.8291,-2.8291,-2.8398,-2.8398,-2.8621,-2.8727,-2.8727,-2.9353,-2.9464,0.0,0.0,-2.9478,-2.9575,-2.9106,-2.916,-2.9445,-2.9008,-2.879,-2.8724,-2.8839,-2.8839,-2.8631,0.0,0.0,0.0,0.0,0.0,0.0,0.0,0.0,0.0,0.0,0.0,0.0,0.0,0.0,0.0,0.0,0.0,0.0,0.0,0.0,-2.4114,-2.5348,-2.3347,-2.2462,-2.2912,-1.9239,-1.5858,-1.2764,-1.2764,-1.2467,-1.1868,-0.919,-0.7214,-0.6029,-0.5031,-0.476,-0.5014,-0.5982,-0.631,-0.6258,0.0,0.0,0.0,0.0,0.0,0.0,0.0,0.0,0.0,0.0,-0.8709,-0.9261,-0.9485,0.0,0.0,0.0,0.0,0.0,-1.4492,-1.6459,-1.847,-1.9825,-2.0648,-2.1524,-2.3343,-2.4214,-2.4778,-2.4778,-2.5798,-2.6691,0.0,0.0,-2.6591,0.0,0.0,0.0,0.0,0.0,0.0,0.0,0.0,0.0,0.0,0.0,0.0,0.0,0.0,0.0,0.0,0.0,0.0,0.0,0.0,-2.7638,-2.7862,-2.796,-2.8184,-2.8291,-2.8408,-2.8396,-2.817,-2.857,-2.8538,-2.8106,0.0,-2.8153,-2.8224,-2.7855,-2.7871,-2.8126,-2.7988,-2.7904,-2.7998,-2.8008,-2.8092,-2.8269,0.0,0.0,0.0,0.0,0.0,0.0,0.0,0.0,0.0,0.0,0.0,0.0,0.0,0.0,0.0,0.0,0.0,0.0,0.0,-2.5251,-2.4735,-2.3594,-2.2271,-2.1902,-2.2625,-1.7598,-1.428,-1.2764,-1.3141,-1.2543,-1.117,-0.8393,-0.7111,-0.7018,-0.5756,-0.5313,-0.5386,-0.6367,-0.6494,-0.6335,0.0,0.0,0.0,0.0,0.0,0.0,0.0,0.0,0.0,0.0,0.0,0.0,0.0,0.0,0.0,-1.2169,-1.3177,-1.4108,-1.4994,-1.7079,-1.9316,-2.0944,-2.1865,-2.2957,-2.448,-2.511,-2.534,-2.5229,-2.6017,-2.6691,0.0,-2.6691,0.0,0.0,0.0,0.0,0.0,0.0,0.0,0.0,0.0,0.0,0.0,0.0,0.0,0.0,0.0,0.0,0.0,0.0,0.0,0.0,0.0,0.0,-2.7431,-2.7745,-2.796,-2.8184,-2.8193,-2.7978,-2.7666,-2.7851,-2.7657,-2.7231,-2.7212,-2.711,-2.6989,-2.6947,-2.69,-2.69,-2.7177,-2.7262,-2.7262,-2.7262,-2.7441,-2.7726,0.0,0.0,0.0,0.0,0.0,0.0,0.0,0.0,0.0,0.0,0.0,0.0,0.0,0.0,0.0,0.0,0.0,0.0,0.0,-2.7044,-2.7033,-2.708,-2.4746,-2.1674,-1.8063,-1.8034,-1.6331,-1.2764,-1.4172,-1.3573,-1.117,-0.9895,-0.8814,-0.7829,-0.6856,-0.6508,-0.6532,-0.6861,-0.697,-0.6885,-0.6772,0.0,0.0,0.0,0.0,0.0,0.0,0.0,0.0,0.0,0.0,0.0,0.0,0.0,-1.1054,-1.233,-1.3068,-1.373,-1.5646,-1.8266,-2.0818,-2.1353,-2.2686,-2.4292,-2.6017,-2.6673,-2.6772,-2.6473,-2.6791,-2.689,0.0,0.0,0.0,0.0,0.0,0.0,0.0,0.0,0.0,0.0,0.0,0.0,0.0,0.0,0.0,0.0,0.0,0.0,0.0,0.0,0.0,0.0,0.0,0.0,-2.7431,-2.7745,-2.796,-2.796,-2.7785,-2.7695,-2.7646,-2.7535,-2.7211,-2.6904,-2.7082,-2.6929,-2.6547,-2.6815,-2.69,-2.69,-2.7177,-2.7262,-2.7262,-2.7262,-2.7167,-2.6996,0.0,0.0,0.0,0.0,0.0,0.0,0.0,0.0,0.0,0.0,0.0,0.0,0.0,0.0,0.0,0.0,0.0,0.0,0.0,-2.7638,-2.7638,-2.7708,-2.6262,-2.3941,-2.074,-1.8811,-1.685,-1.4937,-1.4555,-1.3794,-1.2834,-1.0712,-0.9674,-0.9578,-0.7808,-0.7188,-0.7693,-0.7585,-0.7569,-0.7645,-0.7581,-0.749,0.0,0.0,0.0,0.0,0.0,0.0,0.0,0.0,-0.9812,-1.0257,-1.0257,-1.1096,-1.2201,-1.2836,-1.3948,-1.5232,-1.7122,-1.9219,-2.1316,-2.2702,-2.4206,-2.545,-2.6127,-2.6573,-2.6691,-2.6582,-2.6691,-2.6691,0.0,0.0,0.0,0.0,0.0,0.0,0.0,0.0,0.0,0.0,0.0,0.0,0.0,0.0,0.0,0.0,0.0,0.0,0.0,0.0,0.0,0.0,0.0,0.0,0.0,-2.7069,-2.7256,-2.7256,-2.7524,-2.7393,-2.6865,-2.679,-2.6576,-2.6173,-2.6173,-2.6182,-2.6024,-2.6304,-2.64,-2.64,-2.6688,-2.6784,-2.6784,-2.6986,-2.689,-2.6699,0.0,0.0,0.0,0.0,0.0,0.0,0.0,0.0,0.0,0.0,0.0,0.0,0.0,0.0,0.0,0.0,0.0,0.0,-2.8163,-2.7975,-2.7893,-2.7893,-2.701,-2.5503,-2.3458,-2.0517,-1.8118,-1.6156,-1.4943,-1.4232,-1.4025,-1.1909,-1.1111,-1.1286,-0.9298,-0.8697,-0.9019,-0.8639,-0.8394,-0.8263,-0.8263,-0.8263,0.0,0.0,0.0,0.0,0.0,0.0,0.0,0.0,-1.0288,-1.0773,-1.0773,-1.1788,-1.3082,-1.3492,-1.4972,-1.6724,-1.818,-2.0274,-2.2274,-2.3536,-2.5,-2.6127,-2.6127,-2.6464,-2.6691,-2.6591,-2.6591,-2.6591,-2.6691,0.0,0.0,0.0,0.0,0.0,0.0,0.0,0.0,0.0,0.0,0.0,0.0,0.0,0.0,0.0,0.0,0.0,0.0,0.0,0.0,0.0,0.0,0.0,0.0,-2.6542,-2.6578,-2.6305,-2.6843,-2.6851,-2.6387,-2.625,-2.6016,-2.5742,-2.5742,-2.5742,-2.5732,-2.6004,-2.6197,-2.6197,-2.64,-2.6496,-2.6496,-2.6699,-2.6602,-2.64,0.0,0.0,0.0,0.0,0.0,0.0,0.0,0.0,0.0,0.0,0.0,0.0,0.0,0.0,0.0,0.0,0.0,0.0,-2.8751,-2.8175,-2.7893,-2.7893,-2.7044,-2.6091,-2.5231,-2.3317,-2.0352,-1.6257,-1.552,-1.4908,-1.4289,-1.3766,-1.319,-1.2715,-1.1773,-1.1022,-1.0519,-1.005,-0.9467,-0.892,-0.8923,-0.8923,-0.8923,0.0,0.0,0.0,0.0,0.0,0.0,0.0,-1.1036,-1.1961,-1.1961,-1.266,-1.367,-1.4245,-1.6126,-1.8217,-1.8724,-2.1336,-2.388,-2.388,-2.5,-2.6127,-2.6127,-2.6554,-2.689,-2.6691,-2.6591,-2.6691,-2.6989,-2.6791,0.0,0.0,0.0,0.0,0.0,0.0,0.0,0.0,0.0,0.0,0.0,0.0,0.0,0.0,0.0,0.0,0.0,0.0,0.0,0.0,0.0,0.0,-2.5968,-2.6277,-2.5955,-2.5125,-2.5758,-2.6177,-2.6367,-2.5937,-2.5742,-2.5742,-2.5742,-2.5742,-2.5732,-2.6014,-2.6294,-2.6496,-2.6496,-2.6496,-2.6496,-2.6496,-2.6304,-2.6091,0.0,0.0,0.0,0.0,0.0,0.0,0.0,0.0,0.0,0.0,0.0,0.0,0.0,0.0,0.0,0.0,0.0,0.0,-2.9714,-2.8597,-2.7974,-2.7974,-2.6696,-2.5495,-2.4478,-2.2748,-2.0902,-1.895,-1.7633,-1.7022,-1.7126,-1.5196,-1.4419,-1.4625,-1.2844,-1.251,-1.3265,-1.2257,-1.1851,-1.1647,-1.1347,-1.0854,-1.0324,0.0,0.0,0.0,0.0,0.0,0.0,0.0,0.0,0.0,-1.3074,-1.367,-1.4551,-1.5203,-1.6946,-1.8948,-2.0401,-2.2266,-2.4103,-2.5221,-2.5907,-2.6473,-2.6473,-2.6582,-2.6691,0.0,-2.6791,-2.689,-2.6691,0.0,0.0,0.0,0.0,0.0,0.0,0.0,0.0,0.0,0.0,0.0,0.0,0.0,0.0,0.0,0.0,0.0,0.0,0.0,0.0,0.0,0.0,0.0,-2.5958,-2.5693,-2.5479,-2.5336,-2.5462,-2.5525,-2.5624,-2.5693,-2.5742,-2.5742,-2.5742,-2.5742,-2.5742,-2.583,-2.583,-2.5927,-2.5927,-2.5927,-2.5927,-2.61,-2.6014,-2.583,0.0,0.0,0.0,0.0,0.0,0.0,0.0,0.0,0.0,0.0,-3.1572,-3.1661,0.0,0.0,0.0,0.0,0.0,0.0,0.0,-2.9618,-2.9071,-2.9071,-2.72,-2.5327,-2.3721,-2.2884,-2.2249,-2.1742,-1.987,-1.9008,-1.9033,-1.7394,-1.6832,-1.7171,-1.5529,-1.5169,-1.5813,-1.4645,-1.4044,-1.3847,-1.3411,-1.317,-1.2964,0.0,0.0,0.0,0.0,0.0,0.0,0.0,0.0,0.0,-1.3984,-1.4709,-1.5709,-1.6733,-1.8455,-2.043,-2.2024,-2.3743,-2.5229,-2.6127,-2.6473,-2.6591,-2.6682,0.0,0.0,0.0,-2.6899,-2.6781,-2.6791,0.0,0.0,0.0,0.0,0.0,0.0,0.0,0.0,0.0,0.0,0.0,0.0,0.0,0.0,0.0,0.0,0.0,0.0,0.0,0.0,0.0,0.0,0.0,-2.5491,-2.5201,-2.4969,-2.5002,-2.5055,-2.5137,-2.5137,-2.5538,-2.5742,-2.5742,-2.5742,-2.5742,-2.5742,-2.5742,-2.5742,-2.5742,-2.5742,-2.5742,-2.5742,-2.5917,-2.583,-2.5732,0.0,0.0,0.0,0.0,0.0,0.0,0.0,0.0,0.0,0.0,-3.1584,-3.1749,0.0,0.0,0.0,0.0,0.0,0.0,0.0,0.0,-3.0719,-3.0719,-2.8111,-2.5641,-2.3444,-2.3725,-2.4041,-2.4382,-2.2014,-2.0744,-2.0377,-2.0008,-1.9984,-2.0181,-1.9124,-1.8499,-1.822,-1.7105,-1.6357,-1.5961,-1.5664,-1.5761,-1.6098,-1.5451,0.0,0.0,0.0,0.0,0.0,0.0,0.0,0.0,-1.4908,-1.5759,-1.6879,-1.8474,-2.0301,-2.2251,-2.3487,-2.5203,-2.6591,-2.6582,-2.6591,-2.6691,-2.6989,-2.6899,-2.68,-2.7323,0.0,-2.6691,0.0,0.0,0.0,0.0,0.0,0.0,0.0,0.0,0.0,0.0,0.0,0.0,0.0,0.0,0.0,0.0,0.0,0.0,0.0,0.0,0.0,0.0,0.0,0.0,-2.4785,-2.4748,-2.4537,0.0,-2.4637,-2.4833,-2.4932,-2.544,-2.5742,-2.5742,-2.5742,-2.5742,-2.5742,-2.5742,-2.5742,-2.5742,-2.5742,-2.5742,-2.5742,-2.5742,-2.5742,-2.5742,0.0,0.0,0.0,0.0,0.0,0.0,0.0,0.0,0.0,0.0,0.0,0.0,0.0,0.0,0.0,0.0,0.0,0.0,0.0,0.0,-3.0123,-3.0123,-2.8226,-2.6818,-2.586,-2.5694,-2.5506,-2.5101,-2.3187,-2.2504,-2.2889,-2.1795,-2.1587,-2.2105,-2.056,-2.0539,-2.1482,-2.0195,-1.9621,-1.9649,-1.9278,-1.8718,-1.8056,-1.668,-1.6988,0.0,0.0,0.0,0.0,0.0,0.0,0.0,-1.6463,-1.6738,-1.725,-1.908,-2.0558,-2.2032,-2.3718,-2.5203,0.0,-2.6473,-2.6791,-2.7098,-2.7638,-2.7422,-2.7215,-2.7431,-2.7107,0.0,0.0,0.0,0.0,0.0,0.0,0.0,0.0,0.0,0.0,0.0,0.0,0.0,0.0,0.0,0.0,0.0,0.0,0.0,0.0,0.0,0.0,0.0,0.0,-2.495,-2.4785,-2.4455,-2.4334,0.0,-2.4529,-2.4735,-2.4932,-2.544,-2.5742,-2.5742,-2.5742,-2.5742,-2.5742,-2.5742,-2.5742,-2.5742,-2.5742,-2.5742,-2.5742,-2.5742,-2.5742,-2.5742,0.0,0.0,0.0,0.0,0.0,0.0,0.0,0.0,0.0,0.0,0.0,0.0,0.0,0.0,0.0,0.0,0.0,0.0,0.0,0.0,-3.0648,-2.9741,-2.8466,-2.7575,-2.6967,-2.5899,-2.5565,-2.5897,-2.4296,-2.3817,-2.4318,-2.3484,-2.3376,-2.3982,-2.2607,-2.2435,-2.3241,-2.2231,-2.1897,-2.1877,-2.142,-2.1092,-2.0769,-1.9665,-1.972,-2.0186,-1.9272,0.0,0.0,0.0,0.0,0.0,0.0,0.0,-1.8273,-2.0106,-2.1593,-2.3071,-2.4753,-2.578,0.0,-2.6591,0.0,-2.7314,-2.7638,-2.753,-2.7431,-2.7755,0.0,0.0,0.0,0.0,0.0,0.0,0.0,0.0,0.0,0.0,0.0,0.0,0.0,0.0,0.0,0.0,0.0,0.0,0.0,0.0,0.0,0.0,0.0,0.0,0.0,-2.5161,-2.4482,-2.4749,-2.4735,-2.4341,-2.443,-2.4637,-2.4932,-2.5235,-2.5333,-2.5333,-2.543,-2.5538,-2.5538,-2.5645,-2.5742,-2.5742,-2.5742,-2.5742,-2.5742,-2.5742,-2.5742,-2.5742,0.0,0.0,0.0,0.0,0.0,0.0,0.0,0.0,0.0,0.0,0.0,0.0,0.0,0.0,0.0,0.0,0.0,0.0,0.0,0.0,0.0,-2.988,-2.9183,-2.8392,-2.7462,-2.5958,-2.5586,-2.637,-2.536,-2.5011,-2.5348,-2.4899,-2.4968,-2.5476,-2.4403,-2.4157,-2.4403,-2.3877,-2.3586,-2.3459,-2.3191,-2.3215,-2.3344,-2.2644,-2.2402,-2.2266,-2.1479,-2.1123,-2.088,-2.088,0.0,0.0,0.0,0.0,-1.9639,-2.1465,-2.2958,-2.4317,-2.5789,-2.6354,-2.6591,-2.6691,-2.7008,0.0,-2.7422,-2.7431,-2.7539,0.0,0.0,0.0,0.0,0.0,0.0,0.0,0.0,0.0,0.0,0.0,0.0,0.0,0.0,0.0,0.0,0.0,0.0,0.0,0.0,0.0,0.0,0.0,0.0,0.0,0.0,-2.566,-2.4449,-2.5314,-2.5216,-2.4152,-2.4341,-2.4538,-2.4735,-2.4735,-2.4833,-2.4932,-2.5235,-2.5342,-2.544,-2.5635,-2.5742,-2.5742,-2.5742,-2.5742,-2.5742,-2.5742,-2.5742,-2.5742,0.0,0.0,0.0,0.0,0.0,0.0,0.0,0.0,0.0,0.0,-3.195,-3.2038,0.0,0.0,0.0,0.0,0.0,0.0,-3.2313,0.0,0.0,-3.1098,-3.0824,-2.9897,-2.8222,-2.7913,-2.7115,-2.583,-2.6164,-2.6346,-2.6394,-2.5284,-2.5237,-2.5985,-2.5466,-2.543,-2.5837,-2.5335,-2.5297,-2.5388,-2.5322,-2.5348,-2.5238,-2.4103,-2.4326,-2.5,-2.3871,-2.3416,-2.3416,-2.3416,-2.2387,0.0,0.0,0.0,-2.1578,-2.3079,-2.3855,-2.4633,-2.6127,0.0,-2.6691,0.0,-2.6989,-2.7206,0.0,0.0,0.0,0.0,0.0,0.0,0.0,0.0,0.0,0.0,0.0,0.0,0.0,0.0,0.0,0.0,0.0,0.0,0.0,0.0,0.0,0.0,0.0,0.0,0.0,0.0,-2.5274,-2.6039,-2.5869,-2.5655,-2.5499,-2.5596,-2.5216,-2.4152,-2.4251,-2.4251,-2.4251,-2.4251,-2.4646,-2.5235,-2.5235,-2.543,-2.5645,-2.5645,-2.5742,-2.5742,-2.5742,-2.5742,-2.5742,-2.5742,-2.5742,-2.5742,0.0,0.0,0.0,0.0,0.0,0.0,0.0,0.0,0.0,0.0,0.0,-3.1849,0.0,0.0,0.0,-3.1761,-3.1761,-3.1761,-3.1761,-3.1572,-3.1484,-3.1484,-3.0644,-3.0011,-2.984,-2.8694,-2.7785,-2.712,-2.7072,-2.688,-2.6387,-2.5937,-2.5971,-2.6564,-2.6264,-2.6144,-2.6345,-2.6173,-2.6082,-2.5907,-2.5907,-2.5789,-2.5688,-2.5119,-2.5238,-2.5679,-2.5119,-2.4898,-2.4898,-2.4898,-2.3983,-2.2846,-2.2846,0.0,0.0,0.0,-2.4539,-2.5542,-2.6354,-2.6691,-2.6791,0.0,-2.689,-2.7098,-2.7314,0.0,0.0,0.0,0.0,0.0,0.0,0.0,0.0,0.0,0.0,0.0,0.0,0.0,0.0,0.0,0.0,0.0,0.0,0.0,0.0,0.0,0.0,0.0,0.0,-2.4876,-2.5161,-2.5977,-2.5791,0.0,-2.5693,-2.5693,-2.5216,-2.4152,-2.4152,-2.4152,-2.4152,-2.4152,-2.435,-2.4646,-2.4833,-2.4932,-2.503,-2.5333,-2.544,-2.5538,-2.5635,-2.5742,-2.5742,-2.5742,-2.5742,-2.5742,0.0,0.0,0.0,0.0,0.0,0.0,0.0,0.0,0.0,0.0,0.0,0.0,0.0,0.0,0.0,0.0,-3.1306,-3.1306,-3.1306,-3.1217,-3.1377,-3.1687,-3.0547,-3.0159,-3.0698,-2.9243,-2.8254,-2.7764,-2.7532,-2.7046,-2.6437,-2.6461,-2.671,-2.7206,-2.6791,-2.6591,-2.6591,-2.6591,-2.6473,-2.6245,-2.6245,-2.6136,-2.5907,-2.5907,-2.5907,-2.5907,-2.5907,-2.5907,-2.5907,-2.5907,-2.5229,-2.4445,-2.4445,-2.4445,0.0,0.0,0.0,-2.6082,0.0,0.0,-2.6602,-2.6507,-2.6559,-2.6602,0.0,0.0,0.0,0.0,0.0,0.0,0.0,0.0,0.0,0.0,0.0,0.0,0.0,0.0,0.0,0.0,0.0,0.0,0.0,0.0,0.0,0.0,0.0,0.0,-2.4647,-2.4629,-2.4964,-2.5703,-2.5693,-2.5693,-2.5693,-2.5401,-2.4922,-2.4152,-2.4152,-2.4152,-2.4152,-2.4152,-2.4152,-2.4251,-2.444,-2.4529,-2.4627,-2.503,-2.5235,-2.5333,-2.5538,-2.5635,-2.5742,-2.5742,-2.5742,-2.5742,0.0,0.0,0.0,0.0,0.0,0.0,0.0,0.0,0.0,0.0,0.0,0.0,-3.0984,-3.1074,-3.1062,-3.0984,-3.1229,-3.1306,-3.1306,-3.1151,-3.1184,-3.1654,-3.1413,0.0,-2.9862,-2.9797,-2.8723,-2.6657,-2.6788,-2.6989,-2.7189,-2.6784,-2.6989,-2.7853,-2.7008,-2.6591,-2.6591,-2.6591,-2.6582,-2.6582,-2.6582,-2.6582,-2.6582,-2.6582,-2.6582,-2.6582,-2.6582,-2.6582,-2.6582,-2.6582,-2.6354,-2.6017,-2.6017,-2.6017,-2.6017,0.0,0.0,0.0,0.0,-2.5711,0.0,-2.5903,-2.5711,0.0,0.0,0.0,0.0,0.0,0.0,0.0,0.0,0.0,0.0,0.0,0.0,0.0,0.0,0.0,0.0,0.0,0.0,0.0,0.0,0.0,0.0,0.0,0.0,0.0,-2.4207,-2.4189,-2.4655,-2.5693,-2.5693,-2.5693,-2.5693,-2.4735,-2.4251,-2.4152,-2.4152,-2.4152,-2.4152,-2.4152,-2.4152,-2.4251,-2.444,-2.4637,-2.4833,-2.4932,-2.503,-2.5333,-2.5333,-2.544,-2.5742,-2.5742,-2.5742,-2.5742,0.0,0.0,0.0,0.0,0.0,0.0,0.0,0.0,0.0,0.0,0.0,0.0,0.0,-3.0883,-3.0972,-3.0769,-3.096,-3.1192,-3.151,-3.1442,-3.1781,-3.2404,-3.2043,-3.1631,-3.1315,-3.0745,-2.9806,-2.8513,-2.8147,-2.7728,-2.7088,-2.6924,-2.6989,-2.7314,-2.68,-2.68,-2.7116,-2.68,-2.6691,-2.689,-2.6691,-2.6591,-2.6591,-2.6591,-2.6691,-2.6781,-2.6691,-2.6691,-2.6791,-2.6691,-2.6473,-2.6473,-2.6473,-2.6473,-2.6418,-2.6144,-2.5788,-2.5582,0.0,0.0,0.0,-2.5546,-2.5482,0.0,0.0,0.0,0.0,0.0,0.0,0.0,0.0,0.0,0.0,0.0,0.0,0.0,0.0,0.0,0.0,0.0,0.0,0.0,0.0,0.0,0.0,0.0,0.0,0.0,-2.4161,-2.4152,-2.4637,-2.5693,-2.5118,-2.4735,-2.4735,-2.4341,-2.4152,-2.4152,-2.4152,-2.4152,-2.4152,-2.4152,-2.4152,-2.4152,-2.4251,-2.4341,-2.4449,-2.4637,-2.4833,-2.5039,-2.5235,-2.544,-2.5742,-2.5742,-2.5742,-2.5742,0.0,0.0,0.0,0.0,0.0,0.0,0.0,0.0,-3.0487,-3.0691,0.0,0.0,0.0,0.0,-3.112,-3.126,-3.1386,-3.163,-3.1855,-3.1786,-3.2125,-3.2854,-3.2569,-3.2352,-3.2225,-3.1493,-3.0752,-2.9979,-2.8904,-2.8221,-2.7726,-2.7098,-2.6999,-2.7098,-2.68,-2.68,-2.7215,-2.68,-2.6691,-2.689,-2.6691,-2.6591,-2.6591,-2.6591,-2.6691,-2.689,0.0,0.0,0.0,0.0,0.0,-2.6591,-2.6591,-2.649,-2.6298,-2.5885,-2.5482,-2.517,-2.517,0.0,0.0,0.0,0.0,0.0,0.0,0.0,0.0,0.0,0.0,0.0,0.0,0.0,0.0,0.0,0.0,0.0,0.0,0.0,0.0,0.0,0.0,0.0,0.0,0.0,0.0,0.0,0.0,0.0,-2.4152,-2.4152,-2.4538,-2.5216,-2.4538,-2.4152,-2.4152,-2.4152,-2.4152,-2.4152,-2.4152,-2.4152,-2.4152,-2.4152,-2.4152,-2.4152,-2.4152,-2.4152,-2.4251,-2.4341,-2.4637,-2.4932,-2.5137,-2.5333,-2.5742,-2.5742,-2.5742,-2.5742,0.0,0.0,0.0,0.0,0.0,0.0,0.0,0.0,-3.0262,-3.0262,0.0,0.0,0.0,0.0,0.0,-3.2442,-3.2489,-3.2394,-3.2134,-3.2134,-3.2355,-3.2866,-3.2901,-3.273,-3.2409,-3.1972,-3.1328,-3.0721,-2.8836,-2.8346,-2.9092,-2.7422,-2.6899,-2.7431,-2.68,-2.6791,-2.6989,-2.6682,-2.6591,-2.6591,-2.6591,-2.6591,-2.6591,-2.6591,-2.6591,0.0,-2.6591,-2.6591,0.0,-2.6591,0.0,0.0,-2.6573,-2.6279,-2.5867,-2.5463,-2.5069,-2.4757,0.0,0.0,0.0,0.0,0.0,0.0,0.0,0.0,0.0,0.0,0.0,0.0,0.0,0.0,0.0,0.0,0.0,0.0,0.0,0.0,0.0,0.0,0.0,0.0,0.0,0.0,0.0,0.0,0.0,-2.4152,-2.4152,-2.4152,-2.4152,-2.4152,-2.4152,-2.4152,-2.4152,-2.4152,-2.4152,-2.4152,-2.4152,-2.4152,-2.4152,-2.4152,-2.4152,-2.4152,-2.4152,-2.4152,-2.4152,-2.4152,-2.4449,-2.4932,-2.4932,-2.5235,-2.5742,-2.5742,-2.5742,-2.5742,0.0,0.0,0.0,0.0,0.0,-3.0356,-3.1453,-3.1433,-3.1329,0.0,0.0,0.0,-3.1536,-3.1631,-3.1677,-3.191,-3.2111,-3.2357,-3.2634,-3.268,-3.2924,-3.3435,-3.3261,-3.3132,-3.3058,-3.2085,-3.1556,-3.1359,-2.9151,-2.8635,-2.9608,-2.753,-2.7215,-2.8271,-2.7116,-2.6791,-2.6989,-2.6682,-2.6691,-2.689,-2.6691,-2.6591,0.0,0.0,0.0,0.0,0.0,-2.6691,-2.689,0.0,-2.6591,-2.6536,0.0,-2.5858,-2.5454,-2.506,-2.4656,-2.4326,-2.4326,0.0,0.0,0.0,0.0,0.0,0.0,0.0,0.0,0.0,0.0,0.0,0.0,0.0,0.0,0.0,0.0,0.0,0.0,0.0,0.0,0.0,0.0,0.0,0.0,0.0,0.0,0.0,0.0,-2.4152,-2.4152,-2.4152,-2.4152,-2.4152,-2.4152,-2.4152,-2.4152,-2.4152,-2.4152,-2.4152,-2.4152,-2.4152,-2.4152,-2.4152,-2.4152,-2.4152,-2.4152,-2.4152,-2.4152,-2.4152,-2.4449,-2.4932,-2.4932,-2.5235,-2.5742,-2.5742,-2.5742,-2.5742,0.0,0.0,0.0,0.0,0.0,-3.0854,-3.1956,-3.1903,-3.1766,0.0,0.0,0.0,-3.2233,-3.2441,-3.2568,-3.2568,-3.285,-3.3094,-3.3395,-3.333,-3.3469,-3.3769,-3.3496,-3.3281,-3.3281,-3.2431,-3.2096,-3.2521,-3.0335,-2.9818,-3.0742,-2.8349,-2.7726,-2.8465,-2.7215,-2.6691,-2.6781,-2.6691,0.0,0.0,-2.7098,0.0,0.0,-2.7843,-2.8048,0.0,0.0,0.0,-2.7501,-2.7833,-2.7514,0.0,0.0,-2.5436,-2.5041,-2.4638,-2.4345,-2.4152,-2.4152,-2.4152,-2.4152,0.0,0.0,0.0,0.0,-2.4152,0.0,0.0,0.0,0.0,0.0,0.0,0.0,0.0,0.0,0.0,0.0,0.0,0.0,0.0,0.0,0.0,0.0,0.0,0.0,0.0,-2.4152,-2.4152,-2.4152,-2.4152,-2.4152,-2.4152,-2.4152,-2.4152,-2.4152,-2.4152,-2.4152,-2.4152,-2.4152,-2.4152,-2.4152,-2.4152,-2.4152,-2.4152,-2.4152,-2.4152,-2.4152,-2.4152,-2.444,-2.4735,-2.4833,-2.5137,-2.5538,-2.5635,-2.5742,-2.5742,0.0,0.0,-2.8734,-3.0835,-3.1023,-3.1351,-3.2471,-3.2213,-3.1938,0.0,-3.1938,-3.2195,-3.2913,-3.3447,-3.3761,-3.3761,-3.4214,-3.4289,-3.4085,-3.4085,-3.4085,-3.4085,-3.3625,-3.3361,-3.3361,-3.2845,-3.2909,-3.3679,-3.1773,-3.1361,-3.2083,-2.9587,-2.8436,-2.8542,-2.7314,0.0,-2.68,0.0,0.0,-2.6899,-2.7814,-2.8223,0.0,0.0,-2.9817,-2.9817,-2.9608,-2.8966,-2.8329,-2.9187,-2.879,0.0,0.0,0.0,0.0,0.0,-2.4152,-2.4152,-2.4152,-2.4152,-2.4152,-2.4152,0.0,0.0,-2.4152,-2.4152,0.0,0.0,0.0,0.0,0.0,0.0,0.0,0.0,0.0,0.0,0.0,0.0,0.0,0.0,0.0,0.0,0.0,0.0,0.0,-2.4152,-2.4152,-2.4152,-2.4152,-2.4152,-2.4152,-2.4152,-2.4152,-2.4152,-2.4152,-2.4152,-2.4152,-2.4152,-2.4152,-2.4152,-2.4152,-2.4152,-2.4152,-2.4152,-2.4152,-2.4152,-2.4152,-2.4152,-2.4341,-2.4529,-2.4735,-2.503,-2.5333,-2.5538,-2.5635,-2.5635,0.0,-2.9197,-3.0026,-3.1268,-3.1814,-3.2375,-3.3021,-3.3051,-3.2994,-3.2994,-3.2994,-3.3028,-3.322,-3.3669,-3.3968,-3.3968,-3.444,-3.4751,-3.4647,-3.4647,-3.4647,-3.4647,-3.4142,-3.3855,-3.3855,-3.3384,-3.3178,-3.3381,-3.2118,-3.2017,-3.2958,-3.065,-3.0016,-3.0845,-2.8754,-2.7921,-2.7921,0.0,0.0,-2.7921,-2.8126,0.0,-2.9493,-2.8754,-2.9071,-2.9713,-2.7833,-2.7618,-2.8126,-2.7413,-2.7969,-2.844,0.0,0.0,0.0,-2.456,0.0,0.0,0.0,-2.4152,0.0,0.0,0.0,0.0,-2.4152,-2.4152,0.0,0.0,0.0,0.0,0.0,0.0,0.0,0.0,0.0,0.0,0.0,0.0,0.0,0.0,0.0,0.0,0.0,0.0,-2.4152,-2.4152,-2.4152,-2.4152,-2.4152,-2.4152,-2.4152,-2.4152,-2.4152,-2.4152,-2.4152,-2.4152,-2.4152,-2.4152,-2.4152,-2.4152,-2.4152,-2.4152,-2.4152,-2.4152,-2.4152,-2.4152,-2.4152,-2.4152,-2.4341,-2.4538,-2.4529,-2.4735,-2.503,-2.5235,-2.5333,-2.544,-2.9702,-2.9922,-3.0235,-3.179,-3.2207,-3.2521,-3.2846,-3.2846,-3.2958,-3.3281,-3.3281,-3.3281,-3.3281,-3.3717,-3.4004,-3.4004,-3.4705,-3.5164,-3.5164,-3.5164,-3.5164,-3.5164,-3.467,-3.428,-3.4004,-3.3763,-3.3522,-3.3281,-3.2745,-3.2745,-3.3281,-3.1586,-3.1062,-3.1575,-2.9797,-2.8754,-2.8223,0.0,-2.8542,-2.9071,-2.9692,0.0,-3.0753,-3.0742,-3.1073,-3.1494,-3.0349,-2.9922,-2.9661,-2.769,-2.7532,0.0,0.0,-2.5968,-2.5869,0.0,-2.4922,-2.4833,0.0,0.0,0.0,-2.4152,0.0,0.0,0.0,-2.4152,0.0,0.0,0.0,0.0,0.0,0.0,0.0,0.0,0.0,0.0,0.0,0.0,0.0,0.0,0.0,0.0,0.0,0.0,-2.4152,-2.4152,-2.4152,-2.4152,-2.4152,-2.4152,-2.4152,-2.4152,-2.4152,-2.4152,-2.4152,-2.4152,-2.4152,-2.4152,-2.4152,-2.4152,-2.4152,-2.4152,-2.4152,-2.4152,-2.4152,-2.4152,-2.4152,-2.4152,-2.4251,-2.4341,-2.444,-2.4529,-2.4735,-2.503,-2.5137,-2.5137,-3.0432,-3.012,-3.0224,-3.2106,-3.2308,-3.2319,-3.2409,-3.2521,-3.2745,-3.3281,-3.3281,-3.3281,-3.3281,-3.3717,-3.4004,-3.4004,-3.4842,-3.5416,-3.5508,-3.552,-3.552,-3.552,-3.5152,-3.4647,-3.4016,-3.4004,-3.3763,-3.3281,-3.3281,-3.3281,-3.3281,-3.2319,-3.1902,-3.1902,-3.0753,-2.9702,-2.885,0.0,0.0,-3.0338,0.0,-3.1902,-3.2004,-3.2745,-3.3069,-3.3281,-3.3069,-3.2264,-3.1073,-2.8735,-2.7749,-2.7352,-2.6814,-2.632,0.0,0.0,0.0,0.0,0.0,0.0,0.0,0.0,0.0,-2.4152,0.0,0.0,0.0,0.0,0.0,0.0,0.0,0.0,0.0,0.0,0.0,0.0,0.0,0.0,0.0,0.0,0.0,0.0,0.0,0.0,-2.4152,-2.4152,-2.4152,-2.4152,-2.4152,-2.4152,-2.4152,-2.4152,-2.4152,-2.4152,-2.4152,-2.4152,-2.4152,-2.4152,-2.4152,-2.4152,-2.4152,-2.4152,-2.4152,-2.4152,-2.4152,-2.4152,-2.4152,-2.4152,-2.4152,-2.4251,-2.4341,-2.444,-2.444,-2.4735,-2.4833,-2.4833,-2.9733,-2.9858,-3.0495,-3.2106,-3.2015,-3.1823,-3.2308,-3.2846,-3.3181,-3.3281,-3.3281,-3.3281,-3.3281,-3.3717,-3.4004,-3.4004,-3.4544,-3.5072,-3.5485,-3.552,-3.552,-3.552,-3.5462,-3.498,-3.4027,-3.4004,-3.3763,-3.3281,-3.3281,-3.3281,-3.3281,-3.3181,-3.3069,-3.3069,-3.1902,-3.137,-3.1257,0.0,-3.1257,0.0,-3.2645,-3.3069,0.0,-3.2106,-3.2432,-3.3181,-3.2106,-3.1403,-3.073,0.0,-2.9058,-2.9021,0.0,-2.738,-2.6809,-2.5974,0.0,0.0,0.0,0.0,0.0,0.0,-2.4152,0.0,0.0,0.0,0.0,0.0,0.0,0.0,0.0,0.0,0.0,0.0,0.0,0.0,0.0,0.0,0.0,0.0,0.0,0.0,0.0,0.0,0.0,-2.4152,-2.4152,-2.4152,-2.4152,-2.4152,-2.4152,-2.4152,-2.4152,-2.4152,-2.4152,-2.4152,-2.4152,-2.4152,-2.4152,-2.4152,-2.4152,-2.4152,-2.4152,-2.4152,-2.4152,-2.4152,-2.4152,-2.4152,-2.4152,-2.4152,-2.4251,-2.4251,-2.4251,-2.444,-2.4538,-2.4637,-3.0474,-3.038,-3.0276,-3.13,-3.1516,-3.1721,-3.1913,-3.2757,-3.3281,-3.3281,-3.3281,-3.3281,-3.3281,-3.3717,-3.4004,-3.4004,0.0,-3.5003,0.0,0.0,-3.5646,-3.5944,-3.568,-3.5187,-3.4486,-3.4165,-3.3763,-3.3281,-3.3281,-3.3281,-3.3281,-3.3281,-3.3281,-3.3281,-3.2846,0.0,-3.1575,0.0,-3.1575,0.0,0.0,0.0,0.0,-3.2745,-3.2857,-3.3281,-3.2745,-3.1795,-3.0721,0.0,-2.921,0.0,0.0,0.0,0.0,0.0,0.0,0.0,0.0,0.0,0.0,0.0,0.0,0.0,-2.435,0.0,-2.4152,0.0,0.0,0.0,0.0,0.0,0.0,0.0,0.0,0.0,0.0,0.0,0.0,0.0,0.0,0.0,0.0,0.0,0.0,0.0,0.0,-2.4152,-2.4152,-2.4152,-2.4152,-2.4152,-2.4152,-2.4152,-2.4152,-2.4152,-2.4152,-2.4152,-2.4152,-2.4152,-2.4152,-2.4152,-2.4152,-2.4152,-2.4152,-2.4152,-2.4152,-2.4152,-2.4152,-2.4152,-2.4152,-2.4152,-2.4251,-2.4251,-2.435,-2.4341,-3.0795,-3.0484,-3.0172,-3.0681,-3.1208,-3.1732,-3.2037,-3.2454,-3.2969,-3.3281,-3.3281,0.0,-3.3281,-3.3591,0.0,0.0,-3.4165,-3.459,0.0,0.0,-3.5267,0.0,0.0,0.0,0.0,-3.413,-3.3763,-3.3281,-3.3281,-3.3281,-3.3281,-3.3281,-3.3281,-3.3281,-3.3281,-3.2857,-3.2106,0.0,-3.2106,-3.2106,-3.2106,-3.2533,-3.3281,-3.3281,-3.3281,-3.3258,-3.312,-3.2214,-3.0997,-3.0522,-2.9353,0.0,-2.8927,0.0,0.0,0.0,0.0,0.0,-2.5206,0.0,0.0,0.0,0.0,0.0,0.0,0.0,0.0,0.0,0.0,0.0,0.0,0.0,0.0,-2.4152,0.0,0.0,0.0,0.0,0.0,0.0,0.0,0.0,0.0,0.0,0.0,0.0,-2.4152,0.0,-2.4152,-2.4152,-2.4152,-2.4152,-2.4152,-2.4152,-2.4152,-2.4152,-2.4152,-2.4152,-2.4152,-2.4152,-2.4152,-2.4152,-2.4152,-2.4152,-2.4152,-2.4152,-2.4152,-2.4152,-2.4152,-2.4152,-2.4152,-2.4152,-2.4152,-2.4152,-2.4152,-2.4251,-2.9879,-2.9994,-3.0193,-3.0692,-3.1208,-3.1936,-3.3069,-3.2353,-3.2037,0.0,0.0,0.0,0.0,0.0,0.0,0.0,0.0,-3.3534,-3.4016,0.0,-3.4062,0.0,0.0,-3.4349,0.0,0.0,-3.3763,-3.3281,-3.3281,-3.3281,-3.3281,-3.3281,-3.3281,-3.3281,-3.3281,-3.3281,-3.3281,-3.3281,-3.3281,-3.3281,-3.3281,-3.3281,-3.3281,0.0,-3.3281,-3.3212,-3.2695,0.0,0.0,-3.1109,-2.9922,0.0,0.0,0.0,0.0,0.0,0.0,0.0,0.0,0.0,0.0,-2.444,0.0,0.0,0.0,0.0,-2.4152,0.0,0.0,0.0,0.0,-2.4152,-2.4152,-2.4152,-2.4152,0.0,0.0,0.0,0.0,0.0,0.0,0.0,0.0,0.0,0.0,0.0,-2.4152,0.0,-2.4152,-2.4152,-2.4152,-2.4152,-2.4152,-2.4152,-2.4152,-2.4152,-2.4152,-2.4152,-2.4152,-2.4152,-2.4152,-2.4152,-2.4152,-2.4152,-2.4152,-2.4152,-2.4152,-2.4152,-2.4152,-2.4152,-2.4152,-2.4152,-2.4152,-2.4152,-2.4152,-2.4251,-2.9994,-2.9994,-3.0099,-3.0193,0.0,-3.1936,-3.3181,-3.2969,0.0,0.0,0.0,0.0,0.0,-3.4017,-3.4017,0.0,0.0,-3.3488,-3.397,-3.4004,0.0,0.0,0.0,-3.4108,0.0,0.0,0.0,-3.3281,-3.3281,-3.3281,-3.3281,-3.3281,-3.3281,-3.3281,-3.3281,-3.3281,0.0,0.0,0.0,0.0,0.0,-3.3281,-3.3281,0.0,0.0,-3.273,-3.2546,-3.1961,0.0,-3.1065,-3.0375,-2.9749,-3.0125,-2.9943,-2.9566,-2.891,-2.8724,0.0,0.0,0.0,-2.7295,-2.5596,0.0,0.0,0.0,0.0,0.0,0.0,0.0,0.0,0.0,-2.4152,-2.4152,-2.4152,-2.4152,-2.4152,0.0,0.0,0.0,0.0,0.0,0.0,0.0,0.0,0.0,-2.4152,-2.4152,-2.4152,0.0,-2.4152,-2.4152,-2.4152,-2.4152,-2.4152,-2.4152,-2.4152,-2.4152,-2.4152,-2.4152,-2.4152,-2.4152,-2.4152,-2.4152,-2.4152,-2.4152,-2.4152,-2.4152,-2.4152,-2.4152,-2.4152,-2.4152,-2.4152,-2.4152,-2.4152,-2.4152,-2.4251,-2.9994,-2.9994,-2.9994,0.0,0.0,0.0,0.0,0.0,0.0,0.0,-3.4115,0.0,-3.4775,0.0,-3.4385,0.0,-3.3744,-3.3419,-3.3729,-3.374,0.0,-3.4245,-3.3935,0.0,0.0,0.0,0.0,0.0,-3.3281,-3.3281,-3.3281,-3.3281,-3.3281,-3.3281,-3.3281,-3.3281,-3.3281,0.0,-3.3281,0.0,0.0,-3.3166,0.0,0.0,-3.2787,-3.2443,0.0,-3.1547,-3.0985,-3.0801,-3.0503,-3.0216,-3.0216,-3.0216,-3.0023,-2.9382,-2.9187,-2.9002,-2.8049,-2.8247,0.0,-2.6638,-2.6723,0.0,-2.5109,0.0,0.0,0.0,0.0,0.0,0.0,0.0,-2.4637,-2.4251,-2.4152,-2.4152,0.0,-2.4152,0.0,0.0,0.0,0.0,0.0,0.0,-2.4152,-2.4152,-2.4152,-2.4152,0.0,0.0,-2.4152,-2.4152,-2.4152,-2.4152,-2.4152,-2.4152,-2.4152,-2.4152,-2.4152,-2.4152,-2.4152,-2.4152,-2.4152,-2.4152,-2.4152,-2.4152,-2.4152,-2.4152,-2.4152,-2.4152,-2.4152,-2.4152,-2.4152,-2.4152,-2.4152,-2.4251,0.0,0.0,0.0,0.0,-3.0391,0.0,0.0,0.0,-3.2901,0.0,-3.4385,-3.4775,-3.5571,-3.4884,-3.4483,-3.4385,-3.3744,0.0,-3.3281,-3.3281,0.0,0.0,-3.3281,-3.3281,-3.3281,0.0,0.0,0.0,0.0,-3.3281,-3.3281,-3.3281,-3.3281,-3.3281,-3.3281,0.0,-3.3281,-3.3281,-3.3269,-3.3247,-3.3247,-3.2925,-3.2443,-3.242,0.0,-3.2282,-3.1352,-3.0996,-3.0893,-3.0388,-3.0216,-3.0216,-3.0216,-3.0216,-3.0216,-3.0216,-3.0216,-3.0034,-2.9002,-2.8817,-2.8527,-2.7568,0.0,0.0,0.0,0.0,-2.6617,0.0,0.0,0.0,0.0,0.0,-2.5314,-2.435,-2.4152,-2.4152,-2.4152,-2.4152,0.0,0.0,0.0,0.0,0.0,-2.4152,-2.4152,-2.4152,-2.4152,-2.4152,0.0,0.0,0.0,-2.4152,-2.4152,-2.4152,-2.4152,-2.4152,-2.4152,-2.4152,-2.4152,-2.4152,-2.4152,-2.4152,-2.4152,-2.4152,-2.4152,-2.4152,-2.4152,-2.4152,-2.4152,-2.4152,-2.4152,-2.4152,-2.4152,-2.4152,-2.4152,-2.4152,-2.9984,-2.9994,-2.9994,0.0,-3.0391,-3.13,0.0,0.0,0.0,0.0,-3.4884,-3.5367,-3.5571,-3.5379,-3.5078,-3.4483,-3.3744,0.0,0.0,0.0,0.0,-3.3281,-3.3281,-3.3281,-3.3281,-3.3281,0.0,-3.3281,0.0,-3.3281,-3.3281,-3.3281,-3.3281,-3.3281,-3.3281,0.0,-3.3281,-3.3281,-3.3051,-3.2695,-3.2695,-3.2397,0.0,0.0,-3.1398,-3.1364,-3.11,-3.0755,-3.0399,-3.0262,-3.0216,-3.0216,-3.0216,-3.0216,-3.0216,-3.0216,-3.0216,-3.0125,-2.984,-2.984,-2.9555,-2.8527,-2.8341,-2.8049,0.0,0.0,0.0,0.0,0.0,0.0,0.0,0.0,0.0,-2.4251,-2.4152,-2.4152,-2.4152,0.0,0.0,-2.4152,0.0,0.0,0.0,-2.4152,-2.4152,-2.4152,-2.4152,0.0,0.0,0.0,0.0,-2.4152,-2.4152,-2.4152,-2.4152,-2.4152,-2.4152,-2.4152,-2.4152,-2.4152,-2.4152,-2.4152,-2.4152,-2.4152,-2.4152,-2.4152,-2.4152,-2.4152,-2.4152,-2.4152,-2.4152,-2.4152,-2.4152,-2.4152,-2.4152,-2.4152,-3.0391,0.0,0.0,-3.0703,0.0,0.0,-3.2353,0.0,0.0,-3.4288,-3.4775,0.0,-3.5571,-3.5571,-3.5271,-3.4483,-3.4017,0.0,-3.3281,0.0,0.0,-3.3281,-3.3281,-3.3281,-3.3281,-3.3281,0.0,-3.3281,0.0,0.0,-3.3281,-3.3281,-3.3281,-3.3281,0.0,-3.3281,-3.3269,-3.304,-3.2764,-3.2466,-3.2259,0.0,0.0,-3.1123,-3.087,-3.0663,-3.0663,-3.0468,-3.0216,-3.0216,-3.0216,-3.0216,-3.0216,-3.0216,-3.0216,-3.0216,-3.0216,-3.0216,-3.0216,-3.0216,-3.0034,-2.9474,-2.9371,-2.9095,-2.8049,-2.8236,-2.8132,0.0,0.0,0.0,0.0,0.0,0.0,-2.4251,-2.4152,-2.4152,0.0,0.0,0.0,0.0,0.0,0.0,0.0,0.0,0.0,0.0,0.0,0.0,0.0,0.0,0.0,-2.4152,-2.4152,-2.4152,-2.4152,-2.4152,-2.4152,-2.4152,-2.4152,-2.4152,-2.4152,-2.4152,-2.4152,-2.4152,-2.4152,-2.4152,-2.4152,-2.4152,-2.4152,-2.4152,-2.4152,-2.4152,-2.4152,-2.4152,-2.4152,-2.4152,0.0,0.0,0.0,0.0,0.0,0.0,0.0,-3.2656,0.0,-3.4495,0.0,-3.4969,-3.5667,-3.5763,-3.5463,-3.4581,0.0,-3.4115,-3.3469,-3.3381,-3.3281,-3.3281,-3.3281,-3.3281,-3.3281,-3.3281,-3.3281,0.0,0.0,-3.3281,-3.3281,-3.3281,-3.3281,-3.3281,0.0,0.0,0.0,-3.2615,-3.2351,0.0,-3.1834,-3.1364,-3.0916,-3.0916,-3.0629,-3.0216,-3.0216,-3.0216,-3.0216,-3.0216,-3.0216,-3.0216,-3.0216,-3.0216,-3.0216,-3.0216,-3.0216,-3.0216,-3.0216,-3.0216,-3.0216,-3.0216,-3.0216,-2.9932,-2.9095,-2.9566,-2.9463,-2.6638,-2.74,0.0,0.0,0.0,0.0,-2.4538,0.0,0.0,0.0,0.0,0.0,0.0,0.0,0.0,0.0,0.0,0.0,0.0,0.0,0.0,0.0,0.0,0.0,0.0,-2.4152,0.0,-2.4053,0.0,-2.4152,-2.4152,-2.4152,-2.4152,-2.4152,-2.4152,-2.4152,-2.4152,-2.4152,-2.4152,-2.4152,-2.4152,-2.4152,-2.4152,-2.4152,-2.4152,-2.4152,-2.4152,-2.4152,-2.4152,0.0,0.0,0.0,0.0,0.0,-3.1618,-3.2218,-3.3012,-3.4005,-3.5271,-3.5941,-3.6332,-3.6521,-3.6521,-3.6238,-3.5463,-3.4775,0.0,0.0,0.0,0.0,-3.3281,-3.3281,-3.3281,-3.3281,-3.3281,-3.3281,0.0,0.0,-3.3281,-3.3281,-3.3281,-3.3281,-3.3281,0.0,0.0,-3.2592,-3.2099,0.0,-3.1272,-3.118,-3.0824,-3.0354,-3.0354,-3.0296,-3.0216,-3.0216,-3.0216,-3.0216,-3.0216,-3.0216,-3.0216,-3.0216,-3.0216,-3.0216,-3.0216,-3.0216,-3.0216,-3.0216,-3.0216,-3.0216,-3.0216,-3.0216,-3.0125,-2.9943,-3.0023,-2.984,-2.8434,-2.7662,-2.7084,-2.6999,0.0,0.0,0.0,0.0,0.0,0.0,0.0,0.0,0.0,0.0,0.0,0.0,0.0,0.0,0.0,0.0,0.0,0.0,0.0,0.0,0.0,0.0,0.0,0.0,0.0,0.0,-2.3845,-2.3845,-2.3954,-2.4152,-2.4152,-2.4152,-2.4152,-2.4152,-2.4152,-2.4152,-2.4152,-2.4152,-2.4152,-2.4152,-2.4152,-2.4152,-2.4152,-2.4152,-2.4152,0.0,0.0,0.0,0.0,0.0,0.0,0.0,-3.4471,0.0,-3.4981,-3.5655,-3.6143,-3.6143,-3.6427,-3.6427,-3.5667,-3.5271,-3.4884,-3.4385,-3.3744,-3.3281,-3.3281,-3.3281,0.0,-3.3281,-3.3281,-3.3281,-3.3281,0.0,0.0,-3.3281,-3.3281,-3.3281,-3.3269,0.0,-3.2592,0.0,0.0,0.0,-3.0996,-3.0709,-3.0445,-3.0216,-3.0216,-3.0216,-3.0216,-3.0216,-3.0216,-3.0216,-3.0216,-3.0216,-3.0216,-3.0216,-3.0216,-3.0216,-3.0216,-3.0216,-3.0216,-3.0216,-3.0216,-3.0216,-3.0216,-3.0216,-3.0216,-3.0216,-3.0216,-2.9932,-2.891,-2.8236,-2.7662,-2.7274,-2.72,0.0,0.0,0.0,0.0,0.0,0.0,0.0,0.0,0.0,0.0,0.0,0.0,0.0,0.0,0.0,0.0,0.0,0.0,0.0,0.0,0.0,0.0,0.0,0.0,0.0,-2.3546,-2.3746,-2.3854,-2.3954,-2.3954,-2.3954,-2.3954,-2.3954,-2.3954,-2.3954,-2.4152,-2.4152,-2.4152,-2.4152,-2.4152,-2.4152,-2.4152,-2.4152,-2.4152,0.0,-3.0909,0.0,0.0,-3.33,0.0,0.0,-3.575,-3.6238,-3.4872,-3.5463,-3.6061,-3.6061,-3.6427,-3.6427,-3.5858,-3.5559,-3.5078,-3.4483,-3.3744,-3.3281,-3.3281,-3.3281,-3.3281,-3.3281,-3.3281,-3.3281,0.0,0.0,0.0,0.0,-3.312,0.0,0.0,0.0,0.0,0.0,0.0,-3.0662,-3.0616,-3.0205,-3.0125,-3.0216,-3.0216,-3.0216,-3.0216,-3.0216,-3.0216,-3.0216,-3.0216,-3.0216,-3.0216,-3.0216,-3.0216,-3.0216,-3.0216,-3.0216,-3.0216,-3.0216,-3.0216,-3.0216,-3.0216,-3.0216,-3.0216,-3.0216,-3.0216,-2.9932,-2.891,-2.8724,-2.8434,-2.7662,-2.7955,0.0,0.0,0.0,0.0,0.0,0.0,0.0,0.0,0.0,0.0,0.0,0.0,0.0,0.0,0.0,0.0,0.0,0.0,0.0,0.0,0.0,0.0,-2.3247,0.0,-2.3546,0.0,-2.3555,-2.3646,-2.3746,-2.3746,-2.3746,-2.3755,-2.3755,-2.3845,-2.3854,-2.4152,-2.4152,-2.4152,-2.4152,-2.4152,-2.4152,-2.4152,-2.4152,-2.4152,0.0,0.0,0.0,0.0,0.0,0.0,0.0,-3.575,-3.6427,-3.5571,-3.6734,-3.7703,-3.7703,-3.7121,-3.6709,-3.6615,-3.5355,-3.4483,-3.4385,-3.3744,-3.3281,-3.3281,-3.3281,-3.3281,-3.3281,-3.3281,-3.3058,0.0,0.0,0.0,0.0,0.0,0.0,0.0,0.0,0.0,0.0,-2.9869,-2.9656,-2.9645,-2.96,-2.9852,-3.0216,-3.0216,-3.0216,-3.0216,-3.0216,-3.0216,-3.0216,-3.0216,-3.0216,-3.0216,-3.0216,-3.0216,-3.0216,-3.0216,-3.0216,-3.0216,-3.0216,-3.0216,-3.0216,-3.0216,-3.0216,-3.0216,-3.0216,-3.0216,-2.9932,-2.891,-2.8724,-2.8631,-2.862,-2.7652,-2.6979,0.0,0.0,0.0,0.0,0.0,0.0,0.0,0.0,0.0,0.0,0.0,0.0,0.0,0.0,0.0,0.0,0.0,0.0,0.0,0.0,-2.2946,-2.2644,-2.2946,0.0,-2.3046,-2.3046,-2.3247,-2.3447,-2.3447,-2.3447,-2.3447,-2.3646,-2.3954,-2.4152,-2.4152,-2.4152,-2.4152,-2.4152,-2.4152,-2.4152,-2.4152,-2.4152,-2.4152,0.0,0.0,0.0,0.0,0.0,0.0,0.0,-3.5052,-3.5432,-3.4669,-3.6501,-3.79,-3.79,-3.7611,-3.7413,-3.7413,-3.6048,-3.5078,-3.5078,-3.3941,-3.3281,-3.3281,-3.3281,-3.3281,-3.3281,-3.2971,-3.259,0.0,0.0,0.0,0.0,0.0,0.0,0.0,0.0,-2.9985,-2.9777,-2.9287,-2.9198,-2.9485,-2.9485,-2.976,-3.0216,-3.0216,-3.0216,-3.0216,-3.0216,-3.0216,-3.0216,-3.0216,-3.0216,-3.0216,-3.0216,-3.0216,-3.0216,-3.0216,-3.0216,-3.0216,-3.0216,-3.0216,-3.0216,-3.0216,-3.0216,-3.0125,-2.9852,-3.0034,-3.0034,-2.929,-2.9382,-2.9371,-2.8456,-2.7955,-2.7274,0.0,0.0,0.0,0.0,0.0,0.0,0.0,0.0,0.0,0.0,0.0,0.0,0.0,0.0,0.0,0.0,0.0,0.0,-2.2644,0.0,-2.2846,-2.2644,-2.2846,-2.2946,-2.2745,-2.2946,-2.3046,-2.3147,-2.3147,-2.3147,-2.3147,-2.3447,-2.3646,-2.3755,-2.4053,-2.4152,-2.3954,-2.4152,-2.4053,-2.3954,-2.3954,-2.3954,-2.3954,-3.1038,0.0,-3.2641,0.0,-3.4313,-3.4791,-3.4301,-3.4855,-3.5124,-3.4301,-3.6018,-3.7377,-3.7377,-3.7196,-3.7013,-3.7013,-3.5855,-3.508,-3.508,-3.4054,-3.3399,-3.3128,-3.3128,0.0,-3.2833,-3.2466,-3.1979,-3.1294,-3.1445,0.0,0.0,0.0,0.0,0.0,-2.9448,-2.9261,-2.9301,-2.8735,-2.8817,-2.929,-2.9106,-2.9382,-3.0034,-3.0034,-3.0034,-3.0034,-3.0125,-3.0216,-3.0216,-3.0216,-3.0216,-3.0216,-3.0216,-3.0216,-3.0216,-3.0216,-3.0216,-3.0216,-3.0034,-3.0125,-3.0216,-3.0034,-3.0125,-3.0125,-2.976,-2.9943,-3.0034,-2.9382,-2.9382,-2.9095,-2.7872,-2.7379,-2.6693,-2.5178,0.0,0.0,0.0,0.0,0.0,0.0,-2.2644,-2.2644,-2.2644,0.0,0.0,0.0,0.0,0.0,0.0,0.0,0.0,0.0,0.0,0.0,0.0,0.0,-2.2745,-2.2644,-2.2745,-2.2846,-2.2846,-2.2846,-2.2946,-2.3046,-2.3247,-2.3347,-2.3456,-2.3854,-2.3845,-2.3755,-2.3954,-2.3954,-2.3646,-2.3746,-2.3746,-2.3646,-3.1697,-3.2477,-3.3526,-3.4532,-3.4713,-3.4803,-3.497,-3.5581,-3.5846,-3.5047,-3.5683,-3.6123,-3.6123,-3.543,-3.5085,-3.5085,-3.4326,-3.3857,-3.3857,-3.3766,-3.3502,0.0,0.0,-3.2524,-3.1777,-3.1777,-3.1287,-3.022,0.0,0.0,-2.87,0.0,-2.9024,-2.9497,-2.8921,-2.8746,-2.8757,-2.8279,-2.8269,-2.8631,-2.8175,-2.8642,-2.9485,-2.9485,-2.9485,-2.9577,-3.0034,-3.0216,-3.0216,-3.0216,-3.0216,-3.0216,-3.0216,-3.0216,-3.0216,-3.0216,-3.0216,-3.0125,-2.9669,-2.9852,-3.0125,-2.9577,-2.9852,-3.0216,-3.0216,-3.0216,-2.9943,-2.891,-2.8154,-2.7484,-2.6884,-2.5548,-2.459,-2.4894,0.0,0.0,0.0,0.0,0.0,0.0,-2.2644,-2.2644,-2.2644,0.0,0.0,0.0,0.0,0.0,0.0,0.0,0.0,-2.2644,-2.2644,0.0,-2.2644,-2.2644,-2.2644,-2.2644,-2.2644,-2.2644,-2.2644,-2.2644,-2.2745,-2.3046,-2.3046,-2.3147,-2.3447,-2.3456,-2.3456,-2.3447,-2.3646,-2.3646,-2.3447,-2.3646,-2.3646,-2.3447,-3.2321,-3.2766,-3.322,-3.3757,-3.4178,-3.435,-3.4005,-3.4091,-3.4178,-3.3931,-3.4091,-3.4435,-3.4862,-3.5466,-3.5758,0.0,-3.5035,-3.4598,0.0,-3.4119,-3.3662,-3.3489,-3.3489,-3.3131,-3.25,-3.1856,-3.0921,-2.9718,0.0,0.0,0.0,-2.825,-2.8445,-2.8921,-2.8092,-2.8092,-2.8757,-2.7914,-2.7998,-2.8631,-2.8175,-2.8642,-2.9485,-2.9106,-2.9198,-2.9485,-2.9669,-2.976,-2.976,-2.976,-2.976,-2.976,-2.976,-2.9943,-3.0216,-3.0216,-3.0216,-3.0216,-3.0034,-3.0125,-3.0125,-3.0034,-3.0125,-3.0125,-2.976,-2.9474,-2.9013,-2.8362,-2.7882,-2.72,-2.5954,-2.508,-2.4295,-2.3728,0.0,0.0,0.0,0.0,0.0,0.0,0.0,-2.2644,0.0,-2.2644,0.0,0.0,0.0,0.0,0.0,0.0,0.0,0.0,-2.2644,0.0,-2.2644,-2.2644,-2.2644,-2.2644,-2.2644,-2.2644,-2.2644,-2.2644,-2.2644,-2.2745,-2.2946,-2.2946,-2.2846,-2.3247,-2.3247,-2.3147,-2.3447,-2.3347,-2.3147,-2.3247,-2.3247,-2.3147,-3.2711,-3.297,-3.3215,-3.3471,-3.3894,-3.4063,-3.3738,-3.3654,-3.3654,-3.3725,-3.381,-3.3894,-3.4314,-3.5038,0.0,-3.5469,-3.5037,0.0,-3.4702,-3.387,-3.322,-3.2859,-3.2496,-3.1958,-3.1239,0.0,0.0,-2.8921,-2.8419,-2.7987,-2.7715,-2.7715,-2.7998,-2.8351,-2.7631,-2.7726,-2.8466,-2.7631,-2.7715,-2.8362,-2.7904,-2.8186,-2.8921,-2.8549,-2.8642,-2.9013,-2.9393,-2.9393,-2.9198,-2.9393,-2.9393,-2.9301,-2.9485,-2.9669,-2.9943,-3.0125,-3.0216,-3.0125,-2.9943,-3.0034,-3.0125,-2.9943,-2.9943,-2.9852,-2.9301,-2.8828,-2.8258,-2.741,-2.6924,-2.6147,-2.4707,-2.4313,-2.3917,-2.3046,0.0,-2.2946,0.0,0.0,0.0,0.0,0.0,0.0,0.0,-2.2644,0.0,0.0,0.0,0.0,0.0,0.0,0.0,-2.2644,-2.2644,0.0,-2.2644,-2.2644,-2.2644,-2.2644,-2.2644,-2.2644,-2.2644,-2.2644,-2.2644,-2.2653,-2.2745,-2.2745,-2.2653,-2.2946,-2.3046,-2.2846,-2.3147,-2.3046,-2.2846,-2.2946,-2.2946,-2.2846,-3.2797,-3.3142,0.0,0.0,-3.3725,0.0,-3.4076,-3.4076,-3.416,-3.4314,-3.4397,-3.4397,-3.4397,-3.4397,-3.4397,-3.4397,0.0,0.0,0.0,-3.3164,-3.219,-3.1311,-3.0339,0.0,-2.8817,-2.8724,-2.8445,-2.7987,-2.7536,-2.7262,-2.7262,-2.7262,-2.7536,-2.7987,-2.7536,-2.7536,-2.7998,-2.7536,-2.7536,-2.7998,-2.7441,-2.7536,-2.7998,-2.7998,-2.7998,-2.8081,-2.9013,-2.9106,-2.8724,-2.9209,-2.9117,-2.8839,-2.9301,-2.9393,-2.9577,-3.0034,-3.0216,-3.0034,-2.9669,-2.9852,-3.0034,-2.9577,-2.9485,-2.9301,-2.885,-2.8373,-2.76,-2.6436,-2.5567,-2.4599,-2.3338,-2.3438,-2.3438,-2.2745,-2.3138,-2.3329,-2.2745,0.0,0.0,0.0,0.0,0.0,0.0,-2.2644,-2.2644,0.0,0.0,0.0,0.0,0.0,-2.2644,-2.2644,-2.2644,-2.2644,-2.2644,-2.2644,-2.2644,-2.2644,-2.2644,-2.2644,-2.2644,-2.2644,-2.2644,-2.2644,-2.2644,-2.2644,-2.2644,-2.2644,-2.2644,-2.2644,-2.2846,-2.2846,-2.2644,-2.2846,-2.2846,-2.2644,0.0,0.0,-3.3641,-3.3713,-3.3894,-3.3992,-3.381,-3.3992,-3.416,-3.416,-3.4314,-3.4397,-3.4397,-3.4243,-3.416,-3.416,-3.4314,-3.4314,-3.4076,-3.3164,-3.2463,-3.204,-3.111,-3.0226,-2.9532,-2.9176,-2.8538,-2.7441,-2.7347,-2.7262,-2.7262,-2.7262,-2.7536,-2.7987,-2.7536,-2.7536,-2.7998,-2.7536,-2.7536,-2.7998,-2.7441,-2.7536,-2.7998,-2.762,-2.7715,-2.7987,-2.8269,-2.8549,-2.8631,-2.8456,-2.8549,-2.8642,-2.8456,-2.8642,-2.9106,-2.9932,-2.9943,-2.976,-2.9943,-2.9566,-2.9095,-2.9393,-2.9209,-2.8839,-2.8279,-2.8081,-2.7799,-2.7146,-2.638,-2.5499,-2.4599,-2.4016,-2.3438,-2.2745,-2.2745,-2.2846,-2.2644,0.0,0.0,0.0,-2.2644,-2.2644,-2.2644,-2.2644,-2.2644,0.0,0.0,0.0,0.0,0.0,-2.2644,-2.2644,-2.2644,-2.2644,-2.2644,-2.2644,-2.2644,-2.2644,-2.2644,-2.2644,-2.2644,-2.2644,-2.2644,-2.2644,-2.2644,-2.2644,-2.2644,-2.2644,-2.2644,-2.2653,-2.2644,-2.2644,-2.2653,-2.2644,-2.2644,-2.2653,-3.3398,-3.3471,-3.3556,-3.3556,-3.3654,-3.3738,-3.3556,-3.3725,-3.3823,-3.4076,-3.4243,-3.4314,-3.4397,-3.4243,-3.4076,-3.4076,-3.4063,-3.3979,-3.3823,-3.2834,-3.2215,-3.1965,-3.1045,-3.0328,-2.9988,-2.9268,-2.8351,-2.7262,-2.7262,-2.7262,-2.7262,-2.7262,-2.7441,-2.7631,-2.7441,-2.7441,-2.762,-2.7441,-2.7441,-2.762,-2.7452,-2.7441,-2.7631,-2.7452,-2.7441,-2.7715,-2.7904,-2.8175,-2.8362,-2.8081,-2.8175,-2.8362,-2.8081,-2.8175,-2.8549,-2.9279,-2.9393,-2.9209,-2.9474,-2.9095,-2.8724,-2.8828,-2.8642,-2.8279,-2.7809,-2.7726,-2.7526,-2.687,-2.6081,-2.5294,-2.451,-2.4016,-2.3438,-2.2745,-2.2846,-2.2946,-2.2644,-2.2644,0.0,-2.2644,-2.2644,-2.2644,-2.2644,-2.2644,-2.2644,-2.2644,0.0,0.0,-2.2644,-2.2644,-2.2644,-2.2644,-2.2644,-2.2644,-2.2644,-2.2644,-2.2644,-2.2644,-2.2644,-2.2644,-2.2644,-2.2644,-2.2644,-2.2644,-2.2644,-2.2644,-2.2644,-2.2644,-2.2644,-2.2644,-2.2644,-2.2644,-2.2644,-2.2644,-2.2644,-2.2644,-3.3313,-3.3398,-3.3398,-3.3398,-3.3398,-3.3398,-3.3398,-3.3398,-3.3569,-3.3907,-3.3992,-3.4063,-3.4314,-3.4063,-3.3992,-3.3992,-3.3725,-3.3556,-3.3398,-3.2513,-3.1801,-3.1448,-3.0441,-2.9897,-2.9806,-2.8899,-2.8081,-2.7262,-2.7262,-2.7262,-2.7262,-2.7262,-2.7262,-2.7262,-2.7262,-2.7262,-2.7262,-2.7262,-2.7262,-2.7262,-2.7262,-2.7262,-2.7262,-2.7262,-2.7262,-2.7347,-2.7715,-2.7904,-2.7998,-2.7904,-2.7904,-2.7998,-2.7904,-2.7904,-2.7998,-2.8351,-2.8549,-2.856,-2.8642,-2.8631,-2.8445,-2.7987,-2.7904,-2.7809,-2.7357,-2.7262,-2.7061,-2.6294,-2.5596,-2.4796,-2.3827,-2.3728,-2.3438,-2.2745,-2.3138,-2.3338,-2.2644,0.0,-2.2644,-2.2644,-2.2644,-2.2644,-2.2644,-2.2644,-2.2644,-2.2644,-2.2644,0.0,0.0,-2.2644,-2.2644,-2.2644,-2.2644,-2.2644,-2.2644,-2.2644,-2.2644,-2.2644,-2.2644,-2.2644,-2.2644,-2.2644,-2.2644,-2.2644,-2.2644,-2.2644,-2.2644,-2.2644,-2.2544,-2.2342,-2.2544,-2.2443,-2.2342,-2.2544,-2.2644,-2.2644,-3.3154,-3.3326,-3.3313,-3.3154,-3.3326,-3.3313,-3.3154,-3.3326,-3.3398,-3.3484,-3.3641,-3.3797,-3.3797,-3.3641,-3.3484,-3.3484,-3.3326,-3.324,-3.3398,-3.2513,-3.1536,-3.0441,-2.9441,-2.8538,-2.7809,-2.7631,-2.7452,-2.7262,-2.7262,-2.7262,-2.7262,-2.7262,-2.7262,-2.7262,-2.7262,-2.7262,-2.7262,-2.7262,-2.7262,-2.7262,-2.7262,-2.7262,-2.7262,-2.7262,-2.7262,-2.7357,-2.7347,-2.762,-2.7904,-2.7536,-2.762,-2.7904,-2.7536,-2.7441,-2.7441,-2.7536,-2.7536,-2.7726,-2.8445,-2.8456,-2.7998,-2.7536,-2.7441,-2.7357,-2.7357,-2.7262,-2.7061,-2.6294,-2.5994,-2.5499,-2.3926,-2.3728,-2.3438,-2.2745,-2.2745,-2.2745,-2.2644,0.0,-2.2644,-2.2644,-2.2644,-2.2644,-2.2644,-2.2644,-2.2644,-2.2644,-2.2644,-2.2644,-2.2644,-2.2644,-2.2644,-2.2644,-2.2644,-2.2644,-2.2644,-2.2644,-2.2644,-2.2644,-2.2644,-2.2644,-2.2644,-2.2644,-2.2644,-2.2644,-2.2644,-2.2644,-2.2644,-2.2644,-2.2021,-2.1293,-2.2232,-2.2021,-2.1293,-2.2232,-2.2644,-2.2644,-3.3081,-3.3154,-3.324,-3.3167,-3.3154,-3.324,-3.3081,-3.3154,-3.3326,-3.3398,-3.3471,-3.3556,-3.3713,-3.3556,-3.3398,-3.3398,-3.324,-3.3154,-3.324,-3.2797,-3.2351,-3.1801,-3.1347,-3.0621,-2.9624,-2.8631,-2.8081,-2.8081,-2.7536,-2.7262,-2.7262,-2.7262,-2.7262,-2.7262,-2.7262,-2.7262,-2.7262,-2.7262,-2.7262,-2.7262,-2.7262,-2.7262,-2.7262,-2.7262,-2.7262,-2.7262,-2.7262,-2.762,-2.7904,-2.7441,-2.7631,-2.7904,-2.7441,-2.7262,-2.7262,-2.7262,-2.7262,-2.7347,-2.7809,-2.7809,-2.7536,-2.7347,-2.7262,-2.7262,-2.7262,-2.6965,-2.6582,-2.6197,-2.5401,-2.4618,-2.3827,-2.3338,-2.3038,-2.2644,-2.2644,0.0,0.0,-2.2644,-2.2644,-2.2644,-2.2644,-2.2644,-2.2644,-2.2644,-2.2644,-2.2644,-2.2644,-2.2644,-2.2644,-2.2644,-2.2644,-2.2644,-2.2644,-2.2644,-2.2644,-2.2644,-2.2644,-2.2644,-2.2644,-2.2644,-2.2644,-2.2644,-2.2644,-2.2544,-2.192,-2.1717,-2.1615,-2.0987,-2.0467,-2.0055,-2.057,-2.0475,-2.0055,-2.057,-2.0783,-2.0885,-3.3081,-3.3081,-3.3081,-3.3081,-3.3081,-3.3081,-3.3081,-3.3081,-3.3154,-3.3313,-3.3313,-3.3398,-3.3556,-3.3398,-3.3313,-3.3313,-3.3154,-3.3081,-3.3081,-3.3081,-3.2995,-3.2797,-3.2537,-3.2077,-3.1258,-2.9806,-2.9084,-2.9084,-2.8351,-2.7987,-2.7998,-2.7715,-2.7631,-2.7631,-2.7452,-2.7262,-2.7262,-2.7262,-2.7262,-2.7262,-2.7262,-2.7262,-2.7262,-2.7262,-2.7262,-2.7262,-2.7262,-2.7536,-2.7809,-2.7441,-2.7536,-2.7809,-2.7441,-2.7262,-2.7262,-2.7262,-2.7262,-2.7262,-2.7262,-2.7262,-2.7262,-2.7262,-2.7156,-2.7061,-2.7061,-2.638,-2.58,-2.5606,-2.452,-2.3628,-2.3438,-2.2937,-2.2644,-2.2644,0.0,0.0,0.0,-2.2644,-2.2644,-2.2644,-2.2644,-2.2644,-2.2644,-2.2644,-2.2644,-2.2644,-2.2644,-2.2644,-2.2644,-2.2644,-2.2644,-2.2644,-2.2644,-2.2644,-2.2644,-2.2644,-2.2443,-2.2232,-2.2232,-2.203,-2.1818,-2.1818,-2.1818,-2.1717,-2.0885,-2.0467,-2.0467,-1.9539,-1.902,-1.8812,-1.9124,-1.902,-1.8923,-1.9435,-1.9642,-1.9746,-3.3081,-3.3081,-3.3081,-3.3081,-3.3081,-3.3081,-3.3081,-3.3081,-3.3081,-3.3167,-3.3167,-3.3154,-3.3154,-3.3154,-3.3167,-3.3167,-3.3081,-3.3081,-3.3081,-3.3081,-3.2711,-3.1713,-3.089,-3.0351,-3.026,-3.017,-3.0079,-3.0079,-2.9988,-2.9988,-2.9988,-2.8991,-2.8631,-2.8538,-2.7715,-2.7262,-2.7262,-2.7262,-2.7262,-2.7262,-2.7262,-2.7262,-2.7262,-2.7262,-2.7262,-2.7262,-2.7262,-2.7347,-2.7357,-2.7357,-2.7347,-2.7357,-2.7357,-2.7262,-2.7262,-2.7262,-2.7262,-2.7262,-2.7262,-2.7262,-2.7262,-2.7262,-2.6774,-2.6197,-2.6197,-2.5586,-2.4796,-2.4016,-2.3728,-2.3529,-2.2846,-2.2644,-2.2644,-2.2644,0.0,0.0,-2.2644,-2.2644,-2.2644,-2.2644,-2.2644,-2.2644,-2.2644,-2.2644,-2.2644,-2.2644,-2.2644,-2.2644,-2.2644,-2.2644,-2.2644,-2.2644,-2.2644,-2.2644,-2.2644,-2.2644,-2.203,-2.0987,-2.0987,-2.0467,-1.9435,-1.9435,-1.9435,-1.9435,-1.9332,-1.9332,-1.9332,-1.9228,-1.861,-1.7793,-1.8819,-1.861,-1.7996,-2.0055,-2.0783,-2.0987,-3.3081,-3.3081,-3.3081,-3.3081,-3.3081,-3.3081,-3.3081,-3.3081,-3.3081,-3.3081,-3.3081,-3.3081,-3.3081,-3.3081,-3.3081,-3.3081,-3.3081,-3.3081,-3.3081,-3.3081,-3.2624,-3.1625,-3.0711,-3.017,-3.017,-2.8991,-2.8724,-2.9268,-2.9268,-2.8991,-2.8445,-2.8631,-2.8351,-2.7809,-2.7441,-2.7262,-2.7262,-2.7262,-2.7262,-2.7262,-2.7262,-2.7262,-2.7262,-2.7262,-2.7262,-2.7262,-2.7262,-2.7262,-2.7262,-2.7262,-2.7262,-2.7262,-2.7262,-2.7262,-2.7262,-2.7262,-2.7262,-2.7262,-2.7262,-2.7262,-2.7262,-2.7262,-2.7061,-2.6678,-2.6187,-2.5489,-2.4698,-2.3827,-2.3338,-2.2946,-2.2644,-2.2644,-2.2644,-2.2644,0.0,-2.2644,-2.2644,-2.2644,-2.2644,-2.2644,-2.2644,-2.2644,-2.2644,-2.2644,-2.2644,-2.2644,-2.2644,-2.2644,-2.2644,-2.2644,-2.2232,-2.1607,-2.1505,-2.1505,-2.1505,-2.0885,-2.0261,-1.9849,-1.9849,-1.9642,-1.9228,-1.9228,-1.9228,-1.9124,-1.8513,-1.8199,-1.8199,-1.7457,-1.7358,-1.7687,-1.8094,-1.8408,-1.8715,-1.9539,-1.9849,-2.0055,-3.3081,-3.3081,-3.3081,-3.3081,-3.3081,-3.3081,-3.3081,-3.3081,-3.3081,-3.3081,-3.3081,-3.3081,-3.3081,-3.3081,-3.3081,-3.3081,-3.3081,-3.2982,-3.2624,-3.2624,-3.2438,-3.2077,-3.1169,-3.0621,-3.0621,-2.9084,-2.8538,-2.9176,-2.9176,-2.8806,-2.8269,-2.8538,-2.8362,-2.7726,-2.7441,-2.7262,-2.7262,-2.7262,-2.7262,-2.7262,-2.7262,-2.7262,-2.7262,-2.7262,-2.7262,-2.7262,-2.7262,-2.7262,-2.7262,-2.7262,-2.7262,-2.7262,-2.7262,-2.7262,-2.7262,-2.7262,-2.7262,-2.7262,-2.7262,-2.7167,-2.6965,-2.7262,-2.7061,-2.6678,-2.5897,-2.5099,-2.4313,-2.3538,-2.2946,-2.2644,-2.2644,-2.2644,-2.2644,-2.2644,-2.2644,-2.2644,-2.2644,-2.2644,-2.2644,-2.2644,-2.2644,-2.2644,-2.2644,-2.2644,-2.2644,-2.2644,-2.2644,-2.2644,-2.2644,-2.2644,-2.2232,-2.1505,-2.0783,-2.0364,-2.0364,-1.9642,-1.902,-1.8715,-1.8715,-1.8506,-1.8185,-1.8185,-1.8185,-1.808,-1.7364,-1.7054,-1.7054,-1.6205,-1.6311,-1.7054,-1.7477,-1.8094,-1.8715,-1.9124,-1.9435,-1.9849,-3.3081,-3.3081,-3.3081,-3.3081,-3.3081,-3.3081,-3.3081,-3.3081,-3.3081,-3.3081,-3.3081,-3.3081,-3.3081,-3.3081,-3.3081,-3.3081,-3.3081,-3.2624,-3.1625,-3.1625,-3.1989,-3.3068,-3.2164,-3.1625,-3.1625,-3.0711,-3.017,-3.017,-3.017,-3.017,-3.017,-2.9176,-2.8724,-2.8631,-2.7715,-2.7262,-2.7262,-2.7262,-2.7262,-2.7262,-2.7262,-2.7262,-2.7262,-2.7262,-2.7262,-2.7262,-2.7262,-2.7262,-2.7262,-2.7262,-2.7262,-2.7262,-2.7262,-2.7262,-2.7262,-2.7262,-2.7262,-2.7262,-2.7262,-2.6678,-2.6284,-2.7061,-2.6678,-2.5897,-2.5089,-2.4313,-2.3529,-2.2745,-2.2644,-2.2644,-2.2644,-2.2644,-2.2644,-2.2644,-2.2644,-2.2644,-2.2644,-2.2644,-2.2644,-2.2644,-2.2644,-2.2644,-2.2644,-2.2644,-2.2644,-2.2644,-2.2644,-2.2644,-2.2644,-2.2644,-2.2544,-2.2544,-2.0364,-1.9228,-1.9124,-1.9124,-1.861,-1.7582,-1.7582,-1.6948,-1.5891,-1.5891,-1.5891,-1.5891,-1.5891,-1.5891,-1.5891,-1.5891,-1.5891,-1.5998,-1.716,-1.7582,-1.7793,-1.8819,-1.9952,-2.0885,-3.3081,-3.3081,-3.3081,-3.3081,-3.3081,-3.2884,-3.2164,-3.2077,-3.1801,-3.1169,-3.108,-3.108,-3.108,-3.108,-3.108,-3.108,-3.108,-3.0902,-3.0621,-3.0621,-3.0711,-3.1069,-3.1436,-3.1258,-3.0621,-3.0351,-2.9897,-2.9176,-2.9897,-2.9532,-2.8175,-2.8538,-2.8362,-2.7715,-2.7441,-2.7262,-2.7262,-2.7262,-2.7262,-2.7262,-2.7262,-2.7262,-2.7262,-2.7262,-2.7262,-2.7262,-2.7262,-2.7262,-2.7262,-2.7262,-2.7262,-2.7262,-2.7262,-2.7262,-2.7262,-2.7262,-2.687,-2.6486,-2.6486,-2.5887,-2.5489,-2.6284,-2.5887,-2.5099,-2.4214,-2.3827,-2.3529,-2.2745,-2.2644,-2.2644,-2.2644,-2.2644,-2.2644,-2.2644,-2.2644,-2.2644,-2.2644,-2.2644,-2.2644,-2.2644,-2.2644,-2.2644,-2.2644,-2.2644,-2.2644,-2.2644,-2.2644,-2.2644,-2.2644,-2.2644,-2.192,-2.0261,-1.9539,-1.8499,-1.6935,-1.6829,-1.6723,-1.6418,-1.6418,-1.6205,-1.5891,-1.5891,-1.5891,-1.5891,-1.5891,-1.5891,-1.5891,-1.5891,-1.6418,-1.716,-1.7477,-1.8101,-1.8715,-1.9124,-1.9435,-1.9746,-3.3081,-3.3081,-3.2982,-3.2624,-3.2537,-3.2164,-3.1169,-3.108,-3.08,-3.026,-3.017,-3.017,-3.017,-3.017,-3.017,-3.017,-2.9806,-2.9635,-2.9635,-2.9635,-2.9635,-2.9635,-3.0531,-3.0621,-2.9624,-2.9257,-2.8899,-2.8724,-2.936,-2.8991,-2.7904,-2.8445,-2.8175,-2.7262,-2.7262,-2.7262,-2.7262,-2.7262,-2.7262,-2.7262,-2.7262,-2.7262,-2.7262,-2.7262,-2.7262,-2.7262,-2.7262,-2.7262,-2.7262,-2.7262,-2.7262,-2.7262,-2.7262,-2.7262,-2.7262,-2.6965,-2.6486,-2.5994,-2.5693,-2.5001,-2.451,-2.5011,-2.5001,-2.4698,-2.3926,-2.3728,-2.3529,-2.2745,-2.2644,-2.2644,-2.2644,-2.2644,-2.2644,-2.2644,-2.2644,-2.2644,-2.2644,-2.2644,-2.2644,-2.2644,-2.2644,-2.2644,-2.2644,-2.2644,-2.2644,-2.2644,-2.2644,-2.2434,-2.192,-2.192,-2.1089,-1.9228,-1.8819,-1.7884,-1.663,-1.6099,-1.5891,-1.5891,-1.5891,-1.5891,-1.5891,-1.5891,-1.5891,-1.5891,-1.5891,-1.5891,-1.5891,-1.5891,-1.6311,-1.6948,-1.7371,-1.7996,-1.861,-1.861,-1.8819,-1.9124,-3.2896,-3.281,-3.2525,-3.1625,-3.1448,-3.1169,-3.017,-3.0079,-2.9988,-2.9897,-2.9897,-2.9897,-2.9897,-2.9897,-2.9897,-2.9897,-2.9084,-2.8538,-2.8538,-2.8538,-2.8538,-2.8538,-2.9441,-2.9532,-2.8631,-2.7904,-2.7904,-2.8724,-2.8724,-2.8631,-2.8538,-2.8538,-2.8081,-2.7262,-2.7262,-2.7262,-2.7262,-2.7262,-2.7262,-2.7262,-2.7262,-2.7262,-2.7262,-2.7262,-2.7262,-2.7262,-2.7262,-2.7262,-2.7262,-2.7262,-2.7262,-2.7262,-2.7262,-2.7262,-2.7071,-2.6284,-2.6004,-2.5703,-2.4992,-2.4214,-2.3628,-2.3628,-2.4115,-2.4501,-2.3728,-2.3628,-2.3438,-2.2745,-2.2644,-2.2644,-2.2644,-2.2644,-2.2644,-2.2644,-2.2644,-2.2644,-2.2644,-2.2644,-2.2644,-2.2644,-2.2644,-2.2644,-2.2644,-2.2644,-2.2544,-2.2443,-2.2443,-2.192,-2.0783,-2.0783,-2.0261,-1.9124,-1.8101,-1.7582,-1.7477,-1.6418,-1.5891,-1.5891,-1.5891,-1.5891,-1.5891,-1.5891,-1.5891,-1.5891,-1.5891,-1.5891,-1.5891,-1.5891,-1.5891,-1.5992,-1.7054,-1.7477,-1.7477,-1.7477,-1.8094,-1.8812,-3.0979,-3.08,-3.0711,-3.0531,-3.0328,-2.9966,-2.9176,-2.8888,-2.8423,-2.7715,-2.7631,-2.7631,-2.7631,-2.7631,-2.7726,-2.7904,-2.7715,-2.762,-2.762,-2.762,-2.762,-2.762,-2.7809,-2.7809,-2.7631,-2.8899,-2.9268,-2.8724,-2.8724,-2.8362,-2.762,-2.762,-2.7536,-2.7262,-2.7262,-2.7262,-2.7262,-2.7262,-2.7262,-2.7262,-2.7262,-2.7262,-2.7262,-2.7262,-2.7262,-2.7262,-2.7262,-2.7262,-2.7262,-2.7262,-2.7262,-2.7262,-2.7262,-2.687,-2.6294,-2.6197,-2.5206,-2.4223,-2.4016,-2.3429,-2.2846,-2.2846,-2.2937,-2.3038,-2.2846,-2.2846,-2.2745,-2.2644,-2.2644,-2.2644,-2.2644,-2.2644,-2.2644,-2.2644,-2.2644,-2.2644,-2.2644,-2.2644,-2.2644,-2.2644,-2.2644,-2.2644,-2.2644,-2.2644,-2.2232,-2.1302,-2.1302,-2.0783,-1.9642,-1.9539,-1.902,-1.7996,-1.7687,-1.716,-1.6311,-1.5998,-1.5891,-1.5891,-1.5891,-1.5891,-1.5891,-1.5891,-1.5891,-1.5891,-1.5891,-1.5891,-1.5891,-1.5891,-1.5891,-1.5891,-1.6205,-1.6311,-1.6311,-1.6311,-1.6418,-1.6624,-3.026,-3.017,-3.0079,-2.9532,-2.9338,-2.8969,-2.8175,-2.7893,-2.761,-2.6996,-2.69,-2.69,-2.69,-2.69,-2.6996,-2.7262,-2.7262,-2.7262,-2.7262,-2.7262,-2.7262,-2.7262,-2.7262,-2.7262,-2.7262,-2.8258,-2.8806,-2.8724,-2.8724,-2.8445,-2.7998,-2.7998,-2.7715,-2.7262,-2.7262,-2.7262,-2.7262,-2.7262,-2.7262,-2.7262,-2.7262,-2.7262,-2.7262,-2.7262,-2.7262,-2.7262,-2.7262,-2.7262,-2.7262,-2.7262,-2.7262,-2.7262,-2.7262,-2.6965,-2.6582,-2.6187,-2.5206,-2.4214,-2.3827,-2.3138,-2.2644,-2.2644,-2.2644,-2.2644,-2.2644,-2.2644,-2.2644,-2.2644,-2.2644,-2.2644,-2.2644,-2.2644,-2.2644,-2.2644,-2.2644,-2.2644,-2.2644,-2.2644,-2.2644,-2.2644,-2.2644,-2.2443,-2.1818,-2.1818,-2.1302,-2.0158,-2.0055,-1.9642,-1.8513,-1.8401,-1.7884,-1.6842,-1.6736,-1.6524,-1.5891,-1.5891,-1.5891,-1.5891,-1.5891,-1.5891,-1.5891,-1.5891,-1.5891,-1.5891,-1.5891,-1.5891,-1.5891,-1.5891,-1.5891,-1.5891,-1.5891,-1.5891,-1.5891,-1.5891,-1.5891,-1.5891,-3.026,-3.0079,-2.9715,-2.8817,-2.8538,-2.8175,-2.7441,-2.7262,-2.7177,-2.69,-2.69,-2.69,-2.69,-2.69,-2.6986,-2.7167,-2.7262,-2.7262,-2.7262,-2.7262,-2.7262,-2.7262,-2.7262,-2.7262,-2.7262,-2.7262,-2.7726,-2.8445,-2.8445,-2.8445,-2.8445,-2.8445,-2.8092,-2.7262,-2.7262,-2.7262,-2.7262,-2.7262,-2.7262,-2.7262,-2.7262,-2.7262,-2.7262,-2.7262,-2.7262,-2.7262,-2.7262,-2.7262,-2.7262,-2.7262,-2.7262,-2.7061,-2.7061,-2.687,-2.6572,-2.5897,-2.5099,-2.4402,-2.3728,-2.3046,-2.2644,-2.2644,-2.2644,-2.2644,-2.2644,-2.2644,-2.2644,-2.2644,-2.2644,-2.2644,-2.2644,-2.2644,-2.2644,-2.2644,-2.2644,-2.2644,-2.2644,-2.2644,-2.2644,-2.2644,-2.2443,-2.1818,-2.0672,-2.0577,-2.0158,-1.902,-1.8916,-1.8401,-1.7371,-1.7265,-1.6842,-1.5891,-1.5891,-1.5891,-1.5891,-1.5891,-1.5891,-1.5891,-1.5891,-1.5891,-1.5891,-1.5891,-1.5891,-1.5891,-1.5891,-1.5891,-1.5891,-1.5891,-1.5891,-1.5891,-1.5891,-1.5891,-1.5891,-1.5891,-1.5891,-1.5891,-3.0351,-2.9532,-2.8899,-2.8724,-2.7809,-2.7177,-2.7262,-2.7081,-2.69,-2.69,-2.69,-2.69,-2.69,-2.69,-2.69,-2.6996,-2.6996,-2.6996,-2.6996,-2.7177,-2.7262,-2.7262,-2.7262,-2.7262,-2.7262,-2.7262,-2.7357,-2.7536,-2.7536,-2.7536,-2.7536,-2.7536,-2.7441,-2.7262,-2.7262,-2.7262,-2.7262,-2.7262,-2.7262,-2.7262,-2.7262,-2.7262,-2.7262,-2.7262,-2.7262,-2.7262,-2.7262,-2.7262,-2.7262,-2.7262,-2.687,-2.6294,-2.6294,-2.5304,-2.4125,-2.4026,-2.3538,-2.2846,-2.2745,-2.2644,-2.2644,-2.2644,-2.2644,-2.2644,-2.2644,-2.2644,-2.2644,-2.2644,-2.2644,-2.2644,-2.2644,-2.2644,-2.2644,-2.2644,-2.2644,-2.2644,-2.2644,-2.2644,-2.2644,-2.2644,-2.1717,-2.068,-1.9539,-1.9435,-1.902,-1.7891,-1.7793,-1.7364,-1.6205,-1.6099,-1.6099,-1.5891,-1.5891,-1.5891,-1.5891,-1.5891,-1.5891,-1.5891,-1.5891,-1.5891,-1.5891,-1.5891,-1.5891,-1.5891,-1.5891,-1.5891,-1.5891,-1.5891,-1.5891,-1.5891,-1.5891,-1.5891,-1.5891,-1.5891,-1.5891,-1.5891,-2.8713,-2.8269,-2.7904,-2.7904,-2.7357,-2.6986,-2.7262,-2.6976,-2.6699,-2.6699,-2.6699,-2.6699,-2.6699,-2.6986,-2.7081,-2.69,-2.7081,-2.7081,-2.69,-2.7177,-2.7262,-2.7081,-2.7262,-2.7262,-2.7081,-2.7262,-2.7262,-2.7262,-2.7262,-2.7262,-2.7262,-2.7262,-2.7262,-2.7262,-2.7262,-2.7262,-2.7262,-2.7262,-2.7262,-2.7262,-2.7262,-2.7262,-2.7262,-2.7262,-2.7262,-2.7262,-2.7262,-2.7262,-2.7262,-2.6774,-2.639,-2.5994,-2.5586,-2.4903,-2.4412,-2.4412,-2.3818,-2.3238,-2.3238,-2.2946,-2.2644,-2.2644,-2.2644,-2.2644,-2.2644,-2.2644,-2.2644,-2.2644,-2.2644,-2.2644,-2.2644,-2.2644,-2.2644,-2.2644,-2.2644,-2.2644,-2.2644,-2.203,-2.1404,-2.0783,-2.0261,-1.9539,-1.8408,-1.8304,-1.7884,-1.6736,-1.663,-1.6418,-1.5891,-1.5891,-1.5891,-1.5891,-1.5891,-1.5891,-1.5891,-1.5891,-1.5891,-1.5891,-1.5891,-1.5891,-1.5891,-1.5891,-1.5891,-1.5891,-1.5891,-1.5891,-1.5891,-1.5891,-1.5891,-1.5891,-1.5891,-1.5891,-1.5891,-1.5891,-1.5891,-1.5891]}]]